[[{"header":{"parameterUnit":"m.s-1","parameterCategory":1,"la1":30.6,"la2":28.766,"lo1":-90.7593,"lo2":-88.6598,"dy":0.0162,"dx":0.0183,"nx":116,"ny":114,"refTime":"2023-05-08T00:00:00:Z","depth":0,"parameterNumber":2,"parameterNumberName":"U-component_of_WINDS"},"data":[0.0,0.0,0.0,0.0,0.0,0.0,0.0,0.0,0.0,0.0,0.0,0.0,0.0,0.0,0.0,0.0,0.0,0.0,0.0,0.0,0.0,0.0,0.0,0.0,0.0,0.0,0.0,0.0,0.0,0.0,0.0,0.0,0.0,0.0,0.0,0.0,0.0,0.0,0.0,0.0,0.0,0.0,0.0,0.0,0.0,0.0,0.0,0.0,0.0,0.0,0.0,0.0,0.0,0.0,0.0,0.0,0.0,0.0,0.0,0.0,0.0,0.0,0.0,0.0,0.0,0.0,0.0,0.0,0.0,0.0,0.0,0.0,0.0,0.0,0.0,0.0,0.0,0.0,0.0,0.0,0.0,0.0,0.0,0.0,0.0,0.0,0.0,0.0,0.0,0.0,0.0,0.0,0.0,0.0,0.0,0.0,0.0,0.0,0.0,0.0,0.0,0.0,0.0,0.0,0.0,0.0,0.0,0.0,0.0,0.0,0.0,0.0,0.0,0.0,0.0,0.0,0.0,0.0,0.0,0.0,0.0,0.0,0.0,0.0,0.0,0.0,0.0,0.0,0.0,0.0,0.0,0.0,0.0,0.0,0.0,0.0,0.0,0.0,0.0,0.0,0.0,0.0,0.0,0.0,0.0,0.0,0.0,0.0,0.0,0.0,0.0,0.0,0.0,0.0,0.0,0.0,0.0,0.0,0.0,0.0,0.0,0.0,0.0,0.0,0.0,0.0,0.0,0.0,0.0,0.0,0.0,0.0,0.0,0.0,0.0,0.0,0.0,0.0,0.0,0.0,0.0,0.0,0.0,0.0,0.0,0.0,0.0,0.0,0.0,0.0,0.0,0.0,0.0,0.0,0.0,0.0,0.0,0.0,0.0,0.0,0.0,0.0,0.0,0.0,0.0,0.0,0.0,0.0,0.0,0.0,0.0,0.0,0.0,0.0,0.0,0.0,0.0,0.0,0.0,0.0,0.0,0.0,0.0,0.0,0.0,0.0,0.0,0.0,0.0,0.0,0.0,0.0,0.0,0.0,0.0,0.0,0.0,0.0,0.0,0.0,0.0,0.0,0.0,0.0,0.0,0.0,0.0,0.0,0.0,0.0,0.0,0.0,0.0,0.0,0.0,0.0,0.0,0.0,0.0,0.0,0.0,0.0,0.0,0.0,0.0,0.0,0.0,0.0,0.0,0.0,0.0,0.0,0.0,0.0,0.0,0.0,0.0,0.0,0.0,0.0,0.0,0.0,0.0,0.0,0.0,0.0,0.0,0.0,0.0,0.0,0.0,0.0,0.0,0.0,0.0,0.0,0.0,0.0,0.0,0.0,0.0,0.0,0.0,0.0,0.0,0.0,0.0,0.0,0.0,0.0,0.0,0.0,0.0,0.0,0.0,0.0,0.0,0.0,0.0,0.0,0.0,0.0,0.0,0.0,0.0,0.0,0.0,0.0,0.0,0.0,0.0,0.0,0.0,0.0,0.0,0.0,0.0,0.0,0.0,0.0,0.0,0.0,0.0,0.0,0.0,0.0,0.0,0.0,0.0,0.0,0.0,0.0,0.0,0.0,0.0,0.0,0.0,0.0,0.0,0.0,0.0,0.0,0.0,0.0,0.0,0.0,0.0,0.0,0.0,0.0,0.0,0.0,0.0,0.0,0.0,0.0,0.0,0.0,0.0,0.0,0.0,0.0,0.0,0.0,0.0,0.0,0.0,0.0,0.0,0.0,0.0,0.0,0.0,0.0,0.0,0.0,0.0,0.0,0.0,0.0,0.0,0.0,0.0,0.0,0.0,0.0,0.0,0.0,0.0,0.0,0.0,0.0,0.0,0.0,0.0,0.0,0.0,0.0,0.0,0.0,0.0,0.0,0.0,0.0,0.0,0.0,0.0,0.0,0.0,0.0,0.0,0.0,0.0,0.0,0.0,0.0,0.0,0.0,0.0,0.0,0.0,0.0,0.0,0.0,0.0,0.0,0.0,0.0,0.0,0.0,0.0,0.0,0.0,0.0,0.0,0.0,0.0,0.0,0.0,0.0,0.0,0.0,0.0,0.0,0.0,0.0,0.0,0.0,0.0,0.0,0.0,0.0,0.0,0.0,0.0,0.0,0.0,0.0,0.0,0.0,0.0,0.0,0.0,0.0,0.0,0.0,0.0,0.0,0.0,0.0,0.0,0.0,0.0,0.0,0.0,0.0,0.0,0.0,0.0,0.0,0.0,0.0,0.0,0.0,0.0,0.0,0.0,0.0,0.0,0.0,0.0,0.0,0.0,0.0,0.0,0.0,0.0,0.0,0.0,0.0,0.0,0.0,0.0,0.0,0.0,0.0,0.0,0.0,0.0,0.0,0.0,0.0,0.0,0.0,0.0,0.0,0.0,0.0,0.0,0.0,0.0,0.0,0.0,0.0,0.0,0.0,0.0,0.0,0.0,0.0,0.0,0.0,0.0,0.0,0.0,0.0,0.0,0.0,0.0,0.0,0.0,0.0,0.0,0.0,0.0,0.0,0.0,0.0,0.0,0.0,0.0,0.0,0.0,0.0,0.0,0.0,0.0,0.0,0.0,0.0,0.0,0.0,0.0,0.0,0.0,0.0,0.0,0.0,0.0,0.0,0.0,0.0,0.0,0.0,0.0,0.0,0.0,0.0,0.0,0.0,0.0,0.0,0.0,0.0,0.0,0.0,0.0,0.0,0.0,0.0,0.0,0.0,0.0,0.0,0.0,0.0,0.0,0.0,0.0,0.0,0.0,0.0,0.0,0.0,0.0,0.0,0.0,0.0,0.0,0.0,0.0,0.0,0.0,0.0,0.0,0.0,0.0,0.0,0.0,0.0,0.0,0.0,0.0,0.0,0.0,0.0,0.0,0.0,0.0,0.0,0.0,0.0,0.0,0.0,0.0,0.0,0.0,0.0,0.0,0.0,0.0,0.0,0.0,0.0,0.0,0.0,0.0,0.0,0.0,0.0,0.0,0.0,0.0,0.0,0.0,0.0,0.0,0.0,0.0,0.0,0.0,0.0,0.0,0.0,0.0,0.0,0.0,0.0,0.0,0.0,0.0,0.0,0.0,0.0,0.0,0.0,0.0,0.0,0.0,0.0,0.0,0.0,0.0,0.0,0.0,0.0,0.0,0.0,0.0,0.0,0.0,0.0,0.0,0.0,0.0,0.0,0.0,0.0,0.0,0.0,0.0,0.0,0.0,0.0,0.0,0.0,0.0,0.0,0.0,0.0,0.0,0.0,0.0,0.0,0.0,0.0,0.0,0.0,0.0,0.0,0.0,0.0,0.0,0.0,0.0,0.0,0.0,0.0,0.0,0.0,0.0,0.0,0.0,0.0,0.0,0.0,0.0,0.0,0.0,0.0,0.0,0.0,0.0,0.0,0.0,0.0,0.0,0.0,0.0,0.0,0.0,0.0,0.0,0.0,0.0,0.0,0.0,0.0,0.0,0.0,0.0,0.0,0.0,0.0,0.0,0.0,0.0,0.0,0.0,0.0,0.0,0.0,0.0,0.0,0.0,0.0,0.0,0.0,0.0,0.0,0.0,0.0,0.0,0.0,0.0,0.0,0.0,0.0,0.0,0.0,0.0,0.0,0.0,0.0,0.0,0.0,0.0,0.0,0.0,0.0,0.0,0.0,0.0,0.0,0.0,0.0,0.0,0.0,0.0,0.0,0.0,0.0,0.0,0.0,0.0,0.0,0.0,0.0,0.0,0.0,0.0,0.0,0.0,0.0,0.0,0.0,0.0,0.0,0.0,0.0,0.0,0.0,0.0,0.0,0.0,0.0,0.0,0.0,0.0,0.0,0.0,0.0,0.0,0.0,0.0,0.0,0.0,0.0,0.0,0.0,0.0,0.0,0.0,0.0,0.0,0.0,0.0,0.0,0.0,0.0,0.0,0.0,0.0,0.0,0.0,0.0,0.0,0.0,0.0,0.0,0.0,0.0,0.0,0.0,0.0,0.0,0.0,0.0,0.0,0.0,0.0,0.0,0.0,0.0,0.0,0.0,0.0,0.0,0.0,0.0,0.0,0.0,0.0,0.0,0.0,0.0,0.0,0.0,0.0,0.0,0.0,0.0,0.0,0.0,0.0,0.0,0.0,0.0,0.0,0.0,0.0,0.0,0.0,0.0,0.0,0.0,0.0,0.0,0.0,0.0,0.0,0.0,0.0,0.0,0.0,0.0,0.0,0.0,0.0,0.0,0.0,0.0,0.0,0.0,0.0,0.0,0.0,0.0,0.0,0.0,0.0,0.0,0.0,0.0,0.0,0.0,0.0,0.0,0.0,0.0,0.0,0.0,0.0,0.0,0.0,0.0,0.0,0.0,0.0,0.0,0.0,0.0,0.0,0.0,0.0,0.0,0.0,0.0,0.0,0.0,0.0,0.0,0.0,0.0,0.0,0.0,0.0,0.0,0.0,0.0,0.0,0.0,0.0,0.0,0.0,0.0,0.0,0.0,0.0,0.0,0.0,0.0,0.0,0.0,0.0,0.0,0.0,0.0,0.0,0.0,0.0,0.0,0.0,0.0,0.0,0.0,0.0,0.0,0.0,0.0,0.0,0.0,0.0,0.0,0.0,0.0,0.0,0.0,0.0,0.0,0.0,0.0,0.0,0.0,0.0,0.0,0.0,0.0,0.0,0.0,0.0,0.0,0.0,0.0,0.0,0.0,0.0,0.0,0.0,0.0,0.0,0.0,0.0,0.0,0.0,0.0,0.0,0.0,0.0,0.0,0.0,0.0,0.0,0.0,0.0,0.0,0.0,0.0,0.0,0.0,0.0,0.0,0.0,0.0,0.0,0.0,0.0,0.0,0.0,0.0,0.0,0.0,0.0,0.0,0.0,0.0,0.0,0.0,0.0,0.0,0.0,0.0,0.0,0.0,0.0,0.0,0.0,0.0,0.0,0.0,0.0,0.0,0.0,0.0,0.0,0.0,0.0,0.0,0.0,0.0,0.0,0.0,0.0,0.0,0.0,0.0,0.0,0.0,0.0,0.0,0.0,0.0,0.0,0.0,0.0,0.0,0.0,0.0,0.0,0.0,0.0,0.0,0.0,0.0,0.0,0.0,0.0,0.0,0.0,0.0,0.0,0.0,0.0,0.0,0.0,0.0,0.0,0.0,0.0,0.0,0.0,0.0,0.0,0.0,0.0,0.0,0.0,0.0,0.0,0.0,0.0,0.0,0.0,0.0,0.0,0.0,0.0,0.0,0.0,0.0,0.0,0.0,0.0,0.0,0.0,0.0,0.0,0.0,0.0,0.0,0.0,0.0,0.0,0.0,0.0,0.0,0.0,0.0,0.0,0.0,0.0,0.0,0.0,0.0,0.0,0.0,0.0,0.0,0.0,0.0,0.0,0.0,0.0,0.0,0.0,0.0,0.0,0.0,0.0,0.0,0.0,0.0,0.0,0.0,0.0,0.0,0.0,0.0,0.0,0.0,0.0,0.0,0.0,0.0,0.0,0.0,0.0,0.0,0.0,0.0,0.0,0.0,0.0,0.0,0.0,0.0,0.0,0.0,0.0,0.0,0.0,0.0,0.0,0.0,0.0,0.0,0.0,0.0,0.0,0.0,0.0,0.0,0.0,0.0,0.0,0.0,0.0,0.0,0.0,0.0,0.0,0.0,0.0,0.0,0.0,0.0,0.0,0.0,0.0,0.0,0.0,0.0,0.0,0.0,0.0,0.0,0.0,0.0,0.0,0.0,0.0,0.0,0.0,0.0,0.0,0.0,0.0,0.0,0.0,0.0,0.0,0.0,0.0,0.0,0.0,0.0,0.0,0.0,0.0,0.0,0.0,0.0,0.0,0.0,0.0,0.0,0.0,0.0,0.0,0.0,0.0,0.0,0.0,0.0,0.0,0.0,0.0,0.0,0.0,0.0,0.0,0.0,0.0,0.0,0.0,0.0,0.0,0.0,0.0,0.0,0.0,0.0,0.0,0.0,0.0,0.0,0.0,0.0,0.0,0.0,0.0,0.0,0.0,0.0,0.0,0.0,0.0,0.0,0.0,0.0,0.0,0.0,0.0,0.0,0.0,0.0,0.0,0.0,0.0,0.0,0.0,0.0,0.0,0.0,0.0,0.0,0.0,0.0,0.0,0.0,-2.4059,0.0,0.0,0.0,0.0,0.0,0.0,0.0,0.0,0.0,0.0,0.0,0.0,0.0,0.0,0.0,0.0,0.0,0.0,0.0,0.0,0.0,0.0,0.0,0.0,0.0,0.0,0.0,0.0,0.0,0.0,0.0,0.0,0.0,0.0,0.0,0.0,0.0,0.0,0.0,-1.9405,-1.927,-1.8936,-1.9177,-1.9552,-2.003,0.0,0.0,0.0,0.0,0.0,0.0,0.0,0.0,0.0,0.0,0.0,0.0,0.0,0.0,0.0,0.0,0.0,0.0,0.0,0.0,0.0,0.0,0.0,0.0,0.0,0.0,0.0,0.0,0.0,0.0,0.0,0.0,0.0,0.0,0.0,0.0,0.0,0.0,0.0,0.0,0.0,0.0,0.0,0.0,0.0,0.0,0.0,0.0,0.0,0.0,0.0,0.0,0.0,0.0,0.0,0.0,0.0,0.0,0.0,0.0,0.0,0.0,0.0,0.0,0.0,0.0,0.0,0.0,0.0,0.0,0.0,-2.5249,0.0,0.0,0.0,0.0,0.0,0.0,0.0,0.0,0.0,0.0,0.0,0.0,0.0,0.0,0.0,0.0,0.0,0.0,0.0,0.0,0.0,0.0,0.0,-1.9599,-1.9463,-1.8672,-1.8333,-1.799,0.0,0.0,0.0,0.0,0.0,0.0,0.0,-1.9206,-1.9312,-1.935,-1.9408,-1.9607,-1.9894,-1.9613,-2.012,-2.1253,-2.0759,0.0,0.0,0.0,0.0,0.0,0.0,0.0,0.0,0.0,0.0,0.0,0.0,0.0,0.0,0.0,0.0,0.0,0.0,0.0,0.0,0.0,0.0,0.0,0.0,0.0,0.0,0.0,0.0,0.0,0.0,0.0,0.0,0.0,0.0,0.0,0.0,0.0,0.0,0.0,0.0,0.0,0.0,0.0,0.0,0.0,0.0,0.0,0.0,0.0,0.0,0.0,0.0,0.0,0.0,0.0,0.0,0.0,0.0,0.0,0.0,0.0,0.0,0.0,-2.9594,-3.0366,-3.0889,-3.095,-3.1084,-3.1131,-2.9017,-2.7445,-2.6384,-2.6919,0.0,0.0,0.0,0.0,0.0,0.0,0.0,0.0,0.0,0.0,0.0,0.0,0.0,0.0,0.0,0.0,0.0,0.0,0.0,0.0,0.0,-1.9475,-1.8869,-1.8615,-1.7785,-1.7472,-1.7976,0.0,0.0,0.0,0.0,0.0,-1.8984,-1.9206,-1.9398,-1.9555,-1.9122,-1.9644,-2.1062,-2.0446,-2.1238,-2.3042,-2.0589,-2.0349,-2.1756,0.0,0.0,0.0,0.0,0.0,0.0,0.0,0.0,0.0,0.0,0.0,0.0,0.0,0.0,0.0,0.0,0.0,0.0,0.0,0.0,0.0,0.0,0.0,0.0,0.0,0.0,0.0,0.0,0.0,0.0,0.0,0.0,0.0,0.0,0.0,0.0,0.0,0.0,0.0,0.0,0.0,-2.4232,-2.4363,0.0,0.0,0.0,0.0,0.0,0.0,0.0,0.0,0.0,0.0,0.0,0.0,0.0,-2.9288,-2.9908,-3.1588,-3.1697,-3.0294,-3.2553,-3.2898,-3.1587,-3.2278,-3.3043,-3.3781,-3.3461,0.0,-2.8865,-2.8274,0.0,0.0,0.0,0.0,0.0,0.0,0.0,0.0,0.0,0.0,0.0,0.0,0.0,0.0,0.0,0.0,0.0,0.0,0.0,0.0,0.0,-1.9913,-1.9535,-1.929,-1.9293,-1.911,-1.864,-1.884,0.0,0.0,0.0,-1.8931,-1.9166,-1.9376,-1.9597,-1.9819,-2.0007,-2.0508,-2.1304,-2.1384,-2.1864,-2.2599,-2.1362,-2.1422,-2.2409,-2.1283,0.0,0.0,0.0,0.0,0.0,0.0,0.0,0.0,0.0,0.0,0.0,0.0,0.0,0.0,0.0,0.0,0.0,0.0,0.0,0.0,0.0,0.0,0.0,0.0,0.0,0.0,0.0,0.0,0.0,0.0,0.0,0.0,0.0,0.0,0.0,0.0,0.0,0.0,0.0,-2.5418,-2.622,-2.5779,-2.7639,-2.862,0.0,0.0,0.0,0.0,0.0,0.0,0.0,0.0,0.0,-2.9606,-3.0964,-3.1633,-3.1524,-3.3158,-3.3824,-3.3534,-3.4965,-3.552,-3.5299,-3.5611,-3.6253,-3.7109,-3.7154,-3.6067,-3.4116,-3.196,-3.0285,-2.8985,0.0,0.0,0.0,0.0,-2.806,-2.8611,0.0,0.0,0.0,0.0,0.0,0.0,0.0,0.0,0.0,0.0,0.0,0.0,-2.0319,-2.0249,-2.0112,-1.9813,-2.0308,-2.0199,-1.9155,-1.9586,-1.965,0.0,-1.9026,-1.9084,-1.9289,-1.953,-1.9862,-2.0332,-2.0923,-2.1456,-2.1948,-2.2442,-2.2782,-2.2935,-2.2514,-2.2696,-2.3208,-2.1739,-2.1578,-2.2245,0.0,0.0,0.0,0.0,0.0,0.0,0.0,0.0,0.0,0.0,0.0,0.0,0.0,0.0,0.0,0.0,0.0,0.0,0.0,0.0,0.0,0.0,0.0,0.0,0.0,0.0,0.0,0.0,0.0,0.0,0.0,0.0,0.0,0.0,0.0,0.0,0.0,-2.6379,-2.7381,-2.6371,-2.8709,-2.9896,0.0,0.0,0.0,0.0,0.0,0.0,-2.9113,-3.0839,-3.1903,-3.2119,-3.3612,-3.4198,-3.3779,-3.5112,-3.6131,-3.6784,-3.739,-3.804,-3.871,-3.8669,-3.8988,-3.9619,-3.9663,-3.9315,-3.8472,-3.5475,-3.3236,-3.1611,-3.0788,-3.0098,-2.9618,-3.0262,-3.0907,-3.1652,0.0,0.0,0.0,0.0,0.0,0.0,0.0,0.0,0.0,0.0,0.0,-2.0368,-2.0319,-2.0134,-1.9963,-1.9807,-1.9719,-1.9557,-1.9297,-1.9137,-1.913,-1.9274,-1.9092,-1.9084,-1.9289,-1.9619,-2.0261,-2.1228,-2.1396,-2.223,-2.3677,-2.3709,-2.4367,-2.5456,-2.3917,-2.3577,-2.4044,-2.2561,-2.239,-2.3092,-2.2477,0.0,0.0,0.0,0.0,0.0,0.0,0.0,0.0,0.0,0.0,0.0,0.0,0.0,0.0,0.0,0.0,0.0,0.0,0.0,0.0,0.0,0.0,0.0,0.0,0.0,0.0,0.0,0.0,0.0,0.0,0.0,0.0,0.0,0.0,0.0,0.0,0.0,0.0,-2.4706,-2.7508,0.0,0.0,0.0,0.0,-2.8196,-3.0427,-3.1884,-3.1992,-3.3594,-3.4883,-3.5703,-3.6621,-3.748,-3.8262,-3.899,-3.9369,-3.9428,-4.0031,-4.0323,-4.0377,-4.0381,-4.04,-4.0439,-4.0446,-4.0416,-4.0188,-3.7802,-3.5866,-3.4328,-3.3448,-3.3128,-3.3144,-3.3183,-3.3223,-3.3281,0.0,0.0,0.0,0.0,0.0,0.0,0.0,0.0,-1.9645,-1.9568,-2.0002,-2.0515,-2.1027,-2.1011,-2.0872,-2.0668,-2.1067,-2.0818,-1.9562,-1.9785,-1.9816,-1.9504,-1.9308,-1.9324,-1.9612,-1.9817,-2.0174,-2.0653,-2.1776,-2.2551,-2.2999,-2.4064,-2.5042,-2.5869,-2.5283,-2.515,-2.5201,-2.2954,-2.2238,-2.2598,-2.234,-2.2581,0.0,0.0,0.0,0.0,0.0,0.0,0.0,0.0,0.0,0.0,0.0,0.0,0.0,0.0,0.0,0.0,0.0,0.0,0.0,0.0,0.0,0.0,0.0,0.0,0.0,0.0,0.0,0.0,0.0,0.0,0.0,0.0,0.0,0.0,0.0,0.0,0.0,-2.9228,-3.0932,0.0,-3.1482,-3.177,-3.1866,-3.1579,-3.2927,-3.4022,-3.4609,-3.6289,-3.7617,-3.8476,-3.927,-3.9826,-4.014,-4.0252,-4.0305,-4.0305,-4.044,-4.0496,-4.0496,-4.0496,-4.0496,-4.0496,-4.0496,-4.0496,-4.0446,-3.9598,-3.8305,-3.6781,-3.6033,-3.5435,-3.5081,-3.5682,-3.5918,-3.6054,0.0,0.0,0.0,0.0,0.0,0.0,0.0,0.0,-1.9171,-1.9104,-2.0058,-2.0933,-2.1435,-2.1754,-2.1741,-2.1221,-2.1655,-2.1312,-1.9769,-2.0045,-2.0087,-1.9675,-1.9538,-1.973,-2.0285,-2.0115,-2.0513,-2.1581,-2.2393,-2.2954,-2.3303,-2.446,-2.5473,-2.6288,-2.6095,-2.6314,-2.6711,-2.4662,-2.3411,-2.2798,-2.2767,-2.3291,-2.3993,0.0,0.0,0.0,0.0,0.0,0.0,0.0,0.0,0.0,0.0,0.0,0.0,0.0,0.0,0.0,0.0,0.0,0.0,0.0,0.0,0.0,0.0,0.0,0.0,0.0,0.0,0.0,0.0,0.0,0.0,0.0,0.0,0.0,0.0,0.0,-3.0569,-3.2334,-3.3573,-3.4394,-3.4668,-3.4434,-3.4277,-3.4277,-3.5625,-3.6719,-3.7285,-3.8691,-3.9726,-4.0249,-4.0758,-4.0986,-4.0925,-4.0781,-4.0697,-4.0697,-4.0566,-4.0496,-4.0496,-4.0496,-4.0496,-4.0496,-4.0496,-4.0496,-4.0496,-4.0496,-3.9875,-3.8871,-3.8466,-3.8004,-3.7625,-3.8252,-3.8477,-3.8627,0.0,0.0,0.0,0.0,0.0,0.0,0.0,-1.8014,-1.9148,-1.9101,-2.0539,-2.1549,-2.1532,-2.2274,-2.2383,-2.141,-2.1285,-2.0847,-1.9864,-1.9777,-1.9771,-1.979,-1.9834,-2.0304,-2.128,-2.0508,-2.1383,-2.4052,-2.324,-2.3501,-2.4773,-2.4949,-2.5707,-2.6897,-2.6349,-2.6998,-2.8469,-2.7721,-2.6048,-2.3917,-2.3864,-2.4399,-2.5134,0.0,0.0,0.0,0.0,0.0,0.0,0.0,0.0,0.0,0.0,0.0,0.0,0.0,0.0,0.0,0.0,0.0,0.0,0.0,0.0,0.0,0.0,0.0,0.0,0.0,0.0,0.0,0.0,0.0,0.0,0.0,0.0,0.0,-2.831,-3.1209,-3.3369,-3.3535,-3.5059,-3.5762,-3.4941,-3.5625,-3.6113,-3.6113,-3.8496,-3.9941,-3.9922,-4.0723,-4.1128,-4.0994,-4.0992,-4.0922,-4.0793,-4.0726,-4.0692,-4.0692,-4.0586,-4.0535,-4.0496,-4.0535,-4.0535,-4.0496,-4.0496,-4.0496,-4.0496,-4.0496,-4.0496,-4.0512,-4.0655,-4.0747,-4.0793,-4.0797,-4.0797,-4.0796,0.0,0.0,0.0,0.0,0.0,0.0,0.0,-1.7412,-1.8325,-1.8956,-1.9987,-2.1109,-2.2316,-2.2081,-2.1961,-2.2222,-2.1081,-2.0241,-1.9958,-1.9255,-1.9132,-1.9771,-2.0508,-2.102,-2.1285,-2.1785,-2.2401,-2.3163,-2.3548,-2.3865,-2.4093,-2.5361,-2.6466,-2.7428,-2.7835,-2.8363,-2.8964,-2.9366,-2.8471,-2.6658,-2.5235,-2.45,-2.4115,0.0,0.0,0.0,0.0,0.0,0.0,0.0,0.0,0.0,0.0,0.0,0.0,0.0,0.0,0.0,0.0,0.0,0.0,0.0,0.0,0.0,0.0,0.0,0.0,0.0,0.0,0.0,0.0,0.0,0.0,0.0,0.0,-3.1033,-3.1033,-3.2376,-3.4316,-3.6875,-3.7598,-3.8047,-3.8437,-3.8691,-3.8828,-3.8828,-4.0078,-4.0799,-4.0704,-4.0917,-4.0992,-4.086,-4.0803,-4.0762,-4.0721,-4.0604,-4.0552,-4.0552,-4.1147,-4.1104,-4.0516,-4.1143,-4.1104,-4.0496,-4.0496,-4.0496,-4.0496,-4.0496,-4.0496,-4.0512,-4.0655,-4.0707,-4.0731,-4.0788,-4.0766,-4.0715,0.0,0.0,0.0,0.0,0.0,0.0,0.0,-1.6949,-1.7757,-1.7933,-1.9619,-2.1043,-2.1677,-2.16,-2.1537,-2.1622,-2.0718,-1.9967,-1.9607,-1.9378,-1.9316,-1.9454,-2.0695,-2.1555,-2.1924,-2.2493,-2.3139,-2.3851,-2.4028,-2.4172,-2.4331,-2.5757,-2.6847,-2.7637,-2.8536,-2.9186,-2.9673,-3.0062,-2.9666,-2.8644,-2.7179,-2.6364,-2.5888,-2.4676,-2.4651,-2.5162,-2.4338,-2.473,-2.5468,-2.4186,0.0,0.0,0.0,0.0,0.0,0.0,0.0,0.0,0.0,0.0,0.0,0.0,0.0,0.0,0.0,0.0,0.0,0.0,0.0,0.0,0.0,0.0,0.0,0.0,-3.1727,-3.3568,-3.4662,-3.5253,-3.6465,-3.8867,-3.9473,-3.9883,-4.0391,-4.0449,-4.0449,-4.0449,-4.0856,-4.108,-4.0998,-4.0952,-4.0877,-4.0767,-4.0724,-4.0667,-4.0616,-4.053,-4.0496,-4.0516,-4.1008,-4.0989,-4.0516,-4.1027,-4.0969,-4.0496,-4.0496,-4.0496,-4.0496,-4.0496,-4.0496,-4.0504,0.0,0.0,0.0,0.0,-4.0641,-4.0616,0.0,0.0,0.0,0.0,0.0,0.0,0.0,-1.6696,-1.7449,-1.6737,-1.9311,-2.0946,-2.0231,-2.0692,-2.0812,-2.0212,-2.0058,-1.9715,-1.903,-1.9715,-1.9888,-1.9319,-2.0792,-2.2034,-2.289,-2.3019,-2.3803,-2.5264,-2.4577,-2.4509,-2.5053,-2.6203,-2.7056,-2.7689,-2.8762,-2.9679,-3.0373,-3.0103,-3.0071,-3.0111,-2.9277,-2.8925,-2.8752,-2.7192,-2.7467,-2.8472,-2.6986,-2.6582,-2.6505,-2.4913,0.0,0.0,0.0,0.0,0.0,0.0,0.0,0.0,0.0,0.0,0.0,0.0,0.0,0.0,0.0,0.0,0.0,0.0,0.0,0.0,0.0,0.0,0.0,0.0,-3.4001,-3.6016,-3.8535,-3.8887,-3.918,-3.9941,-4.0723,-4.1191,-4.1191,-4.1191,-4.123,-4.1328,-4.1137,-4.1033,-4.1124,0.0,0.0,0.0,0.0,-4.0623,-4.0496,-4.0593,-4.065,-4.065,-4.0843,-4.0881,-4.0785,-4.0785,-4.0746,-4.065,-4.0535,-4.0496,-4.0496,-4.0496,-4.0496,-4.0496,-4.0496,-4.0496,-4.0496,-4.0496,-4.0496,-4.0496,0.0,0.0,0.0,0.0,0.0,0.0,0.0,-1.7064,-1.7641,-1.7487,-1.8642,-1.9411,-1.9265,-1.8754,-1.8661,-1.9203,-1.8603,-1.843,-1.8972,-1.9165,-1.9777,-2.0966,-2.2004,-2.2882,-2.3588,-2.4408,-2.4893,-2.5071,-2.5065,-2.5125,-2.5273,-2.6899,-2.7725,-2.7915,-2.9456,-3.0231,-3.0373,-3.0103,-3.0538,-3.1271,-3.0204,-2.8972,-2.772,-2.6919,-2.6365,-2.5981,-2.5673,-2.6467,-2.7486,-2.6467,-2.6989,-2.7824,-2.6327,-2.5466,0.0,0.0,0.0,0.0,0.0,0.0,0.0,0.0,0.0,0.0,0.0,0.0,0.0,0.0,0.0,0.0,0.0,0.0,0.0,-3.4862,-3.6719,-3.8516,-4.043,-4.0703,-4.0762,-4.0937,-4.1094,-4.1191,-4.1191,-4.1191,-4.1465,-4.2129,-4.1449,-4.1269,-4.185,-4.1131,-4.0654,-4.0537,-4.053,-4.0534,-4.0496,-4.12,-4.1546,-4.1566,-4.2912,0.0,-4.2604,-4.2604,-4.222,-4.1508,-4.0804,-4.0496,-4.0496,-4.0496,-4.0496,-4.0496,-4.0496,-4.0496,-4.0496,-4.0496,-4.0496,-4.0496,0.0,0.0,0.0,0.0,0.0,0.0,0.0,-1.6561,-1.6949,-1.6503,-1.7933,-1.8838,-1.8407,-1.8353,-1.853,-1.8953,-1.8203,-1.8065,-1.8946,-1.9408,-2.0023,-2.0865,-2.2547,-2.3563,-2.3797,-2.48,-2.5203,-2.5004,-2.5203,-2.5308,-2.5327,-2.664,-2.7486,-2.7953,-2.9198,-2.9981,-3.0411,-3.0588,-3.0987,-3.1447,-3.087,-3.0147,-2.9341,-2.8731,-2.8231,-2.7808,-2.7371,-2.7755,-2.8319,-2.7024,-2.7159,-2.7621,-2.6346,-2.5654,-2.5308,0.0,0.0,0.0,0.0,0.0,0.0,0.0,0.0,0.0,0.0,0.0,0.0,0.0,0.0,-3.1683,0.0,0.0,-3.5312,-3.7012,-3.8398,-3.9707,-4.1016,-4.1191,-4.1191,-4.1191,-4.1191,-4.1191,-4.1191,-4.1562,-4.1952,-4.2313,-4.2251,-4.2155,-4.2063,-4.1538,-4.101,-4.0516,-4.0496,-4.0496,-4.0496,-4.1354,-4.1788,-4.1808,-4.3085,-4.3489,-4.3085,-4.2643,-4.222,-4.175,-4.0873,-4.0496,-4.0496,-4.0496,-4.0496,-4.0496,-4.0496,-4.0496,-4.0496,-4.0496,-4.0496,-4.0496,0.0,0.0,0.0,0.0,0.0,0.0,0.0,-1.5945,-1.6195,-1.5308,-1.7276,-1.8414,-1.7564,-1.8087,-1.8588,-1.8722,-1.7949,-1.7984,-1.9169,-1.9596,-2.0096,-2.075,-2.2759,-2.3909,-2.4026,-2.4877,-2.5203,-2.5004,-2.5203,-2.5308,-2.5327,-2.6192,-2.6951,-2.7621,-2.8601,-2.9427,-3.0125,-3.0729,-3.1131,-3.1369,-3.1314,-3.1321,-3.1315,-3.0836,-3.0558,-3.0288,-2.941,-2.8992,-2.8665,-2.7313,-2.6851,-2.6736,-2.6019,-2.5808,-2.5769,-2.5596,-2.5423,0.0,0.0,0.0,0.0,0.0,0.0,0.0,0.0,0.0,-3.2226,-3.3753,-3.4088,-3.4524,-3.5976,-3.6953,-3.7891,-3.8945,-3.9824,-4.0625,-4.1328,-4.1426,-4.1387,-4.1211,-4.1191,-4.1191,-4.1191,-4.1933,-4.2458,-4.255,-4.3082,-4.3077,-4.2305,-4.2138,-4.1585,-4.0535,-4.0823,-4.092,-4.0746,-4.1777,-4.2297,-4.2297,-4.3162,-4.3585,-4.3566,-4.2681,-4.22,-4.1989,-4.095,-4.0496,-4.0516,-4.0689,-4.0746,-4.0746,-4.0746,-4.0746,-4.0727,-4.0554,-4.0496,-4.0496,0.0,0.0,0.0,0.0,0.0,0.0,0.0,0.0,-1.6195,-1.5308,-1.6734,-1.7545,-1.6718,-1.6718,-1.7064,-1.7776,-1.7103,-1.7638,-2.0,-1.8792,-1.9354,-2.2393,-2.2797,-2.3544,-2.4839,-2.5146,-2.5203,-2.5004,-2.5203,-2.5308,-2.5327,-2.6192,-2.6557,-2.6562,-2.814,-2.8891,-2.9013,-2.962,-3.0563,-3.1636,-3.1403,-3.1439,-3.1655,-3.1577,-3.1077,-3.0288,-2.941,-2.8646,-2.8011,-2.7818,-2.7755,-2.7741,-2.764,-2.7601,-2.7467,-2.6678,0.0,-2.55,-2.6365,-2.7814,-2.9677,-3.2143,-3.2447,-3.2904,0.0,0.0,-3.5629,-3.6639,-3.6855,-3.6914,-3.7129,-3.7871,-3.8984,-4.0644,-4.1582,-4.2148,-4.2246,-4.2266,-4.1992,-4.1289,-4.1191,-4.1191,-4.1191,-4.1933,-4.2715,-4.3496,-4.3446,-4.335,-4.3248,-4.3053,-4.22,-4.0554,-4.1989,-4.2431,-4.1662,-4.3239,-4.4028,-4.4028,-4.4902,-4.5325,-4.5287,-4.4412,-4.3624,-4.2854,-4.1208,-4.0496,-4.0554,-4.1335,-4.1662,-4.1662,-4.1662,-4.1662,-4.1566,-4.0785,-4.0496,-4.0496,0.0,0.0,0.0,0.0,0.0,0.0,0.0,0.0,0.0,-1.513,-1.6208,-1.7044,-1.7129,-1.7626,-1.81,-1.8434,-1.7257,-1.758,-2.0135,-1.9135,-1.9754,-2.2663,-2.3297,-2.3969,-2.4865,-2.4576,-2.451,-2.4715,-2.451,-2.4623,-2.5019,-2.5459,-2.5824,-2.6186,-2.7354,-2.8146,-2.8711,-2.9944,-3.1044,-3.1987,-3.2035,-3.2088,-3.2084,-3.1271,-3.0115,-2.8967,-2.9069,-2.8518,0.0,-2.7267,-2.7399,-2.7654,-2.7272,-2.714,-2.7178,-2.7313,-2.6736,0.0,-2.7698,-3.0477,-3.3037,0.0,-3.4857,-3.648,-3.6523,-3.7011,-3.7575,-3.7988,-3.8457,-3.8945,-3.9365,-4.0192,-4.1034,0.0,-4.2575,-4.3164,-4.3164,-4.2715,-4.2285,-4.1933,-4.1421,-4.1106,-4.1191,-4.2358,-4.3248,-4.3618,-4.44,-4.4627,-4.4072,-4.3885,-4.3239,-4.2047,-4.272,-4.2931,-4.2566,-4.372,-4.4297,-4.4316,-4.519,-4.5594,-4.5575,-4.4701,-4.3585,-4.2277,-4.1035,-4.0785,-4.1277,-4.1662,-4.2104,-4.2566,-4.2566,-4.2258,-4.1692,-4.0823,-4.0496,-4.0496,0.0,0.0,0.0,0.0,0.0,0.0,0.0,0.0,0.0,0.0,-1.5817,-1.6613,-1.7182,-1.8267,-1.8855,-1.8661,-1.7526,-1.7715,-1.9808,-1.9346,-1.9923,-2.2023,-2.2932,-2.3633,-2.4181,-2.3724,-2.3607,-2.3883,-2.355,-2.3758,-2.4445,-2.4543,-2.494,-2.5626,-2.6438,-2.7255,-2.8146,-2.9586,-3.0583,-3.1221,-3.1697,-3.1585,-3.1039,-3.0074,-2.8659,-2.725,-2.7805,-2.7226,-2.6148,-2.5658,-2.597,-2.6517,-2.631,-2.6717,-2.7371,-2.778,-2.7601,-2.7651,-2.9384,0.0,0.0,-3.4767,-3.7223,-3.9419,-3.8066,-3.8574,-3.9375,-3.9609,-3.9961,-4.0409,-4.0908,-4.1593,-4.2205,-4.2586,-4.3235,-4.3691,-4.3691,-4.3164,-4.2578,-4.2068,-4.1376,-4.0994,-4.1128,-4.2422,-4.3345,-4.3608,-4.5033,-4.5512,-4.4597,-4.4855,-4.4432,-4.3143,-4.3547,-4.3662,-4.3431,-4.4239,-4.4662,-4.4662,-4.5306,-4.5594,-4.5575,-4.4701,-4.3643,-4.245,-4.1585,-4.1585,-4.2181,-4.2412,-4.2854,-4.3431,-4.3431,-4.2912,-4.2047,-4.1181,-4.0708,-4.0496,0.0,0.0,0.0,0.0,0.0,0.0,0.0,0.0,0.0,0.0,0.0,0.0,0.0,-1.781,-1.8521,-1.7804,-1.7699,-1.8061,-1.8977,-1.9007,-1.9411,-2.0346,-2.1158,-2.1913,-2.265,-2.2656,-2.2551,-2.2369,-2.2344,-2.2754,-2.3546,-2.3534,-2.3899,-2.4586,-2.538,-2.619,-2.7009,-2.7839,-2.8342,-2.8707,-2.9692,-2.9143,-2.7765,-2.7917,-2.689,-2.537,-2.525,-2.4167,-2.2751,-2.2737,-2.3258,-2.4083,-2.5042,-2.7044,0.0,-2.8126,-2.8434,-2.942,0.0,0.0,-3.5143,-3.7702,-3.9115,-4.0293,-4.1855,-4.1641,-4.1348,-4.2129,-4.1699,-4.1131,-4.1025,-4.1125,-4.1756,-4.331,-4.3645,-4.3691,-4.3691,-4.3672,-4.3006,-4.1257,-4.0899,-4.086,0.0,-4.1817,-4.2714,-4.3632,-4.5081,-4.5559,-4.4736,-4.6042,-4.5682,-4.3181,-4.469,-4.5133,-4.4259,-4.5133,-4.5556,-4.5556,-4.5594,-4.5594,-4.5575,-4.4701,-4.4278,-4.4182,-4.3374,-4.3047,-4.3124,-4.3893,-4.4239,-4.4259,-4.4259,-4.3778,-4.2951,-4.2085,-4.1239,-4.0496,0.0,0.0,0.0,0.0,0.0,0.0,0.0,0.0,0.0,0.0,0.0,0.0,0.0,0.0,0.0,0.0,-1.7091,-1.7654,-1.9727,-1.8773,-1.8776,-2.0231,-2.0433,-2.0828,-2.1517,-2.145,-2.1594,-2.1977,-2.1512,-2.1681,-2.2367,-2.2458,-2.2581,-2.2761,-2.4118,-2.4856,-2.5189,-2.6674,-2.7662,-2.824,-2.8305,-2.8022,-2.7419,-2.6419,-2.4993,-2.3405,0.0,-2.2375,-2.2457,-2.1915,-2.2664,-2.3869,-2.4356,-2.5851,-2.7601,-2.8453,-3.0142,-3.2014,-3.3197,0.0,-3.8362,-3.98,-4.1733,-4.3125,-4.2539,-4.2637,-4.2617,-4.1777,-4.0469,-3.9432,-3.9304,-3.9855,-4.0662,-4.1708,-4.3391,-4.4766,-4.5332,-4.4922,-4.4121,-4.2926,-4.2194,0.0,0.0,0.0,0.0,-4.3608,-4.4993,-4.5955,-4.6201,-4.6109,-4.6144,-4.6413,-4.6451,-4.6317,-4.6028,-4.6317,-4.6163,-4.5594,-4.5594,-4.5594,-4.5575,-4.4701,-4.4297,-4.4259,-4.3451,-4.3393,-4.3912,-4.4182,-4.4643,-4.5171,-4.5171,-4.4643,-4.3797,-4.297,-4.2104,-4.1277,0.0,0.0,0.0,0.0,0.0,0.0,0.0,0.0,0.0,0.0,0.0,0.0,0.0,0.0,0.0,0.0,0.0,-1.7424,-1.9219,-1.8567,-1.8582,-1.9713,-1.9644,-1.9855,-2.0489,-2.0416,-2.0548,-2.0913,-2.0185,-2.0196,-2.0903,-2.0703,-2.0714,-2.0968,-2.2281,-2.3052,-2.3437,-2.4894,-2.582,-2.6321,-2.6079,-2.5868,-2.5511,-2.4163,-2.3001,0.0,-2.0783,-2.086,-2.1498,-2.1306,-2.2182,-2.3507,-2.4274,-2.5909,-2.7899,-2.9869,-3.2169,-3.4447,-3.6242,-3.9091,-4.1766,-4.2606,-4.4328,-4.533,-4.3644,-4.3471,-4.3102,-4.1133,-3.9589,-3.8331,-3.7561,-3.7752,-3.8545,-4.022,-4.1746,-4.334,-4.5117,-4.4883,-4.4316,-4.3727,-4.3417,-4.304,0.0,0.0,0.0,-4.3636,-4.5235,-4.6441,-4.6964,-4.6976,-4.7317,-4.8086,-4.7605,-4.7192,-4.6904,-4.6904,-4.6471,-4.5594,-4.5594,-4.5594,-4.5575,-4.5017,-4.4759,-4.4739,-4.422,-4.4278,-4.4759,-4.4759,-4.5094,-4.5594,-4.5594,-4.5075,-4.4239,-4.372,-4.2989,-4.2104,0.0,0.0,0.0,0.0,0.0,0.0,0.0,0.0,0.0,0.0,0.0,0.0,0.0,0.0,0.0,0.0,0.0,0.0,-1.7708,-1.8344,-1.873,-1.874,-1.8726,-1.8958,-1.9465,-1.9545,-1.9492,-1.9297,-1.8529,-1.854,-1.9263,-1.8504,-1.8559,-1.9318,-2.0144,-2.096,-2.1794,-2.2602,-2.303,-2.3143,-2.3162,-2.2805,-2.2148,-2.1337,-2.1022,-2.0903,-1.9936,-1.9676,-1.9916,-2.0795,-2.1884,0.0,-2.4985,-2.7354,-2.9958,-3.2432,-3.4536,-3.6787,-4.0175,-4.2914,-4.5048,-4.5936,-4.6651,-4.6718,-4.5092,-4.4033,-4.2701,-4.031,-3.8976,-3.7675,-3.5901,-3.5032,-3.566,-3.8958,-3.9136,-4.0019,-4.3359,-4.3906,-4.3924,0.0,0.0,0.0,0.0,0.0,0.0,-4.3885,0.0,-4.7025,-4.7124,-4.8529,-4.899,-4.8259,-4.8202,-4.7778,-4.6962,-4.6885,-4.6432,-4.5671,-4.5614,-4.5594,-4.5594,-4.5594,-4.5594,-4.5594,-4.5594,-4.5594,-4.5594,-4.5594,-4.5594,-4.5594,-4.5594,-4.5094,-4.4355,-4.4316,-4.3816,-4.2912,0.0,0.0,0.0,0.0,0.0,0.0,0.0,0.0,0.0,0.0,0.0,0.0,0.0,0.0,0.0,0.0,0.0,0.0,-1.9297,-1.8327,-1.7743,-1.7895,-1.7663,-1.7606,-1.7727,-1.8821,-1.935,-1.9297,-1.8942,-1.8878,-1.9059,-1.8878,-1.8878,-1.9122,-2.0071,-2.0621,-2.0894,-2.1856,-2.2266,-2.2271,-2.1842,-2.1551,-2.1293,-2.0345,-1.9974,-1.9929,-1.9519,-1.9488,0.0,0.0,0.0,0.0,0.0,-3.0935,-3.3567,-3.6105,-3.8116,-4.0131,-4.2965,-4.5129,-4.661,-4.6863,-4.6578,-4.581,-4.4141,-4.2133,-4.0259,-3.897,-3.6489,-3.4405,-3.3932,-3.4216,-3.5254,-3.7455,-4.0345,0.0,-4.5312,-4.6758,0.0,-4.6658,0.0,-4.6658,-4.6013,-4.6485,0.0,0.0,-4.6673,-4.7474,-4.8726,-4.8556,-4.8913,-4.999,-4.9413,-4.8663,-4.7798,-4.6567,-4.6144,-4.6567,-4.5913,-4.5594,-4.5594,-4.5594,-4.5594,-4.5594,-4.5594,-4.5594,-4.5594,-4.5594,-4.5594,-4.5594,-4.5594,-4.546,-4.519,-4.4528,-4.4162,-4.3835,0.0,0.0,0.0,0.0,0.0,0.0,0.0,0.0,0.0,0.0,0.0,0.0,0.0,0.0,0.0,0.0,0.0,0.0,0.0,-1.7864,-1.7339,-1.7458,-1.6958,-1.677,-1.7009,-1.7826,-1.8427,-1.8775,-1.8187,-1.8074,-1.8425,-1.7974,-1.7771,-1.7824,-1.8824,-1.9275,-1.9346,-2.038,-2.0867,0.0,0.0,-2.0363,-2.0364,-1.9722,-1.9471,-1.9438,-1.9335,0.0,0.0,0.0,0.0,-2.9429,-3.1865,-3.4201,-3.6515,-3.9038,0.0,-4.3519,-4.5682,-4.752,-4.8643,-4.7864,-4.7002,-4.5608,-4.2849,-4.0815,-3.8859,-3.6531,-3.4218,0.0,-3.1598,-3.1897,-3.3087,0.0,0.0,0.0,-4.5312,-4.7226,-4.8437,0.0,-4.873,0.0,-4.8468,-4.8389,-4.8618,0.0,-4.8516,-4.8413,-4.9356,-4.9298,-4.9683,-5.0673,-5.0231,-4.9548,-4.8682,-4.7355,-4.6778,-4.6885,-4.6394,-4.597,-4.5594,-4.5594,-4.5594,-4.5594,-4.5594,-4.5594,-4.5594,-4.5594,-4.5594,-4.5594,-4.5594,-4.5594,-4.5498,-4.4624,-4.4297,-4.4182,0.0,0.0,0.0,0.0,0.0,0.0,0.0,0.0,0.0,0.0,0.0,0.0,0.0,0.0,0.0,0.0,0.0,0.0,0.0,0.0,-1.7146,-1.714,-1.6464,-1.6276,-1.6732,-1.6815,-1.724,-1.8053,-1.7052,-1.6998,-1.7741,-1.687,-1.6466,-1.6519,-1.7413,-1.7817,-1.7879,-1.8822,-1.9327,-1.9506,-1.932,-1.9372,-1.9541,0.0,-1.9297,0.0,0.0,0.0,0.0,0.0,-2.8599,-3.1481,-3.4788,-3.7186,-3.9277,-4.1766,-4.435,-4.6718,-4.8231,-4.9809,-5.06,-4.8742,-4.7491,-4.5667,-4.1596,-3.9713,-3.7735,-3.3915,0.0,-3.0935,-2.9437,-2.9369,-3.063,-3.3952,0.0,-4.0211,-4.453,-4.6659,-4.8437,-5.0312,-5.041,-5.0657,-5.146,-5.0669,-5.065,-5.2,-5.0629,-4.9721,-4.9721,-5.0337,-5.0712,-5.0712,-5.0596,-5.0231,-4.9586,-4.8586,-4.7759,-4.7058,-4.6942,-4.6432,-4.5594,-4.5594,-4.5594,-4.5594,-4.5594,-4.5594,-4.5614,-4.5559,-4.5522,-4.5522,-4.5475,-4.5495,-4.5426,-4.4561,-4.4252,-4.4182,0.0,0.0,0.0,0.0,0.0,0.0,0.0,0.0,0.0,0.0,-1.5532,-1.4619,0.0,0.0,0.0,0.0,0.0,0.0,0.0,0.0,0.0,-1.6305,-1.6078,-1.5921,-1.5919,-1.6401,-1.7022,-1.777,-1.7241,-1.7373,-1.8121,-1.7922,-1.785,-1.7877,-1.8273,-1.8438,-1.8465,-1.8636,-1.886,-1.9102,-1.9069,-1.9174,-1.9342,-1.9312,0.0,0.0,0.0,0.0,0.0,0.0,-3.1709,-3.4007,-3.6719,-3.9753,-4.2815,-4.5428,-4.7506,-4.9178,-5.0172,-5.1065,-5.1145,-4.8747,-4.6968,-4.491,-4.1343,-3.8097,0.0,0.0,0.0,-2.9225,-2.8925,-2.9611,0.0,-3.3962,0.0,0.0,0.0,0.0,-4.944,0.0,0.0,0.0,0.0,0.0,0.0,0.0,-5.171,-5.1462,-5.1462,-5.0971,-5.0712,-5.0712,-4.999,-4.9894,-5.0481,-4.8894,-4.8029,-4.7875,-4.7212,-4.6432,-4.5594,-4.5594,-4.5594,-4.5594,-4.5594,0.0,-4.5577,-4.5302,-4.5191,-4.5169,-4.4884,-4.4943,-4.5076,-4.4206,-4.4059,-4.4182,0.0,0.0,0.0,0.0,0.0,0.0,0.0,0.0,-1.7232,-1.7202,-1.6536,-1.582,-1.519,-1.475,0.0,0.0,0.0,0.0,0.0,0.0,0.0,0.0,0.0,0.0,0.0,-1.5807,0.0,0.0,0.0,-1.7281,-1.841,0.0,0.0,-1.8208,-1.8479,-1.8518,-1.84,-1.8537,-1.866,-1.8798,-1.894,-1.906,0.0,0.0,0.0,0.0,0.0,0.0,0.0,0.0,-3.0519,-3.4002,-3.8551,-4.1435,-4.3651,-4.6233,-4.8186,-4.977,-5.1061,-5.1654,-5.1404,-4.9298,-4.6836,-4.3912,-4.0065,0.0,0.0,0.0,-2.9358,-2.8025,-2.772,0.0,0.0,0.0,0.0,0.0,0.0,0.0,0.0,0.0,0.0,0.0,0.0,0.0,0.0,0.0,-5.2444,-5.1712,-5.1298,-5.0914,-5.0712,-5.0712,-5.0289,-5.0289,-5.0712,-4.9875,-4.9221,-4.8779,-4.8394,-4.7528,-4.6278,-4.6278,-4.6028,-4.5594,-4.5594,-4.5594,-4.5577,-4.5232,-4.5096,-4.5063,-4.472,-4.4714,-4.4766,-4.4059,-4.3605,-4.334,0.0,0.0,0.0,0.0,0.0,0.0,0.0,-1.7103,-1.7613,-1.774,-1.7643,-1.7168,-1.6079,-1.5252,-1.4934,0.0,0.0,0.0,0.0,0.0,0.0,0.0,0.0,0.0,0.0,0.0,0.0,0.0,0.0,0.0,0.0,0.0,0.0,0.0,0.0,0.0,-1.8125,-1.8341,-1.846,0.0,0.0,0.0,0.0,0.0,0.0,0.0,0.0,0.0,0.0,0.0,-2.8466,-3.2426,-3.8019,-4.1093,-4.3097,-4.5405,-4.7607,-4.9643,-5.1202,-5.1904,-5.1731,-4.9875,-4.6971,-4.3412,-3.9008,-3.5691,0.0,0.0,-2.8058,-2.7077,-2.6622,0.0,0.0,0.0,0.0,0.0,0.0,0.0,0.0,0.0,0.0,0.0,0.0,0.0,0.0,0.0,-5.2895,-5.1548,-5.075,-5.0712,-5.0712,-5.0712,-5.0712,-5.0712,-5.0712,-5.0712,-5.0269,-4.9394,-4.9394,-4.8529,-4.6904,-4.6904,-4.6413,-4.5594,-4.5594,-4.5559,-4.5476,-4.5129,-4.4943,-4.483,-4.4501,-4.4406,-4.4388,-4.3798,-4.3137,-4.2524,0.0,0.0,0.0,0.0,0.0,0.0,0.0,-1.8429,-1.8745,-1.9477,-1.8928,-1.8056,-1.6918,-1.6071,-1.5325,0.0,0.0,0.0,0.0,0.0,0.0,0.0,0.0,0.0,0.0,0.0,0.0,0.0,0.0,0.0,0.0,0.0,0.0,0.0,0.0,0.0,0.0,-1.785,0.0,0.0,0.0,0.0,0.0,0.0,0.0,0.0,0.0,0.0,0.0,0.0,0.0,-2.9204,-3.2293,-3.6919,-4.1491,-4.3001,0.0,0.0,-5.046,-5.1914,-5.2491,-5.001,-4.7413,-4.4171,-3.9142,0.0,0.0,-2.9348,-2.749,-2.632,-2.6339,-2.6611,-2.7622,0.0,0.0,-3.5308,0.0,0.0,0.0,0.0,0.0,0.0,0.0,0.0,0.0,0.0,-5.2895,-5.1548,-5.075,-5.0712,-5.0712,-5.0712,-5.0712,-5.0712,-5.0712,-5.0712,-5.0269,-4.9394,-4.9394,-4.8529,-4.6904,-4.6904,-4.6413,-4.5594,-4.5594,-4.5429,0.0,-4.4769,-4.4428,-4.4058,-4.3726,-4.3788,-4.3949,-4.3181,-4.2724,-4.2397,0.0,0.0,0.0,0.0,0.0,0.0,0.0,-1.857,-1.9326,-1.9645,-1.9401,-1.8789,-1.7732,-1.6897,-1.5906,0.0,0.0,0.0,0.0,0.0,0.0,0.0,0.0,0.0,0.0,0.0,0.0,-1.6504,0.0,0.0,0.0,0.0,0.0,0.0,0.0,0.0,0.0,0.0,0.0,0.0,0.0,0.0,0.0,0.0,0.0,0.0,0.0,0.0,0.0,0.0,0.0,0.0,-2.7976,-3.1199,0.0,0.0,-4.3159,-4.6661,-4.9836,-5.1548,-5.2068,-5.0548,-4.6721,-4.2374,-3.8815,0.0,0.0,-2.8638,-2.7166,-2.6098,-2.5767,-2.6189,-2.7127,-2.8695,0.0,0.0,0.0,0.0,0.0,0.0,0.0,0.0,0.0,0.0,0.0,0.0,-5.3068,-5.2106,-5.077,-5.0712,-5.0712,-5.0712,-5.0712,-5.0712,-5.0712,-5.0712,-5.0539,-5.0183,-5.0183,-4.9279,-4.7625,-4.7625,-4.6874,-4.5594,-4.5594,-4.541,0.0,-4.4751,-4.4359,-4.3971,-4.3629,-4.358,-4.3689,-4.3574,-4.2852,-4.1971,0.0,0.0,0.0,0.0,0.0,-1.6696,-1.7752,-1.8677,-1.9335,-1.957,-1.9391,-1.8952,-1.8191,-1.7385,-1.645,-1.5313,0.0,0.0,0.0,0.0,0.0,0.0,0.0,0.0,0.0,0.0,-1.7423,-1.7064,-1.7673,-1.8245,0.0,0.0,0.0,0.0,0.0,0.0,0.0,0.0,0.0,0.0,0.0,0.0,0.0,0.0,0.0,0.0,0.0,0.0,0.0,0.0,0.0,0.0,0.0,0.0,0.0,0.0,-3.9719,-4.3595,-4.7626,-4.9721,-5.0577,-4.9779,-4.5608,-4.0905,0.0,0.0,-2.9235,-2.78,-2.6663,-2.5801,-2.5384,-2.6,-2.6916,-2.7857,0.0,-3.1544,0.0,0.0,0.0,0.0,0.0,0.0,0.0,0.0,0.0,0.0,-5.3203,-5.2472,-5.0789,-5.0712,-5.0712,-5.0712,-5.0712,-5.0712,-5.0712,-5.0712,-5.0712,-5.0712,-5.0442,-4.9529,-4.8086,-4.7855,-4.6951,-4.5594,-4.5594,-4.5352,0.0,-4.4714,-4.4308,-4.3836,-4.3597,-4.3515,-4.3531,-4.3775,-4.289,-4.167,0.0,0.0,0.0,0.0,0.0,0.0,0.0,-1.8901,-1.8702,-1.9503,-1.8901,-1.8322,-1.8118,-1.7385,-1.689,-1.689,0.0,0.0,0.0,0.0,0.0,0.0,0.0,0.0,0.0,0.0,-1.8651,-1.8373,-1.8392,-1.8289,-1.8108,-1.8108,0.0,0.0,0.0,0.0,0.0,0.0,0.0,0.0,0.0,0.0,0.0,0.0,0.0,0.0,0.0,0.0,0.0,0.0,0.0,0.0,0.0,0.0,0.0,0.0,-3.5863,-4.0377,-4.327,-4.6062,-4.7952,-4.7135,-4.4153,-4.0375,0.0,0.0,-2.8402,-2.6916,-2.5923,-2.5303,-2.5308,-2.6,-2.6916,-2.7857,-3.006,0.0,0.0,0.0,0.0,0.0,0.0,0.0,0.0,0.0,0.0,-5.3337,-5.3203,0.0,-5.0789,-5.0712,-5.0712,-5.0712,-5.0712,-5.0712,-5.0712,-5.0712,-5.0712,-5.0693,-4.9817,-4.8952,-4.8067,-4.7278,-4.6432,-4.5594,-4.5594,-4.5232,0.0,-4.4593,-4.4169,-4.3496,-4.3496,-4.3515,-4.3515,-4.3496,-4.2696,-4.1603,0.0,0.0,0.0,0.0,0.0,0.0,0.0,-1.8841,-1.9118,-1.935,-1.8686,-1.8167,-1.8122,-1.7385,-1.6908,-1.6908,0.0,0.0,0.0,0.0,0.0,0.0,0.0,0.0,0.0,0.0,-1.8702,-1.8533,-1.8996,-1.9197,-1.911,-1.8838,-1.8536,-1.8222,0.0,0.0,0.0,0.0,0.0,0.0,0.0,0.0,0.0,0.0,0.0,0.0,0.0,0.0,0.0,0.0,0.0,0.0,0.0,0.0,0.0,-2.723,0.0,0.0,-3.953,-4.0948,-4.1675,-4.197,-3.8614,-3.4939,-3.3781,0.0,-2.6995,-2.6666,-2.5904,-2.5481,-2.6077,-2.5923,-2.6588,-2.9266,-3.0832,0.0,0.0,0.0,0.0,0.0,0.0,0.0,0.0,0.0,0.0,-5.328,-5.2654,-5.1837,-5.077,-5.0712,-5.0712,-5.0712,-5.0712,-5.0712,-5.0712,-5.0106,-4.9798,-4.9798,-4.8933,-4.8086,-4.7269,-4.7019,-4.6413,-4.5594,-4.5594,-4.5222,-4.4593,-4.4593,-4.4169,-4.3515,-4.3515,-4.3515,-4.3515,-4.3515,-4.2553,-4.128,0.0,0.0,0.0,0.0,0.0,0.0,0.0,-1.8537,-1.8967,-1.926,-1.8592,-1.8225,-1.8519,-1.7832,-1.7458,-1.7777,0.0,0.0,0.0,0.0,0.0,0.0,0.0,0.0,-1.8052,-1.8926,-1.9264,-1.9047,-1.9463,-1.9604,-1.9485,-1.923,-1.8983,-1.8743,-1.8469,-1.8198,0.0,0.0,0.0,0.0,0.0,0.0,-1.8826,0.0,0.0,0.0,0.0,0.0,0.0,0.0,0.0,0.0,0.0,0.0,0.0,0.0,-2.8278,-3.2075,0.0,-3.6375,-3.7213,-3.7403,-3.4595,0.0,0.0,0.0,-2.6148,-2.6014,-2.5618,-2.5462,-2.6,-2.6192,-2.6993,-2.9208,-3.1025,0.0,0.0,0.0,0.0,0.0,0.0,0.0,0.0,0.0,-5.3991,-5.2799,-5.2212,-5.1548,-5.075,-5.0712,-5.0712,-5.0712,-5.0712,-5.0712,-5.0712,-4.9837,-4.9394,-4.9394,-4.8221,-4.7394,-4.6885,-4.6567,-4.6105,-4.5594,-4.5594,-4.5222,0.0,-4.4593,-4.4169,-4.3515,-4.3515,-4.3515,-4.346,-4.3149,-4.2294,-4.1258,0.0,0.0,0.0,0.0,0.0,0.0,0.0,0.0,0.0,-1.9205,-1.8592,-1.839,-1.9132,-1.8555,-1.8408,-1.915,0.0,0.0,0.0,0.0,0.0,0.0,0.0,0.0,-1.8925,-1.9818,-2.0149,-1.9843,-1.9813,-1.9657,-1.9339,-1.9335,-1.9204,-1.9001,-1.8752,-1.8479,-1.8229,-1.8229,-1.8072,-1.7927,-1.875,-1.9371,0.0,0.0,0.0,0.0,0.0,0.0,0.0,0.0,0.0,0.0,0.0,0.0,0.0,0.0,0.0,0.0,0.0,-3.2137,0.0,0.0,0.0,0.0,0.0,0.0,0.0,-2.512,-2.5152,-2.5336,-2.5534,-2.6851,-2.8014,-2.8386,-3.1058,0.0,0.0,0.0,0.0,0.0,0.0,0.0,0.0,0.0,-5.3645,-5.2019,-5.1846,-5.1491,-5.075,-5.0712,-5.0673,-5.0616,-5.0616,-5.0616,-5.0616,-4.9683,-4.9221,-4.9202,-4.7586,-4.6817,-4.6778,-4.597,-4.5594,0.0,-4.5577,-4.5211,-4.4612,-4.4567,-4.414,-4.3515,-4.3515,-4.3478,-4.3331,-4.2635,-4.1997,-4.133,0.0,0.0,0.0,0.0,0.0,0.0,0.0,0.0,0.0,0.0,-1.8592,-1.817,-1.8353,-1.8207,-1.8188,0.0,0.0,0.0,0.0,0.0,0.0,0.0,0.0,0.0,-1.9945,-2.018,-2.0264,-2.0176,-2.0026,-1.9908,-1.982,-1.9625,-1.939,-1.9149,-1.8973,-1.8761,-1.8508,-1.8508,-1.8469,-1.8502,-1.9506,-1.9874,0.0,0.0,0.0,0.0,-2.1284,-2.1987,0.0,0.0,0.0,0.0,0.0,0.0,0.0,0.0,-2.5044,-2.5688,-2.5724,0.0,-2.7703,-2.8128,-2.6985,0.0,0.0,0.0,0.0,0.0,0.0,0.0,0.0,-2.8049,-2.8964,-3.2208,-3.3949,0.0,0.0,0.0,0.0,0.0,0.0,0.0,0.0,0.0,-5.2327,-5.1923,-5.1337,-5.0894,-5.0712,-5.0712,-5.0385,-4.9721,-4.9702,-4.9702,-4.9702,-4.824,-4.749,-4.7471,-4.6413,-4.5913,-4.5893,-4.5691,-4.5594,-4.5586,-4.5332,-4.4977,-4.4567,-4.4261,-4.3899,-4.3515,-4.3515,-4.3112,-4.2635,-4.3057,-4.1967,-4.0446,0.0,0.0,0.0,0.0,0.0,0.0,0.0,0.0,0.0,0.0,0.0,0.0,0.0,0.0,0.0,0.0,0.0,0.0,0.0,0.0,0.0,0.0,0.0,-2.006,-2.0161,-2.0245,-2.0245,-2.0161,-2.0041,-1.9978,-1.9893,-1.9701,-1.9516,-1.9372,-1.9099,-1.8843,-1.8604,-1.8734,-1.8715,-1.8703,-1.9867,0.0,0.0,0.0,0.0,0.0,-2.1879,-2.2318,0.0,-2.2501,-2.2923,-2.3639,0.0,0.0,0.0,0.0,-2.4511,-2.475,-2.4318,-2.5052,-2.598,-2.6025,-2.5393,-2.489,0.0,0.0,0.0,0.0,0.0,0.0,0.0,0.0,0.0,0.0,-3.443,0.0,0.0,0.0,0.0,0.0,0.0,0.0,0.0,-5.2135,-5.175,-5.1375,-5.0952,-5.0712,-5.0712,-5.0712,-5.0308,-4.9433,-4.9009,-4.8798,-4.8798,-4.7548,-4.6904,-4.6885,-4.6009,-4.5594,-4.5594,-4.5594,-4.5594,-4.5577,-4.5243,-4.4908,-4.4567,-4.418,-4.3582,-4.2947,-4.2947,-4.2451,-4.1772,-4.1809,-4.1351,-4.0683,0.0,0.0,0.0,0.0,0.0,0.0,0.0,0.0,0.0,0.0,0.0,0.0,0.0,0.0,0.0,0.0,0.0,0.0,0.0,0.0,0.0,0.0,-1.9938,-2.0017,-2.0055,-2.0205,-2.0229,-2.0055,-2.0174,-2.0174,-2.0066,-1.9901,-1.9721,-1.9534,-1.9198,-1.8922,-1.8725,-1.8948,-1.8913,-1.8806,-2.0014,0.0,0.0,0.0,0.0,0.0,0.0,0.0,0.0,-2.2657,-2.2786,-2.3098,-2.3657,0.0,0.0,0.0,0.0,0.0,-2.419,-2.5548,-2.6686,-2.5553,-2.5462,-2.5601,-2.5511,0.0,0.0,0.0,0.0,0.0,0.0,0.0,0.0,0.0,0.0,0.0,0.0,0.0,0.0,0.0,0.0,0.0,-5.251,-5.2068,-5.1433,-5.075,-5.0712,-5.0712,-5.0712,-5.0577,-5.0087,-4.9221,-4.8375,-4.7855,-4.7721,-4.7048,-4.6701,-4.6701,-4.5951,-4.5594,-4.5594,-4.555,-4.5464,-4.5321,-4.4927,0.0,-4.4111,-4.3718,-4.2982,-4.2121,-4.2121,-4.1644,-4.0838,-4.0286,-4.0542,-4.0966,0.0,0.0,0.0,0.0,0.0,0.0,0.0,0.0,0.0,0.0,0.0,0.0,0.0,0.0,0.0,0.0,0.0,0.0,0.0,0.0,0.0,-1.9809,-1.9938,-2.0078,-2.0245,-2.0281,-2.0281,-2.0245,-2.0941,-2.1259,-2.1237,-2.0988,-2.0324,-1.9335,-1.9274,-1.9227,-1.9204,-1.9235,-1.9227,-1.9277,-2.0156,0.0,0.0,0.0,0.0,0.0,0.0,0.0,0.0,-2.1135,-2.1832,-2.2896,-2.2345,0.0,0.0,0.0,0.0,0.0,-2.419,-2.6374,-2.7996,-2.5319,-2.567,-2.6543,-2.6022,0.0,0.0,0.0,0.0,0.0,0.0,0.0,0.0,0.0,0.0,0.0,0.0,0.0,0.0,0.0,0.0,-5.126,-5.0106,-5.0529,-5.0827,-5.0712,-5.0712,-5.0712,-5.0712,-4.999,-4.9202,-4.8336,-4.7509,-4.674,-4.5998,-4.5864,-4.5806,-4.5806,-4.5671,-4.5594,-4.5586,-4.5312,-4.4819,-4.4121,0.0,-4.2735,-4.2034,-4.1677,-4.1436,-4.1279,-4.1279,-4.0799,-4.0139,-4.0726,-4.0152,-3.9298,0.0,0.0,0.0,0.0,0.0,0.0,0.0,0.0,0.0,0.0,0.0,0.0,0.0,0.0,0.0,0.0,0.0,0.0,0.0,0.0,-1.979,-1.979,-2.0022,-2.0201,-2.0308,-2.0731,-2.0942,-2.0942,-2.1793,-2.1966,-2.1481,-2.0741,-2.0006,-1.9297,-1.9297,-1.9297,-1.9297,-1.9297,-1.9297,-1.9363,0.0,0.0,0.0,0.0,0.0,0.0,0.0,0.0,0.0,0.0,-2.2712,-2.3006,-2.307,0.0,0.0,0.0,0.0,0.0,-2.419,-2.5603,-2.6859,-2.6005,-2.769,-2.9288,0.0,0.0,0.0,0.0,0.0,0.0,0.0,0.0,0.0,0.0,0.0,0.0,0.0,0.0,0.0,0.0,0.0,-5.0077,-5.0702,-5.0721,-5.05,-5.0029,-4.999,-4.9779,-4.9317,-4.8913,-4.8317,-4.749,-4.6644,-4.5778,-4.4913,-4.447,-4.4701,-4.5594,-4.469,-4.4399,-4.4662,-4.4036,-4.346,-4.2906,0.0,-4.194,-4.1576,-4.1233,-4.0838,-4.0451,-4.0451,-3.9955,-3.935,-4.0157,-3.9974,-3.9515,0.0,0.0,0.0,0.0,0.0,0.0,0.0,0.0,0.0,0.0,0.0,0.0,0.0,0.0,0.0,0.0,0.0,0.0,0.0,0.0,-1.9768,-1.9809,-2.0084,-2.0341,-2.0577,-2.1173,-2.16,-2.1793,-2.2682,-2.2649,-2.173,-2.0625,-1.9832,-1.9365,-1.932,-1.9297,-1.9297,-1.9297,-1.9297,-1.9337,0.0,0.0,0.0,0.0,0.0,0.0,0.0,0.0,0.0,0.0,0.0,0.0,0.0,0.0,0.0,-2.419,-2.419,-2.419,-2.419,-2.5102,-2.614,-2.6526,0.0,0.0,0.0,0.0,0.0,0.0,0.0,0.0,0.0,0.0,0.0,0.0,0.0,0.0,0.0,0.0,0.0,-4.9471,-4.9125,-4.949,-5.1433,-5.0875,-5.0106,-4.9452,-4.9202,-4.8798,-4.8144,-4.7932,-4.7451,-4.6624,-4.574,-4.4874,-4.4028,-4.3201,-4.3547,-4.4998,-4.3701,-4.3326,-4.3675,-4.2855,-4.2234,-4.1812,-4.1376,-4.1103,-4.0907,-4.0633,-4.0175,-3.9625,-3.9625,-3.9239,-3.8781,-3.9386,-3.9735,-4.001,0.0,0.0,0.0,0.0,0.0,0.0,0.0,0.0,0.0,0.0,0.0,0.0,0.0,0.0,0.0,0.0,0.0,0.0,0.0,0.0,-1.9663,-1.9784,-1.9943,-2.046,-2.1385,-2.1466,-2.1908,-2.272,-2.3586,-2.3496,-2.2494,-2.147,-2.0496,-1.9562,-1.938,-1.9297,-1.9297,-1.9297,-1.9297,-1.9297,-1.9355,0.0,0.0,0.0,0.0,0.0,0.0,0.0,0.0,0.0,0.0,0.0,0.0,0.0,-2.419,-2.419,-2.419,-2.419,-2.419,-2.6021,-2.7558,-2.6151,-2.6524,0.0,-3.1213,-3.2034,0.0,-3.4293,0.0,0.0,0.0,0.0,0.0,0.0,0.0,0.0,0.0,0.0,-5.0404,-5.0577,-5.0558,-5.0577,-5.077,-4.999,-4.9471,-4.9394,-4.8644,-4.8163,-4.8105,-4.7394,-4.6586,-4.5729,-4.4855,-4.3989,-4.3181,-4.2335,-4.2354,-4.3278,-4.3162,-4.3115,-4.3129,-4.2449,-4.1711,-4.0939,-4.031,-3.9598,-3.8918,-3.8888,-3.8836,-3.8799,-3.8799,-3.8762,-3.8707,-3.8781,-3.9258,-4.001,0.0,0.0,0.0,0.0,0.0,0.0,0.0,0.0,0.0,0.0,0.0,0.0,0.0,0.0,0.0,0.0,0.0,0.0,0.0,-1.9492,-1.9623,-1.9669,-1.989,-2.0432,-2.1354,-2.1989,-2.247,-2.2797,-2.3124,-2.305,-2.256,-2.1091,-2.0161,-1.9713,-1.9638,-1.9838,-2.0196,-1.9696,-1.9697,-1.9989,-1.9366,-1.9069,0.0,0.0,0.0,0.0,0.0,0.0,0.0,0.0,-2.3217,-2.3749,-2.3749,-2.3951,-2.419,-2.419,-2.4284,-2.4357,-2.4237,-2.5735,-2.7297,-2.7058,-2.7342,0.0,0.0,-3.4339,-3.5976,-3.7071,-3.8452,0.0,0.0,0.0,0.0,0.0,0.0,0.0,0.0,-4.9894,-4.9894,-4.9894,-4.9413,-4.9086,-4.9086,-4.8798,-4.8375,-4.7875,-4.7548,-4.6874,-4.5797,-4.5451,-4.4893,-4.4066,-4.3201,-4.2604,-4.2297,-4.1431,-4.1162,-4.1477,-4.1477,-4.1654,-4.1944,-4.0983,-4.0277,-3.9763,-3.935,-3.8982,-3.8707,-3.8707,-3.8707,-3.8707,-3.8707,-3.8707,-3.8707,-3.8707,-3.9203,-3.9937,0.0,0.0,0.0,0.0,0.0,0.0,0.0,0.0,0.0,0.0,0.0,0.0,0.0,0.0,0.0,0.0,0.0,0.0,-1.9297,-1.9435,-1.9534,-1.9608,-1.978,-2.0188,-2.0866,-2.1838,-2.2473,-2.2797,-2.2528,-2.2334,-2.2235,-2.0986,-2.0358,-2.028,-2.0486,-2.0815,-2.1131,-2.0311,-2.017,-2.0421,-1.9469,-1.9084,0.0,0.0,0.0,0.0,0.0,0.0,0.0,0.0,-2.3988,-2.419,-2.419,-2.419,-2.419,-2.419,-2.433,-2.4452,-2.4247,-2.5199,-2.6375,-2.6984,0.0,0.0,-3.3218,-3.5932,-3.8097,-3.9464,-4.0342,0.0,0.0,0.0,0.0,0.0,0.0,0.0,-4.8875,-4.899,-4.899,-4.899,-4.8471,-4.8105,-4.8105,-4.7625,-4.7086,-4.6528,-4.6009,-4.5182,-4.397,-4.3912,-4.3547,-4.272,-4.2104,-4.1681,-4.1393,-4.0804,-4.0496,-4.0496,-4.0406,-4.0574,-4.0882,-4.0011,-3.9414,-3.9085,-3.8833,-3.8707,-3.8707,-3.8707,-3.8707,-3.8707,-3.8707,-3.8707,-3.8707,-3.8707,-3.9203,-3.99,0.0,0.0,0.0,0.0,0.0,0.0,0.0,0.0,0.0,0.0,0.0,0.0,0.0,0.0,0.0,0.0,0.0,0.0,-1.9297,-1.9297,-1.938,-1.9601,-1.9608,-1.9719,-1.9984,-2.0847,-2.1775,-2.2797,-2.1927,-2.1504,-2.15,-2.1364,-2.1304,-2.1337,-2.2008,-2.2209,-2.1969,-2.1155,-2.07,-2.0456,-1.9638,-1.9315,-1.9407,0.0,0.0,0.0,0.0,0.0,0.0,0.0,-2.3547,-2.419,-2.419,-2.419,-2.4199,-2.419,-2.4339,-2.4452,-2.4266,-2.4513,-2.4968,0.0,0.0,0.0,-3.4572,-3.6615,-3.8546,-4.1427,0.0,-4.0043,-4.0441,0.0,0.0,-4.2816,-4.524,-4.7173,-4.799,-4.8086,-4.8086,-4.8086,-4.8067,-4.8048,-4.8048,-4.6547,-4.5575,-4.5575,-4.4028,-4.3104,-4.3085,-4.3085,-4.2701,-4.1808,-4.1788,-4.1373,-4.0516,-4.0496,-4.0496,-4.0489,-4.0223,-4.0101,-4.0091,-3.9754,-3.9414,-3.9085,-3.8833,-3.8707,-3.8707,-3.8707,-3.8707,-3.8707,-3.8707,-3.8707,-3.8707,-3.8707,-3.9203,-3.9882,0.0,0.0,0.0,0.0,0.0,0.0,0.0,0.0,0.0,0.0,0.0,0.0,0.0,0.0,0.0,0.0,0.0,0.0,-1.9297,-1.9297,-1.932,-1.9398,-1.9527,-1.9642,-1.9726,-2.0158,-2.1182,-2.2797,-2.1927,-2.1812,-2.2408,-2.1758,-2.1764,-2.2359,-2.2556,-2.2879,-2.3202,-2.2267,-2.2083,-2.2388,-2.1439,-2.106,-2.1078,0.0,0.0,0.0,0.0,0.0,0.0,0.0,0.0,0.0,-2.419,-2.4294,-2.4384,-2.4247,-2.4435,-2.467,-2.4461,-2.5425,0.0,0.0,0.0,0.0,0.0,-3.8522,0.0,0.0,0.0,-4.1768,-4.1887,0.0,0.0,-4.2964,-4.472,-4.6278,-4.7144,-4.6721,-4.6336,-4.6336,-4.5297,-4.4586,-4.4586,-4.4124,-4.3835,-4.3835,-4.3374,-4.2835,-4.222,-4.22,-4.1797,-4.0912,-4.0893,-4.0766,-4.0496,-4.0496,-4.0417,-4.0213,-4.0139,-4.0101,-4.0081,-3.9517,-3.9186,-3.9085,-3.8833,-3.8707,-3.8707,-3.8707,-3.8707,-3.8707,-3.8707,-3.8707,-3.8707,-3.8707,-3.8854,-3.9056,0.0,0.0,0.0,0.0,0.0,0.0,0.0,0.0,0.0,0.0,0.0,0.0,0.0,0.0,0.0,0.0,0.0,0.0,0.0,-1.9297,-1.9297,-1.9297,-1.9427,-1.952,-1.9608,-1.9863,-2.0547,-2.1693,-2.1233,-2.1466,-2.2274,-2.21,-2.2489,-2.3355,-2.4009,-2.4265,-2.417,-2.3548,-2.3251,-2.3088,-2.2167,-2.1794,-2.1831,0.0,0.0,0.0,0.0,0.0,0.0,0.0,0.0,0.0,-2.419,-2.4275,-2.4357,-2.4237,-2.4436,-2.4706,-2.4835,0.0,0.0,0.0,0.0,0.0,0.0,0.0,0.0,0.0,0.0,-4.3066,-4.3187,-4.2958,0.0,-4.306,-4.422,-4.5163,-4.5355,-4.4932,-4.4605,-4.4605,-4.372,-4.3104,-4.3104,-4.2797,-4.2585,-4.2585,-4.2258,-4.1835,-4.1316,-4.1277,-4.1046,-4.0516,-4.0496,-4.0496,-4.0496,-4.0389,-4.025,-4.0101,-3.9819,-3.969,-3.9679,-3.9276,-3.9049,-3.8919,-3.8777,-3.8707,-3.8707,-3.8707,-3.8707,-3.8707,-3.8707,-3.8707,-3.8707,-3.8707,-3.8707,-3.8707,0.0,0.0,0.0,0.0,0.0,0.0,0.0,0.0,0.0,0.0,-1.9297,0.0,0.0,0.0,0.0,0.0,0.0,0.0,0.0,0.0,-1.9297,-1.9297,-1.9297,-1.9387,-1.9608,-1.9836,-2.0002,-2.0122,-2.0316,-2.0827,-2.1639,-2.2581,-2.349,-2.4399,-2.6005,-2.6075,-2.4967,-2.4922,-2.4278,-2.3198,-2.2436,-2.2161,-2.2308,-2.2978,0.0,0.0,0.0,0.0,0.0,0.0,0.0,0.0,-2.419,-2.4209,-2.4218,-2.4218,-2.433,-2.4638,-2.5344,0.0,0.0,0.0,0.0,0.0,0.0,0.0,0.0,0.0,0.0,-4.388,-4.4138,-4.3568,-4.306,-4.3085,-4.3701,-4.3932,-4.3201,-4.3028,-4.2989,-4.2989,-4.2912,-4.2854,-4.2854,-4.2143,-4.1673,-4.1673,-4.095,-4.0496,-4.0496,-4.0496,-4.0496,-4.0496,-4.0496,-4.0489,-4.0465,-4.0213,-4.0071,-4.0002,-3.9389,-3.9085,-3.9058,-3.9058,-3.8919,-3.8707,-3.8707,-3.8707,-3.8707,-3.8707,-3.8707,-3.8707,-3.8707,-3.8707,-3.8707,-3.8707,-3.8707,-3.8707,0.0,0.0,0.0,0.0,0.0,0.0,0.0,0.0,0.0,0.0,0.0,0.0,0.0,0.0,0.0,0.0,0.0,0.0,0.0,0.0,-1.9297,-1.9297,-1.9297,-1.9387,-1.9608,-1.9669,-2.0124,-2.1018,-2.118,-2.1677,-2.2547,-2.4058,-2.5231,-2.6101,-2.714,-2.7089,-2.6192,-2.5884,-2.5601,-2.5308,-2.4811,-2.5007,-2.5529,-2.5062,-2.4879,0.0,0.0,0.0,0.0,0.0,0.0,0.0,-2.419,-2.4312,-2.441,-2.4256,-2.433,-2.4803,0.0,-2.738,0.0,0.0,0.0,0.0,0.0,0.0,0.0,0.0,0.0,0.0,-4.3408,-4.2966,-4.2728,-4.3052,-4.3258,-4.3297,-4.3124,-4.2508,-4.2085,-4.2085,-4.147,-4.1054,-4.1054,-4.09,-4.0785,-4.0785,-4.0612,-4.0496,-4.0496,-4.0496,-4.0496,-4.0496,-4.0496,-4.0397,-4.0186,-4.0129,-3.9848,-3.9314,-3.9178,-3.8985,-3.8788,-3.8788,-3.8747,-3.8707,-3.8707,-3.8707,-3.8707,-3.8707,-3.8707,-3.8707,-3.8707,-3.8707,-3.8707,-3.8707,-3.8707,-3.8707,0.0,0.0,0.0,0.0,0.0,0.0,0.0,0.0,0.0,0.0,0.0,0.0,0.0,0.0,0.0,0.0,0.0,0.0,0.0,0.0,-1.9297,-1.9297,-1.9297,-1.9342,-1.9445,-1.9617,-2.0188,-2.1195,-2.1828,-2.2566,-2.3451,-2.4712,-2.5769,-2.6659,-2.7909,-2.7723,-2.6487,-2.6989,-2.6514,-2.5461,-2.5828,-2.6041,-2.6149,-2.6021,-2.597,-2.586,-2.5062,0.0,0.0,0.0,0.0,0.0,0.0,0.0,-2.4348,-2.4228,-2.4266,-2.4718,0.0,0.0,0.0,0.0,0.0,0.0,0.0,0.0,0.0,0.0,0.0,0.0,-4.3156,-4.2925,-4.2726,-4.2503,-4.2489,-4.2335,-4.1912,-4.145,-4.1181,-4.1181,-4.0785,-4.0496,-4.0496,-4.0496,-4.0496,-4.0496,-4.0496,-4.0496,-4.0496,-4.0496,-4.0496,-4.0496,-4.0372,-4.0232,-4.0101,-3.9786,-3.9457,-3.9099,-3.8975,-3.8844,-3.8707,-3.8707,-3.8707,-3.8707,-3.8707,-3.8707,-3.8707,-3.8707,-3.8707,-3.8707,-3.8707,-3.8707,-3.8707,-3.8707,-3.8707,-3.8707,0.0,0.0,0.0,0.0,0.0,0.0,0.0,0.0,0.0,0.0,0.0,0.0,0.0,0.0,0.0,0.0,0.0,0.0,0.0,0.0,0.0,-1.9297,-1.9297,-1.937,-1.9499,-1.9805,-2.0476,-2.1506,-2.2492,-2.351,-2.4548,-2.537,-2.6212,-2.7101,-2.864,-2.8386,-2.6855,-2.8047,-2.7358,-2.5574,-2.6535,-2.6719,-2.6413,-2.674,-2.6851,-2.6749,-2.5909,-2.5613,-2.5485,-2.4677,0.0,0.0,0.0,0.0,-2.419,-2.419,-2.419,-2.4557,0.0,0.0,0.0,0.0,0.0,0.0,0.0,0.0,0.0,0.0,0.0,0.0,-4.2681,-4.2643,-4.2412,-4.17,-4.1585,-4.1316,-4.0593,-4.0381,-4.0342,-4.0477,-4.0381,-4.0342,-4.0496,-4.0496,-4.0496,-4.0496,-4.0362,-4.0285,-4.0285,-4.015,-4.0115,-4.021,-3.985,-3.9699,-3.9723,-3.917,-3.8867,-3.8831,-3.873,-3.8707,-3.8707,-3.8707,-3.8707,-3.8707,-3.8707,-3.8707,-3.8707,-3.8707,-3.8707,-3.8707,-3.8707,-3.8707,-3.8707,-3.8707,-3.8707,-3.8707,0.0,0.0,0.0,0.0,0.0,0.0,0.0,0.0,0.0,0.0,0.0,0.0,0.0,0.0,0.0,0.0,0.0,0.0,0.0,0.0,0.0,-1.9297,-1.9297,-1.962,-2.0327,-2.0552,-2.1483,-2.3175,-2.3507,-2.4568,-2.6294,-2.714,-2.7992,-2.8819,-2.9794,-2.9667,-2.8722,-2.8746,-2.8569,-2.8268,-2.8256,-2.8616,-2.9069,-2.8222,-2.7902,-2.7761,-2.6798,-2.6447,-2.6319,-2.5503,-2.5246,0.0,0.0,0.0,-2.419,-2.419,-2.419,-2.4557,0.0,0.0,0.0,0.0,0.0,0.0,0.0,0.0,0.0,0.0,0.0,0.0,-4.0997,-4.0843,-4.0804,-4.0689,-4.0669,-4.0631,-4.0516,-3.99,-3.9727,-4.0419,-3.9881,-3.9727,-4.0439,-4.0496,-4.0496,-4.0496,-3.9842,-3.9457,-3.9457,-3.8738,-3.8558,-3.9013,-3.8317,-3.8009,-3.8191,-3.8102,-3.7927,-3.7713,-3.8389,-3.8707,-3.8707,-3.8707,-3.8707,-3.8707,-3.8707,-3.8707,-3.8707,-3.8707,-3.8707,-3.8707,-3.8707,-3.8707,-3.8707,-3.8707,-3.8707,-3.8707,0.0,0.0,0.0,0.0,0.0,0.0,0.0,0.0,0.0,0.0,0.0,0.0,0.0,0.0,0.0,0.0,0.0,0.0,0.0,0.0,0.0,-1.9987,-2.0435,-2.0876,-2.1216,-2.1499,-2.224,-2.3496,-2.3812,-2.5114,-2.7332,-2.7722,-2.8582,-2.9871,-3.0731,-3.0635,-2.9802,-2.9563,-2.9026,-2.8338,-2.8946,-2.8893,-2.851,-2.8852,-2.8624,-2.8042,-2.7591,-2.7374,-2.7145,-2.6337,-2.5778,-2.5338,-2.4989,0.0,0.0,0.0,0.0,0.0,0.0,0.0,0.0,0.0,0.0,0.0,0.0,0.0,0.0,0.0,0.0,-3.9479,-4.0342,-4.0131,-3.9823,-3.9823,-3.9419,-3.9104,-3.9104,-3.8796,-3.87,-3.9065,-3.8796,-3.87,-3.9065,-3.9104,-3.9104,-3.9104,-3.8626,-3.835,-3.835,-3.7837,-3.7652,-3.7896,-3.7381,-3.7141,-3.7243,-3.7071,-3.7155,-3.7511,-3.8322,-3.8707,-3.8707,-3.8707,-3.8707,-3.8707,-3.8707,-3.8707,-3.8707,-3.8707,-3.8707,-3.8707,-3.8707,-3.8707,-3.8707,-3.8707,-3.8707,-3.8707,0.0,0.0,0.0,0.0,0.0,0.0,0.0,0.0,0.0,0.0,0.0,0.0,0.0,0.0,0.0,0.0,0.0,0.0,0.0,0.0,0.0,-2.0841,-2.1445,-2.1904,-2.2106,-2.2432,-2.3004,-2.3829,-2.4441,-2.5818,-2.7915,-2.8332,-2.9313,-3.075,-3.1173,-3.1,-3.0398,-3.0189,-2.9506,-2.8579,-2.9272,-2.8893,-2.8007,-2.884,-2.8784,-2.8259,-2.8128,-2.8147,-2.808,-2.7203,-2.6502,-2.5944,-2.5521,-2.4989,0.0,0.0,0.0,0.0,0.0,0.0,0.0,0.0,0.0,0.0,0.0,0.0,0.0,0.0,0.0,-3.7155,-3.9014,-3.9087,-3.8896,-3.8969,-3.8411,-3.8007,-3.8007,-3.7815,-3.7757,-3.7969,-3.7796,-3.7735,-3.7882,-3.7959,-3.7951,-3.7811,-3.7481,-3.724,-3.7166,-3.6774,-3.664,-3.6753,-3.6313,-3.6131,-3.6265,-3.6058,-3.6486,-3.7511,-3.8102,-3.8395,-3.8395,-3.8615,-3.8597,-3.8414,-3.8615,-3.8707,-3.8707,-3.8707,-3.8707,-3.8707,-3.8707,-3.8707,-3.8707,-3.8707,-3.8707,-3.8707,0.0,0.0,0.0,0.0,0.0,0.0,0.0,0.0,0.0,0.0,0.0,0.0,-2.0346,-2.0437,-2.0768,-2.1592,0.0,0.0,0.0,0.0,0.0,-2.1702,-2.1776,0.0,-2.2914,-2.3262,-2.3867,-2.4728,-2.5909,-2.6967,-2.7934,-2.9519,-3.075,-3.1602,-3.0827,-3.0442,-3.0404,-3.0392,0.0,-3.0192,-2.9431,-2.9085,-2.8906,-2.7975,-2.8091,-2.8707,-2.825,-2.8619,-2.9165,-2.8087,-2.7714,-2.7412,-2.587,-2.5374,0.0,0.0,0.0,0.0,0.0,0.0,0.0,0.0,0.0,0.0,0.0,0.0,0.0,0.0,0.0,-3.52,-3.6062,-3.7024,-3.7774,-3.8035,-3.8027,-3.8007,-3.8007,-3.7296,-3.7058,-3.7892,-3.7276,-3.6991,-3.757,-3.7843,-3.7784,-3.7275,-3.6701,-3.6263,-3.6001,-3.5243,-3.5058,-3.5559,-3.477,-3.4581,-3.5087,-3.5059,-3.5899,-3.7492,-3.7547,-3.7566,-3.7584,-3.8358,-3.8285,-3.7603,-3.8377,-3.8707,-3.8707,-3.8707,-3.8707,-3.8707,-3.8707,-3.8707,-3.8707,-3.8707,-3.8707,-3.8707,0.0,0.0,0.0,0.0,0.0,0.0,0.0,0.0,0.0,0.0,0.0,0.0,0.0,-2.1327,-2.1464,-2.1776,-2.2263,0.0,0.0,0.0,0.0,-2.2575,-2.3052,-2.3474,-2.3768,-2.4142,-2.4483,-2.4804,-2.6004,-2.7044,-2.7915,-2.9044,-3.0025,-3.0885,-3.1115,-3.1231,-3.1192,-3.0635,0.0,0.0,0.0,0.0,0.0,0.0,0.0,0.0,0.0,0.0,0.0,-2.8805,-2.8312,-2.7783,-2.6565,-2.5815,0.0,0.0,0.0,0.0,0.0,0.0,0.0,0.0,0.0,0.0,0.0,0.0,0.0,0.0,0.0,-3.2765,-3.3214,-3.4224,-3.5001,-3.51,-3.4789,-3.4458,-3.4298,-3.4277,-3.4278,-3.4276,-3.4609,-3.486,-3.4898,-3.5495,-3.5799,-3.5622,-3.5197,-3.4913,-3.4813,-3.4362,-3.421,-3.441,-3.4102,-3.405,-3.4229,-3.4747,-3.5573,-3.674,-3.674,-3.6997,-3.7492,-3.7257,-3.7276,-3.7529,-3.7804,-3.8212,-3.8707,-3.8707,-3.8707,-3.8707,-3.8707,-3.8707,-3.8707,-3.8707,-3.8707,-3.8707,0.0,0.0,0.0,0.0,0.0,0.0,0.0,0.0,0.0,-2.1721,0.0,0.0,0.0,0.0,-2.2308,-2.2584,-2.285,-2.3116,-2.3391,-2.3657,-2.3676,-2.341,-2.3914,-2.419,-2.419,-2.4591,-2.4804,-2.4804,-2.6004,-2.7044,-2.7915,-2.8723,-2.9563,-3.0423,-3.1,-3.125,0.0,0.0,0.0,-3.0788,0.0,0.0,-3.0006,0.0,0.0,0.0,0.0,0.0,0.0,0.0,0.0,0.0,0.0,0.0,0.0,0.0,0.0,0.0,0.0,0.0,0.0,0.0,0.0,0.0,0.0,0.0,0.0,0.0,0.0,-3.0722,-3.1184,-3.1667,-3.2228,-3.2959,-3.2794,-3.251,-3.2239,-3.2546,-3.2641,-3.2248,-3.284,-3.3153,-3.289,-3.3467,-3.3898,-3.3997,-3.3866,0.0,-3.4062,-3.3902,-3.3678,-3.3421,-3.3403,-3.3403,-3.3403,-3.3922,-3.4766,-3.5862,-3.5862,-3.6138,-3.6652,-3.6413,-3.6431,-3.6688,-3.7254,-3.797,-3.8707,-3.8707,-3.8707,-3.8707,-3.8707,-3.8707,-3.8707,-3.8707,-3.8707,-3.8707,0.0,0.0,0.0,0.0,0.0,0.0,0.0,0.0,-2.1831,-2.1867,0.0,0.0,0.0,0.0,0.0,-2.419,-2.3547,-2.341,-2.4226,-2.3511,-2.3391,-2.419,0.0,0.0,0.0,-2.4591,-2.4804,-2.4804,-2.6023,-2.7063,-2.7915,-2.8742,-2.9583,-3.0404,-3.0404,-3.0404,-3.0404,0.0,-3.0898,-3.1538,0.0,-3.0179,-3.1621,0.0,0.0,0.0,-3.1094,-3.0865,0.0,-2.9402,0.0,0.0,0.0,0.0,0.0,0.0,0.0,0.0,0.0,0.0,0.0,0.0,0.0,0.0,0.0,0.0,0.0,0.0,0.0,-2.9207,-3.0026,-2.9537,-2.968,-3.1761,-3.2332,-3.2409,-3.2136,-3.234,-3.2417,-3.2136,-3.2128,-3.2043,-3.1776,-3.2003,-3.2279,-3.2579,-3.2821,-3.319,-3.3728,-3.3733,-3.3366,-3.2583,-3.2564,-3.2583,-3.2601,-3.2601,-3.3408,-3.5004,-3.4986,-3.4986,-3.5041,-3.5862,-3.5789,-3.5096,-3.6707,-3.7881,-3.8634,-3.8689,-3.8707,-3.8707,-3.8707,-3.8707,-3.8707,-3.8707,-3.8707,-3.8707,0.0,0.0,0.0,0.0,0.0,0.0,0.0,-2.2666,-2.2887,0.0,0.0,0.0,-2.4713,-2.5254,-2.5684,-2.5915,-2.5199,-2.5071,-2.5878,-2.4649,-2.4226,-2.5026,-2.4511,-2.419,-2.419,-2.4591,-2.4804,-2.4804,-2.6642,-2.7659,-2.7934,-2.9371,-3.0173,-3.0404,-3.0404,-3.0404,-3.0398,-3.0196,0.0,-3.1379,-3.0901,-3.1091,0.0,0.0,0.0,0.0,0.0,-3.1789,-3.151,0.0,-3.0001,-2.9887,0.0,0.0,0.0,0.0,0.0,0.0,-2.6209,0.0,0.0,0.0,0.0,0.0,0.0,0.0,0.0,0.0,0.0,-2.8374,-2.917,-2.9152,-2.9191,-2.9787,-3.0107,-3.0197,-2.9919,-3.0236,-3.0348,-2.9941,-3.0578,-3.0942,-3.0681,-3.1238,-3.1886,0.0,-3.2133,-3.2164,-3.2889,-3.2375,-3.1966,-3.1733,-3.1733,-3.2008,-3.2583,-3.2601,-3.3408,-3.5004,-3.4399,-3.4435,-3.4986,-3.4651,-3.4688,-3.5041,-3.5481,-3.6193,-3.7055,-3.823,-3.8707,-3.8707,-3.8707,-3.8707,-3.8707,-3.8707,-3.8707,-3.8707,0.0,0.0,0.0,0.0,0.0,0.0,-2.3878,-2.43,-2.4657,0.0,0.0,0.0,-2.5907,-2.6319,-2.6602,-2.6602,-2.6172,-2.6098,-2.6576,-2.5401,-2.5062,-2.587,-2.4814,-2.4403,-2.482,-2.4729,-2.4877,-2.5291,-2.6607,-2.7589,-2.8292,-2.9289,-2.9979,-3.0398,0.0,0.0,0.0,0.0,0.0,0.0,-3.1976,0.0,0.0,-3.3688,-3.3352,0.0,0.0,0.0,-3.2594,-3.1175,-3.0586,0.0,0.0,0.0,0.0,0.0,0.0,0.0,0.0,0.0,0.0,0.0,0.0,0.0,-2.6439,-2.6759,-2.7328,0.0,-2.8301,0.0,-2.8913,-2.9005,-2.9005,-2.9005,-2.9134,-2.9189,-2.9028,-2.9324,-2.9435,-2.9044,-2.9551,-2.9861,-2.9707,-3.0118,-3.0723,-3.1537,-3.1164,-3.1256,-3.2063,-3.1641,-3.125,-3.0907,-3.0889,-3.1127,-3.1592,-3.1935,-3.2729,-3.3995,-3.3862,-3.4045,-3.4472,-3.4009,-3.4064,-3.4509,-3.4857,-3.5481,-3.6395,-3.7661,-3.8193,-3.823,-3.8579,-3.8707,-3.8707,-3.8707,-3.8707,-3.8707,0.0,0.0,0.0,0.0,0.0,0.0,0.0,-2.608,-2.6602,0.0,-2.6686,-2.6778,-2.6859,-2.6859,-2.6859,-2.6859,-2.6767,-2.6778,-2.6859,-2.6035,-2.5888,-2.6704,-2.5273,-2.4883,-2.5782,-2.5129,-2.5203,-2.6097,-2.6424,-2.7344,-2.8812,-2.8881,-2.9448,-3.0343,0.0,0.0,0.0,0.0,0.0,-3.2832,-3.2909,-3.3888,0.0,0.0,-3.4841,-3.448,-3.4338,-3.4074,-3.3568,-3.2045,-3.0999,0.0,0.0,0.0,0.0,0.0,-2.6987,0.0,0.0,0.0,0.0,0.0,0.0,0.0,-2.7512,-2.7658,-2.7897,-2.8693,-2.8803,0.0,-2.8968,-2.8932,-2.8877,-2.8877,-2.895,-2.9005,-2.9005,-2.9222,-2.9267,-2.904,-2.9005,-2.9005,-2.9005,-2.9005,-2.9335,-3.0136,-3.021,-3.0467,-3.1103,-3.114,-3.0797,-3.0099,-3.0081,-3.0155,-3.0338,-3.1035,-3.1843,-3.2729,-3.3458,-3.3807,-3.3807,-3.3807,-3.3807,-3.3844,-3.4564,-3.5298,-3.6083,-3.6905,-3.7382,-3.7713,-3.8414,-3.8707,-3.8707,-3.8707,-3.8707,-3.8707,0.0,0.0,0.0,0.0,0.0,0.0,0.0,-2.608,-2.6602,-2.6602,-2.7163,-2.7805,-2.8455,-2.8528,-2.8528,-2.8528,-2.7952,-2.7842,-2.8491,-2.717,-2.6722,-2.753,-2.6649,-2.6229,-2.6418,-2.6441,-2.6535,-2.6729,-2.7794,-2.8488,-2.8805,-2.9453,-2.9875,-3.0107,0.0,0.0,0.0,0.0,0.0,-3.2387,-3.305,0.0,-3.3894,-3.4778,-3.4367,-3.3407,-3.4018,-3.4031,-3.3642,-3.2687,-3.1825,-3.114,0.0,0.0,0.0,0.0,0.0,0.0,0.0,0.0,0.0,0.0,0.0,0.0,-2.6961,-2.6833,-2.7071,0.0,-2.753,0.0,0.0,-2.8473,-2.8026,-2.8026,-2.8583,-2.9005,-2.9005,-2.9051,-2.9055,-2.9005,-2.9005,-2.9005,-2.9005,-2.9005,-2.9335,-3.0136,-3.021,-2.9989,-2.9482,-2.9464,-2.939,-2.9244,-2.9225,-2.9849,-3.1146,-3.1323,-3.2118,-3.3568,-3.3715,-3.3807,-3.3807,-3.3807,-3.3807,-3.3807,-3.3972,-3.4137,-3.4357,-3.5151,-3.6655,-3.8487,-3.8634,-3.8707,-3.8707,-3.8707,-3.8707,-3.8707,0.0,0.0,0.0,0.0,0.0,0.0,0.0,-2.7273,-2.7794,-2.7794,-2.8143,-2.8546,-2.8968,-2.9005,-2.9005,-2.9005,-2.862,-2.8565,-2.8968,-2.7879,-2.7567,-2.8363,-2.7244,-2.683,-2.7352,-2.7046,-2.7149,-2.765,-2.8408,-2.901,-2.9415,-2.9711,-2.9908,-3.0022,0.0,0.0,0.0,0.0,-3.2898,-3.2501,-3.3753,0.0,-3.3487,-3.4336,-3.4205,-3.3631,-3.3895,-3.3897,-3.3807,-3.3793,-3.3005,0.0,0.0,-3.1715,-3.125,0.0,-3.021,-3.0026,0.0,0.0,0.0,-2.8503,0.0,0.0,0.0,-2.7794,-2.7904,-2.8319,-2.8069,-2.8033,-2.8858,0.0,-2.8411,-2.8411,-2.873,-2.8858,-2.8466,-2.8748,-2.9005,-2.9005,-2.9005,-2.9005,-2.9005,-2.9005,-2.917,-2.9574,-2.9592,-2.9427,-2.9023,-2.9005,-2.9005,-2.9005,-2.9005,-2.939,-3.021,-3.0999,-3.1801,-3.2596,-3.3421,-3.3807,-3.3807,-3.3807,-3.3807,-3.3807,-3.3807,-3.4027,-3.4454,-3.5298,-3.6615,-3.8102,-3.8102,-3.834,-3.8707,-3.8707,-3.8707,-3.8707,0.0,0.0,0.0,0.0,0.0,0.0,0.0,0.0,-2.906,-2.9207,-2.9372,-2.9464,-2.9464,-2.9375,-2.9423,-2.9666,-2.932,-2.9203,-2.9445,-2.8558,-2.8319,-2.8968,-2.7758,-2.7443,-2.8268,-2.764,-2.7708,-2.8519,-2.8782,-2.9251,-2.9885,-2.9722,-2.9806,0.0,0.0,0.0,0.0,0.0,0.0,-3.2746,0.0,-3.4339,-3.3523,-3.402,-3.4171,-3.4086,-3.3876,-3.3807,-3.3899,-3.4546,-3.3903,-3.2821,-3.2821,-3.2394,0.0,0.0,0.0,0.0,0.0,0.0,0.0,0.0,0.0,-2.9427,0.0,0.0,0.0,0.0,0.0,0.0,0.0,0.0,0.0,0.0,0.0,0.0,0.0,-2.8033,0.0,-2.8546,-2.8822,-2.8932,-2.8785,-2.8767,-2.8767,-2.8767,-2.8767,-2.884,-2.8987,-2.9005,-2.9005,-2.9005,-2.9005,-2.9078,-2.9225,-3.0668,-3.1488,-3.1654,-3.3109,-3.3807,-3.3807,-3.3807,-3.3807,-3.3807,-3.3807,-3.4174,-3.4839,-3.5697,-3.6523,-3.7309,-3.7621,-3.812,-3.8707,-3.8707,-3.8707,-3.8707,-2.419,-2.419,0.0,0.0,0.0,0.0,0.0,0.0,-2.9262,-2.9971,-3.0687,-3.114,-3.114,0.0,0.0,0.0,0.0,0.0,-3.106,0.0,0.0,0.0,-2.8822,0.0,-2.8904,-2.8812,-2.8816,-2.8931,-2.9194,-2.938,-2.9474,-2.9444,-2.9836,0.0,-3.03,0.0,0.0,0.0,-3.2834,0.0,-3.3836,-3.4079,0.0,-3.4086,-3.4056,-3.3842,-3.3802,-3.3807,-3.3807,0.0,-3.3807,-3.366,0.0,-3.3605,-3.3366,0.0,0.0,0.0,0.0,0.0,0.0,0.0,-3.114,0.0,0.0,0.0,-2.9849,-2.9152,0.0,0.0,0.0,0.0,0.0,0.0,0.0,0.0,-2.5888,-2.6374,-2.6859,-2.6859,-2.8124,-2.8712,-2.8007,-2.7934,-2.7934,-2.7934,-2.7934,-2.8246,-2.8968,-2.9005,-2.9005,-2.9005,-2.9005,-2.9335,-3.0063,-3.0944,-3.1751,-3.2472,-3.3366,-3.3807,-3.3807,-3.3807,-3.3807,-3.3807,-3.3807,-3.3844,-3.4009,-3.4802,-3.5661,-3.6578,-3.801,-3.8615,-3.8707,-3.8707,-3.8707,-3.8707,-2.4281,-2.4585,0.0,0.0,0.0,0.0,0.0,0.0,-3.0356,-3.0228,-3.1311,0.0,0.0,0.0,0.0,0.0,0.0,-3.1002,0.0,0.0,0.0,0.0,0.0,0.0,0.0,-3.0079,-2.9928,-2.9928,-3.0165,-3.0039,-2.9589,-2.9939,-3.0277,0.0,-3.0321,0.0,-3.1947,0.0,-3.2705,0.0,0.0,0.0,0.0,-3.3928,-3.3902,-3.3807,-3.3807,-3.3807,-3.3807,0.0,-3.3807,0.0,0.0,0.0,0.0,0.0,0.0,0.0,0.0,0.0,0.0,0.0,0.0,0.0,-3.0375,0.0,-2.9971,0.0,0.0,0.0,0.0,0.0,0.0,0.0,-2.7879,0.0,0.0,0.0,-2.6602,0.0,0.0,0.0,-2.7787,-2.7798,-2.7989,-2.8455,-2.8062,-2.8154,-2.8968,-2.9005,-2.9005,-2.9005,-2.9005,-2.9152,-2.95,-3.0301,-3.1109,-3.1916,-3.2724,-3.3348,-3.3807,-3.3807,-3.3807,-3.3807,-3.3807,-3.3807,-3.3899,-3.522,-3.5973,-3.645,-3.8065,-3.8707,-3.8707,-3.8707,-3.8707,-3.8707,-2.4961,0.0,0.0,0.0,0.0,0.0,0.0,0.0,0.0,0.0,0.0,0.0,-3.3261,-3.3549,0.0,0.0,-3.2875,-3.2165,0.0,0.0,-3.0595,0.0,0.0,0.0,0.0,0.0,0.0,-3.0494,-3.063,-3.0412,-2.9851,-3.0294,-3.0735,0.0,0.0,-3.1091,-3.2082,0.0,0.0,-3.2968,-3.3568,-3.3807,-3.3807,-3.3807,-3.3807,-3.3807,-3.3807,-3.3807,-3.3807,-3.3807,-3.3807,0.0,-3.3807,0.0,0.0,0.0,0.0,0.0,-3.221,0.0,0.0,0.0,0.0,0.0,0.0,0.0,0.0,0.0,0.0,0.0,0.0,0.0,0.0,0.0,0.0,-2.7087,0.0,0.0,0.0,0.0,0.0,0.0,0.0,-2.7137,-2.7383,-2.7959,-2.7475,-2.7585,-2.862,-2.8675,-2.8767,-2.8987,-2.9005,-2.9005,-2.9005,-3.0026,-3.0815,-3.1415,-3.2449,-3.3238,-3.3807,-3.3807,-3.3807,-3.3807,-3.3807,-3.3807,-3.3917,-3.5349,-3.6083,-3.6431,-3.7826,-3.8505,-3.8707,-3.8707,-3.8707,-3.8707,-2.6528,-2.6528,0.0,0.0,0.0,0.0,0.0,0.0,0.0,0.0,0.0,0.0,0.0,0.0,0.0,0.0,0.0,-3.3185,-3.3692,0.0,-3.0687,0.0,0.0,-3.1035,0.0,0.0,0.0,0.0,0.0,-3.0215,-3.0178,-3.0203,-3.1048,0.0,0.0,-3.2228,-3.366,-3.2913,-3.3041,-3.3752,-3.3788,-3.3807,-3.3807,0.0,-3.3807,-3.3807,-3.3807,0.0,0.0,-3.3807,-3.3807,-3.3807,0.0,0.0,0.0,0.0,0.0,0.0,0.0,0.0,0.0,-3.3715,0.0,0.0,0.0,0.0,-3.2289,0.0,0.0,0.0,0.0,0.0,0.0,0.0,0.0,0.0,0.0,0.0,0.0,0.0,0.0,0.0,0.0,-2.5485,-2.5485,-2.5503,-2.5485,-2.6164,-2.7761,-2.7842,-2.8191,-2.8987,-2.9005,-2.9005,-2.9005,-3.0577,-3.1378,-3.1415,-3.2999,-3.377,-3.3807,-3.3807,-3.3807,-3.3807,-3.3807,-3.3807,-3.3862,-3.4692,-3.5536,-3.6376,-3.7217,-3.8025,-3.8707,-3.8707,-3.8707,-3.8707,0.0,0.0,0.0,0.0,0.0,0.0,0.0,-3.1788,0.0,0.0,0.0,0.0,0.0,-3.7998,-3.7969,0.0,0.0,-3.5206,-3.4628,-3.3587,0.0,0.0,0.0,-3.2852,0.0,0.0,0.0,0.0,0.0,0.0,0.0,0.0,0.0,0.0,0.0,-3.1494,0.0,0.0,0.0,0.0,0.0,-3.4119,-3.4546,0.0,-3.3807,-3.3807,-3.3807,-3.3807,-3.3807,-3.3807,-3.3807,-3.3807,-3.3807,-3.3807,-3.3807,-3.3807,-3.3807,-3.3807,0.0,0.0,-3.3807,-3.3807,0.0,0.0,0.0,0.0,0.0,0.0,0.0,0.0,0.0,0.0,0.0,0.0,0.0,0.0,0.0,0.0,0.0,0.0,0.0,0.0,0.0,0.0,-2.5613,-2.6153,-2.5705,-2.609,-2.7714,-2.7798,-2.8172,-2.8968,-2.9005,-2.9262,-2.9787,-3.0338,-3.1146,-3.221,-3.2761,-3.3293,-3.3775,-3.3522,-3.339,-3.3375,-3.3072,-3.2934,-3.3073,-3.4718,-3.5358,-3.5509,-3.7518,-3.8243,-3.8216,-3.8562,-3.8707,-3.8707,-2.865,0.0,0.0,0.0,0.0,0.0,0.0,0.0,0.0,0.0,-3.7147,0.0,-3.979,0.0,-3.9305,0.0,-3.7802,-3.655,-3.5532,-3.4981,0.0,-3.3421,-3.3917,0.0,0.0,0.0,0.0,0.0,0.0,-3.2326,0.0,0.0,0.0,0.0,0.0,-3.2063,-3.3036,0.0,-3.3036,0.0,0.0,-3.4119,0.0,0.0,-3.3972,-3.4192,0.0,-3.3807,-3.3807,-3.3807,-3.3807,-3.3807,-3.3807,-3.3807,-3.3807,-3.3807,-3.3807,-3.3807,-3.3807,-3.3807,-3.3807,-3.3807,-3.3807,0.0,-3.3146,0.0,0.0,0.0,0.0,0.0,0.0,0.0,0.0,0.0,0.0,0.0,0.0,-2.4735,0.0,0.0,0.0,0.0,0.0,0.0,-2.5319,-2.6117,-2.5429,-2.5686,-2.7291,-2.7365,-2.8007,-2.9372,-2.9427,-2.9812,-3.0613,-3.0907,-3.1574,-3.2601,-3.2757,-3.3086,-3.3564,-3.3151,-3.2952,-3.2937,-3.2632,-3.2501,-3.2606,-3.4235,-3.4864,-3.4995,-3.694,-3.7694,-3.7755,-3.8433,-3.8707,-3.8707,0.0,0.0,0.0,0.0,-2.9831,0.0,0.0,0.0,-3.5408,0.0,-3.8505,-3.9955,-4.001,-3.9974,-3.9937,-3.99,-3.8465,-3.7217,-3.6413,-3.6358,0.0,0.0,-3.4215,-3.4289,-3.2748,0.0,0.0,0.0,0.0,0.0,0.0,0.0,0.0,0.0,-3.3752,0.0,-3.3807,-3.3807,-3.3807,-3.3807,-3.3807,-3.3825,-3.3862,-3.3825,-3.4289,-3.4894,-3.41,-3.3807,-3.3807,-3.3807,-3.3807,-3.3807,-3.3807,-3.3807,-3.3807,-3.3807,-3.3807,-3.3807,-3.3807,-3.3807,-3.3807,-3.3807,-3.3807,0.0,0.0,0.0,-3.4,0.0,0.0,0.0,0.0,0.0,0.0,0.0,0.0,0.0,0.0,0.0,0.0,0.0,0.0,0.0,0.0,-2.4657,-2.4565,-2.5338,-2.4695,-2.4961,0.0,-2.6657,-2.775,-3.0136,-3.0222,-3.0626,-3.1427,-3.2159,-3.2567,-3.2604,-3.2969,-3.3169,-3.3154,-3.2681,-3.2467,-3.2467,-3.2451,-3.2434,-3.2505,-3.3299,-3.4058,-3.4818,-3.5649,-3.6463,-3.7322,-3.8269,-3.8627,-3.8627,-3.021,-3.0687,-3.1403,0.0,-3.2234,-3.2307,0.0,0.0,0.0,0.0,-4.0047,-4.102,-4.1625,-4.1148,-4.0561,-3.9937,-3.8982,0.0,0.0,0.0,0.0,-3.5404,-3.5133,-3.4821,-3.4399,-3.4601,0.0,-3.3495,0.0,0.0,-3.3476,0.0,0.0,0.0,0.0,0.0,-3.3807,-3.3807,-3.3807,-3.3807,-3.3807,-3.4174,-3.4619,0.0,-3.4289,-3.4894,-3.41,-3.3807,-3.3807,-3.3807,-3.3807,-3.3807,-3.3807,-3.3807,-3.3807,-3.3807,-3.3807,-3.3807,-3.3807,-3.3807,-3.3807,-3.3807,-3.3807,-3.3721,-3.3419,0.0,0.0,0.0,0.0,0.0,0.0,0.0,0.0,0.0,0.0,0.0,0.0,0.0,0.0,-2.4029,0.0,0.0,0.0,-2.4498,-2.491,-2.5364,-2.5209,-2.5797,-2.7402,-2.7493,-2.8319,-3.0136,-3.0483,-3.1039,-3.1832,-3.1706,-3.1931,-3.2539,-3.264,-3.2681,-3.2665,-3.2196,-3.1969,-3.1951,-3.1658,-3.1524,-3.1665,-3.3354,-3.3937,-3.3988,-3.6059,-3.6996,-3.7229,-3.7487,-3.7578,-3.7632,-3.1256,0.0,0.0,-3.416,0.0,0.0,-3.4816,-3.6285,0.0,-3.9203,-4.0396,0.0,-4.1735,-4.1056,-4.0396,-3.9937,-3.9166,0.0,-3.8046,0.0,0.0,-3.6868,-3.6028,-3.5389,-3.5023,-3.4656,0.0,-3.3807,0.0,0.0,-3.3788,0.0,0.0,0.0,0.0,-3.3385,0.0,-3.3807,-3.3807,-3.3807,-3.3807,-3.4082,0.0,-3.3972,-3.4082,-3.4417,-3.3972,-3.3807,-3.3807,-3.3807,-3.3807,-3.3807,-3.3807,-3.3807,-3.3807,-3.3807,-3.3807,-3.3807,-3.3807,-3.3807,-3.3807,-3.3807,-3.3666,-3.348,-3.3258,-3.3045,-3.2995,0.0,-3.2928,-3.2613,0.0,0.0,0.0,0.0,0.0,0.0,0.0,0.0,0.0,0.0,-2.4139,0.0,-2.3324,-2.4544,-2.5319,-2.5196,-2.5332,-2.5944,-2.72,0.0,-2.8686,-3.065,-3.1618,-3.224,-3.2516,-3.2614,-3.259,-3.2501,-3.2299,-3.2179,-3.2179,-3.1733,-3.1545,-3.1526,-3.131,-3.1376,-3.1788,-3.3245,-3.385,-3.4062,-3.5825,-3.6501,-3.6501,-3.6501,-3.6786,-3.7229,0.0,0.0,0.0,0.0,0.0,0.0,0.0,-3.7808,0.0,-3.9001,0.0,-4.1058,-4.0948,-4.0322,-3.9845,-3.9753,0.0,-3.8707,-3.8707,-3.8707,-3.834,-3.7529,-3.674,-3.5899,-3.5023,-3.4307,0.0,0.0,0.0,0.0,0.0,0.0,0.0,0.0,0.0,0.0,0.0,-3.3807,-3.3807,-3.3807,-3.3807,-3.3807,-3.3807,-3.3807,-3.3807,-3.3807,-3.3807,-3.3807,-3.3807,-3.3807,-3.3807,-3.3807,-3.3807,-3.3762,-3.3721,-3.3721,-3.3721,-3.3721,-3.3721,-3.3762,-3.3793,-3.3734,-3.3465,-3.3169,-3.3045,-3.2697,-3.2611,-3.3316,-3.2859,-3.2595,-3.3385,0.0,0.0,0.0,0.0,0.0,0.0,0.0,0.0,0.0,0.0,0.0,0.0,-2.4569,-2.5488,-2.4881,-2.5099,-2.5685,-2.6651,0.0,-2.8964,-3.1342,-3.2852,-3.3502,-3.3252,-3.3735,-3.3459,-3.2457,-3.1967,-3.1716,-3.1715,-3.1351,-3.119,-3.1207,-3.1292,-3.1718,-3.2361,-3.3203,-3.3981,-3.4709,-3.5346,-3.56,-3.56,-3.56,-3.6186,-3.7001,0.0,0.0,0.0,0.0,0.0,-3.7511,-3.8175,-3.8524,-3.9184,-4.0508,-4.093,-4.0855,-4.0175,-3.9974,-3.9625,-3.8964,-3.8781,0.0,0.0,0.0,0.0,-3.7529,-3.674,-3.5899,-3.5023,-3.4857,-3.4454,0.0,0.0,0.0,0.0,0.0,0.0,0.0,0.0,0.0,-3.3807,-3.3807,0.0,-3.3807,-3.3807,-3.3807,-3.3807,-3.3807,-3.3807,-3.3807,-3.3807,-3.3807,-3.3807,-3.3807,-3.3807,-3.3807,-3.3807,-3.3564,-3.3302,-3.3302,-3.3302,-3.3302,-3.3302,-3.355,-3.3721,-3.3375,-3.3258,-3.2999,-3.223,-3.1969,-3.1967,-3.2107,-3.1744,-3.1673,-3.2543,-3.1669,0.0,0.0,0.0,0.0,0.0,0.0,0.0,0.0,0.0,-2.4771,0.0,0.0,-2.4387,-2.4491,-2.4533,-2.5345,-2.7079,0.0,-2.9301,0.0,-3.2259,-3.2983,-3.3522,-3.2348,-3.195,-3.2332,-3.164,-3.131,-3.131,-3.123,-3.119,-3.1224,-3.1853,-3.2175,-3.2395,-3.3766,-3.4742,-3.5414,-3.5549,-3.56,-3.56,-3.56,-3.5717,-3.5924,0.0,0.0,0.0,0.0,0.0,0.0,0.0,-3.8964,-3.8982,-3.9738,-3.9863,-3.9717,-3.9313,-3.9276,-3.9129,-3.8726,-3.8707,-3.8524,-3.8102,-3.8065,-3.7716,-3.6923,-3.6083,0.0,-3.5023,-3.4582,-3.438,-3.4417,0.0,0.0,0.0,0.0,0.0,0.0,0.0,-3.3807,0.0,0.0,0.0,-3.3807,-3.3807,-3.3807,-3.3807,-3.3807,-3.3807,-3.3807,-3.3807,-3.3807,-3.3807,-3.3807,-3.3807,-3.3762,-3.355,-3.3364,-3.3136,-3.2921,-3.2842,-3.2887,-3.3121,-3.3166,-3.3151,-3.3199,-3.284,-3.2366,-3.1897,-3.164,-3.1488,-3.1488,-3.1332,-3.1329,-3.1749,-3.1038,-3.0394,0.0,0.0,0.0,0.0,0.0,0.0,0.0,0.0,0.0,0.0,0.0,0.0,0.0,0.0,0.0,0.0,0.0,-2.9397,0.0,0.0,0.0,-3.3599,-3.2659,-3.2217,-3.2293,-3.1565,-3.119,-3.119,-3.119,-3.119,-3.1241,-3.1989,-3.253,-3.2983,-3.4455,-3.5278,-3.56,-3.56,-3.56,-3.56,-3.56,-3.56,-3.5644,0.0,-3.7327,0.0,0.0,-3.8267,0.0,-3.9551,-3.9111,-3.8762,-3.8927,-3.8817,-3.8707,-3.8707,-3.8707,-3.8707,-3.8707,-3.8542,-3.8175,-3.7547,-3.7345,-3.6886,-3.6064,-3.5371,-3.4931,-3.4747,-3.4105,-3.4119,0.0,0.0,0.0,-3.4729,0.0,0.0,0.0,0.0,0.0,0.0,0.0,-3.3807,-3.3807,-3.3807,-3.3807,-3.3807,-3.3807,-3.3807,-3.3807,-3.3807,-3.3807,-3.3793,-3.3707,-3.368,-3.3625,-3.3302,-3.306,-3.2825,-3.2467,-3.235,-3.2416,-3.2809,-3.2713,-3.2567,-3.284,-3.2349,-3.1789,-3.1696,-3.143,-3.119,-3.119,-3.119,-3.119,-3.119,-3.0734,-3.0345,0.0,0.0,0.0,0.0,0.0,0.0,0.0,0.0,0.0,-2.4052,0.0,0.0,0.0,0.0,0.0,-2.6758,0.0,0.0,0.0,-3.2832,-3.3697,-3.3581,-3.2979,-3.2647,-3.253,-3.1613,-3.1275,-3.1427,-3.1427,-3.1512,-3.1715,-3.2462,-3.3186,-3.3964,-3.5109,-3.56,-3.56,-3.56,-3.56,-3.56,-3.56,-3.56,-3.56,0.0,0.0,0.0,0.0,0.0,-3.8726,-3.8799,-3.8762,-3.8964,-3.968,-3.9148,-3.8707,-3.8707,-3.8707,-3.8707,-3.8707,-3.8028,-3.7584,-3.7492,-3.6831,-3.6028,-3.5169,-3.5041,-3.4656,-3.3935,-3.3844,-3.3844,0.0,0.0,-3.3844,0.0,0.0,0.0,0.0,0.0,-3.3807,-3.3807,-3.3807,-3.3807,-3.3807,-3.3807,-3.3807,-3.3807,-3.3807,-3.3807,-3.3807,-3.3807,-3.3807,-3.3734,-3.3375,-3.3258,-3.3258,-3.3214,-3.2614,-3.1915,-3.1897,-3.1879,-3.1879,-3.1915,-3.2196,-3.2417,-3.2022,-3.1879,-3.1697,-3.1332,-3.123,-3.119,-3.119,-3.119,-3.119,-3.119,-3.114,-3.1089,0.0,0.0,0.0,0.0,0.0,0.0,0.0,0.0,0.0,0.0,-2.4795,0.0,0.0,-2.4228,0.0,0.0,0.0,0.0,-3.0259,-3.1153,-3.2218,-3.3494,-3.2104,-3.2029,-3.3288,-3.1867,-3.1565,-3.2192,-3.2192,-3.2544,-3.3237,-3.3964,-3.4709,-3.5397,-3.5532,-3.56,-3.56,-3.56,-3.56,-3.56,-3.56,-3.56,-3.56,0.0,0.0,0.0,0.0,0.0,0.0,0.0,-3.8707,-3.8817,-3.9148,-3.8909,-3.8707,-3.8707,-3.8707,-3.8707,-3.8707,-3.797,-3.7309,-3.6813,-3.5991,-3.5151,-3.4321,-3.427,-3.4137,-3.3807,-3.3807,-3.4045,0.0,0.0,0.0,0.0,0.0,-3.4266,-3.3807,-3.3807,-3.3807,-3.3807,-3.3807,-3.3807,-3.3807,-3.3807,-3.3807,-3.3807,-3.3807,-3.3807,-3.3807,-3.3807,-3.3807,-3.3734,-3.3332,-3.3199,-3.3105,-3.2533,-3.2109,-3.1752,-3.1507,-3.1449,-3.1488,-3.1734,-3.1751,-3.1732,-3.1789,-3.1621,-3.1408,-3.1249,-3.119,-3.119,-3.119,-3.119,-3.119,-3.119,-3.119,-3.119,-3.119,0.0,0.0,0.0,0.0,0.0,0.0,0.0,0.0,0.0,0.0,0.0,0.0,0.0,0.0,0.0,0.0,0.0,-2.9498,0.0,-3.2127,-3.319,-3.2308,-3.2594,-3.4049,-3.3017,-3.2662,-3.2949,-3.2949,-3.3355,-3.4083,-3.437,-3.4928,-3.56,-3.56,-3.56,-3.56,-3.56,-3.56,-3.56,-3.56,-3.56,-3.56,-3.8707,0.0,-3.8707,0.0,-3.8707,-3.8707,-3.8707,-3.8707,-3.8707,-3.8707,-3.8707,-3.8707,-3.8707,-3.8707,-3.8707,-3.8707,-3.797,-3.7254,-3.6703,-3.561,-3.4857,-3.4541,-3.4284,0.0,-3.4523,-3.4284,-3.4417,-3.5004,-3.5004,0.0,0.0,-3.5298,-3.4692,-3.4137,-3.3917,-3.3807,-3.3807,-3.3807,-3.3807,-3.3807,-3.3807,-3.3807,-3.3807,-3.3807,-3.3807,-3.3807,-3.3807,-3.3721,-3.3564,-3.3136,-3.2903,-3.2663,-3.2004,-3.1733,-3.1565,-3.1291,-3.119,-3.1252,-3.1564,-3.1411,-3.1271,-3.1547,-3.1411,-3.119,-3.119,-3.119,-3.119,-3.119,-3.119,-3.119,-3.119,-3.119,-3.119,-3.119,0.0,0.0,0.0,-3.1004,0.0,0.0,-2.8807,-2.8129,-2.6843,-2.6234,0.0,0.0,0.0,0.0,0.0,0.0,-2.8757,-2.9366,-3.0731,-3.1944,-3.2965,-3.2517,-3.3038,-3.4489,-3.3744,-3.3508,-3.3728,-3.3964,-3.4336,-3.4827,-3.4827,-3.5131,-3.56,-3.56,-3.56,-3.56,-3.56,-3.56,-3.56,-3.56,-3.56,-3.56,-3.8707,-3.8707,-3.8707,-3.8707,-3.8707,-3.8707,-3.8707,-3.8707,-3.8707,-3.8707,-3.8707,-3.8707,-3.8707,-3.8707,-3.8707,-3.8707,-3.797,-3.7492,-3.7492,-3.5922,-3.5371,0.0,0.0,-3.5389,-3.6248,-3.5426,-3.5004,-3.5004,0.0,0.0,-3.5023,-3.5004,-3.5004,-3.4949,-3.4156,-3.3807,-3.3807,-3.3807,-3.3807,-3.3807,-3.3807,-3.3807,-3.3807,-3.3807,-3.3807,-3.3807,-3.3807,-3.3536,-3.3139,-3.2665,-3.2196,-3.1808,-3.1789,-3.1526,-3.121,-3.119,-3.119,-3.119,-3.121,-3.121,-3.119,-3.121,-3.121,-3.119,-3.119,-3.119,-3.119,-3.119,-3.119,-3.119,-3.119,-3.119,-3.119,-3.119,0.0,0.0,0.0,0.0,0.0,0.0,-2.8298,-2.7519,-2.6776,-2.6691,0.0,0.0,0.0,0.0,0.0,0.0,-2.8921,-3.0055,-3.0436,-3.1337,-3.289,-3.2497,-3.3038,-3.4489,-3.3744,-3.3778,-3.4506,-3.525,-3.5583,-3.5583,-3.5583,-3.5583,-3.56,-3.56,-3.56,-3.56,-3.56,-3.56,-3.56,-3.56,-3.56,-3.56,-3.8707,-3.8707,-3.8707,-3.8707,-3.8707,-3.8707,-3.8707,-3.8707,-3.8707,-3.8707,-3.8707,-3.8707,-3.8707,-3.8707,-3.8707,0.0,-3.797,-3.7492,0.0,-3.6486,-3.6009,-3.6285,-3.6028,-3.6028,-3.6285,-3.6028,-3.5899,-3.5899,0.0,-3.6688,-3.6688,-3.6138,-3.5573,-3.4954,-3.4174,-3.3807,-3.3807,-3.3807,-3.3807,-3.3807,-3.3807,-3.3807,-3.3807,-3.3807,-3.3807,-3.3762,-3.3494,-3.3302,-3.3075,-3.2281,-3.1915,-3.1752,-3.147,-3.131,-3.119,-3.119,-3.119,-3.119,-3.119,-3.119,-3.119,-3.119,-3.119,-3.119,-3.119,-3.119,-3.119,-3.119,-3.119,-3.119,-3.119,-3.119,-3.119,-3.119,-3.119,0.0,-3.119,0.0,-3.0581,0.0,-2.9533,-2.9277,-2.9042,-2.806,0.0,0.0,0.0,0.0,0.0,-2.8867,-2.95,-2.9351,-3.0422,-3.1489,-3.2497,-3.2863,-3.3795,-3.5245,-3.5008,-3.5008,-3.5267,-3.5481,-3.56,-3.56,-3.56,-3.56,-3.56,-3.56,-3.56,-3.56,-3.56,-3.56,-3.56,-3.56,-3.56,-3.56,-3.8707,-3.8707,-3.8707,-3.8707,-3.8707,-3.8707,-3.8707,-3.8707,-3.8707,-3.8707,-3.8707,-3.8707,-3.8707,-3.8707,-3.8707,-3.8707,-3.823,-3.7936,-3.7936,-3.7199,-3.689,-3.7184,-3.6909,-3.689,-3.7184,-3.6923,-3.6758,-3.6758,-3.696,-3.7199,-3.7474,-3.667,-3.5844,-3.4986,-3.4472,-3.4082,-3.3807,-3.3807,-3.3807,-3.3807,-3.3807,-3.3807,-3.3807,-3.3807,-3.3807,-3.3748,-3.3346,-3.3075,-3.2825,-3.2057,-3.1715,-3.1545,-3.1271,-3.119,-3.119,-3.119,-3.119,-3.119,-3.119,-3.119,-3.119,-3.119,-3.119,-3.119,-3.119,-3.119,-3.119,-3.119,-3.119,-3.119,-3.119,-3.119,-3.119,-3.119,-3.119,-3.1106,-3.0835,0.0,-3.0818,0.0,0.0,-2.9989,-2.9702,-2.8822,-2.8467,0.0,0.0,0.0,0.0,-2.9313,-2.9719,-2.9822,-3.099,-3.1972,-3.2716,-3.344,-3.4421,-3.56,-3.56,-3.56,-3.56,-3.56,-3.56,-3.56,-3.56,-3.56,-3.56,-3.56,-3.56,-3.56,-3.56,-3.56,-3.56,-3.56,-3.56,-3.56,-3.8707,-3.8707,-3.8707,-3.8707,-3.8707,-3.8707,-3.8707,-3.8707,-3.8707,-3.8707,-3.8707,-3.8707,-3.8707,-3.8707,-3.8707,-3.8707,-3.8707,-3.8707,-3.8707,-3.7936,-3.786,-3.867,-3.7933,-3.7878,-3.8689,-3.797,-3.7584,-3.7584,-3.6831,-3.6835,-3.7566,-3.6762,-3.5917,-3.5096,-3.5041,-3.4546,-3.3807,-3.3807,-3.3807,-3.3807,-3.3807,-3.3807,-3.3807,-3.3807,-3.3807,-3.3734,-3.3302,-3.2874,-3.2434,-3.1933,-3.1507,-3.119,-3.119,-3.119,-3.119,-3.119,-3.119,-3.119,-3.119,-3.119,-3.119,-3.119,-3.119,-3.119,-3.119,-3.119,-3.119,-3.119,-3.119,-3.119,-3.119,-3.119,-3.119,-3.119,-3.1157,-3.0903,-3.0277,-3.0717,-3.0632,0.0,0.0,-2.9905,-2.9213,-2.9111,-2.9077,0.0,0.0,0.0,0.0,-2.9517,-2.9805,-3.1224,-3.1938,-3.2682,-3.3474,-3.415,-3.4878,-3.56,-3.56,-3.56,-3.56,-3.56,-3.56,-3.56,-3.56,-3.56,-3.56,-3.56,-3.56,-3.56,-3.56,-3.56,-3.56,-3.56,-3.56,-3.56,-3.8707,-3.8707,-3.8707,-3.8707,-3.8707,-3.8707,-3.8707,-3.8707,-3.8707,-3.8707,-3.8707,-3.8707,-3.8707,-3.8707,-3.8707,-3.8707,-3.8707,-3.8707,-3.8707,-3.7936,-3.786,-3.867,-3.7933,-3.7878,-3.8689,-3.8505,-3.8414,-3.8414,-3.823,-3.823,-3.8395,-3.7603,-3.6795,-3.5973,-3.5298,-3.4546,-3.3807,-3.3807,-3.3807,-3.3807,-3.3807,-3.3807,-3.3807,-3.3807,-3.3807,-3.3707,-3.2934,-3.2599,-3.2384,-3.1601,-3.1271,-3.119,-3.119,-3.119,-3.119,-3.119,-3.119,-3.119,-3.119,-3.119,-3.119,-3.119,-3.119,-3.119,-3.119,-3.119,-3.119,-3.119,-3.119,-3.119,-3.119,-3.119,-3.119,-3.119,-3.0734,-3.0497,-3.0886,-3.0615,-3.0446,0.0,-3.0818,-3.0869,-3.0702,-3.0159,-2.9837,0.0,0.0,-2.9499,-3.0074,-3.0463,-3.1108,-3.2005,-3.2209,-3.2919,-3.4218,-3.4404,-3.4878,-3.56,-3.56,-3.56,-3.56,-3.56,-3.56,-3.56,-3.56,-3.56,-3.56,-3.56,-3.56,-3.56,-3.56,-3.56,-3.56,-3.56,-3.56,-3.56,-3.8707,-3.8707,-3.8707,-3.8707,-3.8707,-3.8707,-3.8707,-3.8707,-3.8707,-3.8707,-3.8707,-3.8707,-3.8707,-3.8707,-3.8707,-3.8707,-3.8707,-3.8707,-3.8707,-3.8285,-3.823,-3.8689,-3.8285,-3.8248,-3.8689,-3.8707,-3.8707,-3.8707,-3.7955,-3.7606,-3.7588,-3.6743,-3.5936,-3.5147,-3.5041,-3.4462,-3.3536,-3.3721,-3.3578,-3.324,-3.3634,-3.3694,-3.355,-3.3734,-3.3694,-3.3451,-3.2745,-3.2367,-3.2092,-3.1428,-3.119,-3.119,-3.119,-3.119,-3.119,-3.119,-3.119,-3.119,-3.119,-3.119,-3.119,-3.119,-3.119,-3.119,-3.119,-3.119,-3.119,-3.119,-3.119,-3.119,-3.119,-3.119,-3.1089,-3.0751,-3.0362,-3.0125,-3.0176,-3.0142,-3.026,-3.0649,-3.0987,-3.119,-3.119,-3.0835,-3.0598,-3.0598,-3.0226,-3.0328,-3.1072,-3.1478,-3.1887,-3.2293,-3.2953,-3.3698,-3.4489,-3.4827,-3.5194,-3.56,-3.56,-3.56,-3.56,-3.56,-3.56,-3.56,-3.56,-3.56,-3.56,-3.56,-3.56,-3.56,-3.56,-3.56,-3.56,-3.56,-3.56,-3.56,-3.8465,-3.8465,-3.8499,-3.8562,-3.8578,-3.8611,-3.8692,-3.8707,-3.8707,-3.8707,-3.8707,-3.8707,-3.8707,-3.8707,-3.8707,-3.8707,-3.8707,-3.8707,-3.8707,-3.8597,-3.8579,-3.8689,-3.8579,-3.8579,-3.8707,-3.8707,-3.8652,-3.8524,-3.7147,-3.6413,-3.6285,-3.5536,-3.4766,-3.4009,-3.4692,-3.4331,-3.3229,-3.3564,-3.324,-3.2567,-3.3299,-3.3433,-3.3243,-3.3578,-3.3494,-3.3154,-3.2665,-3.2196,-3.1734,-3.1332,-3.119,-3.119,-3.119,-3.119,-3.119,-3.119,-3.119,-3.119,-3.119,-3.119,-3.119,-3.119,-3.119,-3.119,-3.119,-3.119,-3.119,-3.119,-3.119,-3.119,-3.119,-3.119,-3.1004,-3.0378,-3.0176,-2.9922,-2.9399,-2.9786,-3.0142,-3.026,-3.0818,-3.1241,-3.1362,-3.136,-3.141,-3.1512,-3.1529,-3.1799,-3.2429,-3.2564,-3.2632,-3.2632,-3.385,-3.4539,-3.4658,-3.5301,-3.56,-3.56,-3.56,-3.56,-3.56,-3.56,-3.56,-3.56,-3.56,-3.56,-3.56,-3.56,-3.56,-3.56,-3.56,-3.56,-3.56,-3.56,-3.56,-3.56,-3.7433,-3.7433,-3.756,-3.7946,-3.8013,-3.8183,-3.8627,-3.8707,-3.8707,-3.8707,-3.8707,-3.8707,-3.8707,-3.8707,-3.8707,-3.8707,-3.8707,-3.8707,-3.8707,-3.8046,-3.7988,-3.867,-3.8046,-3.7991,-3.8689,-3.8707,-3.8377,-3.7694,-3.7437,-3.6978,-3.6303,-3.6156,-3.5642,-3.4821,-3.4949,-3.4331,-3.3199,-3.3273,-3.2999,-3.2517,-3.2648,-3.2887,-3.3214,-3.3273,-3.3258,-3.3154,-3.2665,-3.2196,-3.1734,-3.1332,-3.119,-3.119,-3.119,-3.119,-3.119,-3.119,-3.119,-3.119,-3.119,-3.119,-3.119,-3.119,-3.119,-3.119,-3.119,-3.119,-3.119,-3.119,-3.119,-3.119,-3.119,-3.119,-3.1157,-3.1055,-3.0514,-3.0277,-3.0784,-3.0429,-3.0345,-3.0954,-3.1123,-3.1427,-3.2073,-3.2141,-3.2395,-3.3017,-3.3068,-3.3119,-3.322,-3.3812,-3.415,-3.415,-3.437,-3.4793,-3.5414,-3.5532,-3.56,-3.56,-3.56,-3.56,-3.56,-3.56,-3.56,-3.56,-3.56,-3.56,-3.56,-3.56,-3.56,-3.56,-3.56,-3.56,-3.56,-3.56,-3.56,-3.56,-3.7248,-3.7209,-3.7341,-3.7807,-3.7893,-3.8082,-3.8627,-3.8707,-3.8707,-3.8707,-3.8707,-3.8707,-3.8707,-3.8707,-3.8707,-3.8707,-3.8707,-3.8707,-3.8707,-3.8358,-3.8303,-3.8689,-3.834,-3.8322,-3.8689,-3.8267,-3.7878,-3.7492,-3.6597,-3.5973,-3.5591,-3.5165,-3.4743,-3.4344,-3.4344,-3.3778,-3.284,-3.309,-3.2665,-3.1841,-3.2299,-3.2484,-3.2466,-3.2729,-3.2681,-3.2416,-3.2196,-3.1842,-3.1449,-3.1252,-3.119,-3.119,-3.119,-3.119,-3.119,-3.119,-3.119,-3.119,-3.119,-3.119,-3.119,-3.119,-3.119,-3.119,-3.119,-3.119,-3.119,-3.119,-3.119,-3.119,-3.119,-3.119,-3.1072,-3.0666,-3.0328,-3.0226,-3.0565,-3.0311,-3.0378,-3.1106,-3.1565,-3.1938,-3.2276,-3.2666,-3.3034,-3.3372,-3.3406,-3.3575,-3.3964,-3.432,-3.4675,-3.5081,-3.5098,-3.5267,-3.56,-3.56,-3.56,-3.56,-3.56,-3.56,-3.56,-3.56,-3.56,-3.56,-3.56,-3.56,-3.56,-3.56,-3.56,-3.56,-3.56,-3.56,-3.56,-3.56,-3.56,-3.56,-3.6904,-3.6825,-3.6981,-3.747,-3.7542,-3.7773,-3.8417,-3.8512,-3.8562,-3.8673,-3.8707,-3.8707,-3.8707,-3.8707,-3.8707,-3.8707,-3.8707,-3.8707,-3.8707,-3.8707,-3.8707,-3.8707,-3.8707,-3.8707,-3.8707,-3.7915,-3.7419,-3.7217,-3.572,-3.4912,-3.4711,-3.41,-3.3807,-3.3807,-3.3707,-3.3225,-3.2517,-3.2777,-3.223,-3.1269,-3.1932,-3.2039,-3.1843,-3.2196,-3.2109,-3.1807,-3.1807,-3.1528,-3.119,-3.119,-3.119,-3.119,-3.119,-3.119,-3.119,-3.119,-3.119,-3.119,-3.119,-3.119,-3.119,-3.119,-3.119,-3.119,-3.119,-3.119,-3.119,-3.119,-3.119,-3.119,-3.119,-3.119,-3.1004,-3.0446,-3.0362,-3.0362,-3.0362,-3.0362,-3.0632,-3.136,-3.1955,-3.2429,-3.2784,-3.3322,-3.3728,-3.3914,-3.3914,-3.4167,-3.4726,-3.4759,-3.503,-3.5583,-3.56,-3.56,-3.56,-3.56,-3.56,-3.56,-3.56,-3.56,-3.56,-3.56,-3.56,-3.56,-3.56,-3.56,-3.56,-3.56,-3.56,-3.56,-3.56,-3.56,-3.56,-3.56,-3.56,-3.56,-3.5717,-3.5717,-3.5898,-3.6416,-3.6519,-3.6845,-3.7807,-3.7963,-3.815,-3.8627,-3.8707,-3.8707,-3.8707,-3.8707,-3.8707,-3.8707,-3.8707,-3.8707,-3.8707,-3.8707,-3.8707,-3.8707,-3.8707,-3.8707,-3.8707,-3.7915,-3.7125,-3.6376,-3.5463,-3.4619,-3.3899,-3.3825,-3.3807,-3.3775,-3.3404,-3.2968,-3.2467,-3.2074,-3.164,-3.121,-3.1269,-3.1488,-3.1789,-3.1843,-3.1843,-3.1807,-3.1807,-3.1528,-3.119,-3.119,-3.119,-3.119,-3.119,-3.119,-3.119,-3.119,-3.119,-3.119,-3.119,-3.119,-3.119,-3.119,-3.119,-3.119,-3.119,-3.119,-3.119,-3.119,-3.119,-3.119,-3.119,-3.119,-3.1173,-3.1123,-3.1123,-3.1123,-3.1123,-3.1123,-3.1376,-3.2141,-3.2276,-3.2835,-3.4201,-3.4387,-3.4709,-3.538,-3.543,-3.5464,-3.5515,-3.5515,-3.5532,-3.56,-3.56,-3.56,-3.56,-3.56,-3.56,-3.56,-3.56,-3.56,-3.56,-3.56,-3.56,-3.56,-3.56,-3.56,-3.56,-3.56,-3.56,-3.56,-3.56,-3.56,-3.56,-3.56,-3.56,-3.56,-3.5667,-3.56,-3.5783,-3.6308,-3.6395,-3.6643,-3.736,-3.747,-3.7632,-3.815,-3.7947,-3.7878,-3.8167,-3.82,-3.82,-3.82,-3.8496,-3.8707,-3.8707,-3.8382,-3.835,-3.8692,-3.8707,-3.8707,-3.8707,-3.7915,-3.7107,-3.6303,-3.5426,-3.4582,-3.3788,-3.3536,-3.3437,-3.3404,-3.295,-3.2517,-3.2039,-3.1879,-3.1565,-3.119,-3.119,-3.1291,-3.143,-3.143,-3.143,-3.143,-3.143,-3.1332,-3.119,-3.119,-3.119,-3.119,-3.119,-3.1495,-3.1887,-3.1887,-3.1546,-3.119,-3.119,-3.119,-3.119,-3.119,-3.1529,-3.1887,-3.1887,-3.2239,-3.256,-3.256,-3.256,-3.2425,-3.1972,-3.1887,-3.1735,-3.1258,-3.119,-3.119,-3.119,-3.119,-3.1461,-3.2209,-3.2696,-3.3372,-3.4387,-3.4912,-3.5295,-3.5583,-3.56,-3.56,-3.56,-3.56,-3.56,-3.56,-3.56,-3.56,-3.56,-3.56,-3.56,-3.56,-3.56,-3.56,-3.56,-3.56,-3.56,-3.56,-3.56,-3.56,-3.56,-3.56,-3.56,-3.56,-3.56,-3.56,-3.56,-3.56,-3.56,-3.56,-3.5672,-3.56,-3.5717,-3.6075,-3.6161,-3.6333,-3.6882,-3.696,-3.7116,-3.7614,-3.7396,-3.7323,-3.7649,-3.7685,-3.7685,-3.7685,-3.8033,-3.8236,-3.8236,-3.7877,-3.7843,-3.8201,-3.8236,-3.8302,-3.8449,-3.7661,-3.697,-3.644,-3.5568,-3.4783,-3.4068,-3.3558,-3.3326,-3.3311,-3.2855,-3.2476,-3.217,-3.2021,-3.181,-3.1532,-3.1275,-3.119,-3.119,-3.119,-3.119,-3.119,-3.119,-3.119,-3.119,-3.119,-3.1343,-3.1565,-3.1565,-3.2056,-3.2666,-3.2666,-3.2273,-3.1884,-3.1884,-3.1884,-3.1833,-3.1596,-3.1938,-3.2361,-3.2598,-3.3034,-3.3406,-3.3406,-3.3406,-3.3254,-3.273,-3.2666,-3.2476,-3.1968,-3.1884,-3.1884,-3.1884,-3.1884,-3.2154,-3.2903,-3.344,-3.4032,-3.4776,-3.5295,-3.56,-3.56,-3.56,-3.56,-3.56,-3.56,-3.56,-3.56,-3.56,-3.56,-3.56,-3.56,-3.56,-3.56,-3.56,-3.56,-3.56,-3.56,-3.56,-3.56,-3.56,-3.56,-3.56,-3.56,-3.56,-3.56,-3.56,-3.56,-3.56,-3.56,-3.56,-3.56,-3.56,-3.56,-3.56,-3.56,-3.56,-3.5783,-3.6291,-3.6395,-3.66,-3.7116,-3.7173,-3.7173,-3.7192,-3.7192,-3.7192,-3.7192,-3.7209,-3.7209,-3.7192,-3.7192,-3.7173,-3.719,-3.7209,-3.7415,-3.7876,-3.7102,-3.6705,-3.6705,-3.5894,-3.5233,-3.4676,-3.3952,-3.3599,-3.3599,-3.3171,-3.3002,-3.2964,-3.2514,-3.231,-3.2242,-3.1495,-3.1207,-3.1207,-3.119,-3.119,-3.1207,-3.1207,-3.1207,-3.1207,-3.1207,-3.1698,-3.231,-3.2327,-3.2814,-3.3406,-3.3406,-3.3406,-3.3406,-3.3406,-3.3406,-3.322,-3.2496,-3.231,-3.2513,-3.3237,-3.3423,-3.3423,-3.3423,-3.3423,-3.3423,-3.3423,-3.3406,-3.3406,-3.3406,-3.3406,-3.3406,-3.3406,-3.3406,-3.3677,-3.4404,-3.4489,-3.4793,-3.5515,-3.56,-3.56,-3.56,-3.56,-3.56,-3.56,-3.56,-3.56,-3.56,-3.56,-3.56,-3.56,-3.56,-3.56,-3.56,-3.56,-3.56,-3.56,-3.56,-3.56,-3.56,-3.56,-3.56,-3.56,-3.56,-3.56,-3.56,-3.56,-3.56,-3.56,-3.56,-3.56,-3.5616,-3.56,-3.56,-3.56,-3.56,-3.56,-3.565,-3.581,-3.5832,-3.6032,-3.658,-3.6312,-3.6228,-3.6603,-3.6643,-3.6643,-3.6643,-3.6981,-3.7057,-3.6664,-3.6643,-3.646,-3.6079,-3.6786,-3.7284,-3.7396,-3.7165,-3.6755,-3.6132,-3.5901,-3.5403,-3.4694,-3.419,-3.3954,-3.3935,-3.3465,-3.3278,-3.3278,-3.313,-3.3068,-3.3,-3.2276,-3.1972,-3.1921,-3.1393,-3.1512,-3.1972,-3.1972,-3.229,-3.2747,-3.2747,-3.2899,-3.3152,-3.3698,-3.3643,-3.3508,-3.4015,-3.3812,-3.3406,-3.3406,-3.3406,-3.3355,-3.3136,-3.3457,-3.3897,-3.4117,-3.4573,-3.494,-3.494,-3.494,-3.4793,-3.4269,-3.4167,-3.3998,-3.3491,-3.3406,-3.3406,-3.3406,-3.3406,-3.3677,-3.4404,-3.4489,-3.4793,-3.5515,-3.56,-3.56,-3.56,-3.56,-3.56,-3.56,-3.56,-3.56,-3.56,-3.56,-3.56,-3.56,-3.56,-3.56,-3.56,-3.56,-3.56,-3.56,-3.56,-3.56,-3.56,-3.56,-3.56,-3.56,-3.56,-3.56,-3.56,-3.56,-3.56,-3.5667,-3.6231,-3.6434,-3.6518,-3.56,-3.56,-3.56,-3.56,-3.56,-3.56,-3.56,-3.56,-3.5717,-3.6032,-3.5805,-3.5717,-3.6054,-3.6075,-3.6075,-3.6075,-3.6378,-3.6419,-3.6097,-3.6075,-3.5941,-3.5622,-3.6228,-3.6664,-3.6882,-3.6865,-3.6636,-3.6087,-3.6087,-3.5745,-3.5057,-3.4516,-3.4254,-3.4233,-3.396,-3.3846,-3.3846,-3.3846,-3.3846,-3.3778,-3.3034,-3.273,-3.2679,-3.2239,-3.2341,-3.273,-3.273,-3.3017,-3.3406,-3.3406,-3.3592,-3.3964,-3.4709,-3.4641,-3.437,-3.481,-3.4624,-3.4286,-3.4286,-3.4286,-3.4286,-3.4286,-3.4387,-3.4573,-3.4861,-3.5278,-3.56,-3.56,-3.56,-3.5447,-3.503,-3.4945,-3.4793,-3.4353,-3.4286,-3.4286,-3.4286,-3.4286,-3.4455,-3.4878,-3.4945,-3.5115,-3.5549,-3.56,-3.56,-3.56,-3.56,-3.56,-3.56,-3.56,-3.56,-3.56,-3.56,-3.56,-3.56,-3.56,-3.56,-3.56,-3.56,-3.56,-3.56,-3.56,-3.56,-3.56,-3.56,-3.56,-3.56,-3.56,-3.56,-3.5633,-3.596,-3.6079,-3.618,-3.6941,-3.7229,-3.7297,-3.56,-3.56,-3.56,-3.56,-3.56,-3.56,-3.56,-3.56,-3.56,-3.56,-3.56,-3.56,-3.56,-3.56,-3.56,-3.56,-3.56,-3.56,-3.56,-3.56,-3.56,-3.56,-3.56,-3.5832,-3.6312,-3.6312,-3.6312,-3.6312,-3.6312,-3.6075,-3.5583,-3.4912,-3.459,-3.459,-3.459,-3.459,-3.459,-3.459,-3.459,-3.4523,-3.3795,-3.3508,-3.3491,-3.344,-3.344,-3.3508,-3.3508,-3.3541,-3.3609,-3.3609,-3.4049,-3.4726,-3.538,-3.56,-3.56,-3.56,-3.56,-3.56,-3.56,-3.56,-3.56,-3.56,-3.5115,-3.4776,-3.5447,-3.56,-3.56,-3.56,-3.56,-3.56,-3.56,-3.56,-3.56,-3.56,-3.56,-3.56,-3.56,-3.56,-3.56,-3.56,-3.56,-3.56,-3.56,-3.56,-3.56,-3.56,-3.56,-3.56,-3.56,-3.56,-3.56,-3.56,-3.56,-3.5633,-3.5701,-3.5656,-3.5583,-3.56,-3.56,-3.56,-3.56,-3.5554,-3.5515,-3.5515,-3.5515,-3.5515,-3.5515,-3.5645,-3.5701,-3.5785,-3.6586,-3.685,-3.6888,-3.7624,-3.7894,-3.7911,-3.56,-3.56,-3.56,-3.56,-3.56,-3.56,-3.56,-3.56,-3.56,-3.56,-3.56,-3.56,-3.56,-3.56,-3.56,-3.56,-3.56,-3.56,-3.56,-3.56,-3.56,-3.56,-3.56,-3.565,-3.5783,-3.5783,-3.5783,-3.5783,-3.5783,-3.5717,-3.56,-3.543,-3.5346,-3.5346,-3.5346,-3.5346,-3.5346,-3.5346,-3.5346,-3.5295,-3.4556,-3.4252,-3.4201,-3.3626,-3.3761,-3.4252,-3.4252,-3.4641,-3.5109,-3.5109,-3.5228,-3.538,-3.5549,-3.56,-3.56,-3.56,-3.56,-3.56,-3.56,-3.56,-3.56,-3.56,-3.5481,-3.5397,-3.5566,-3.56,-3.56,-3.56,-3.56,-3.56,-3.56,-3.56,-3.56,-3.56,-3.56,-3.56,-3.56,-3.56,-3.56,-3.56,-3.56,-3.56,-3.56,-3.56,-3.56,-3.56,-3.56,-3.56,-3.56,-3.56,-3.56,-3.56,-3.56,-3.591,-3.6518,-3.5911,-3.5588,-3.56,-3.56,-3.56,-3.5577,-3.5052,-3.4823,-3.4823,-3.4823,-3.4823,-3.4904,-3.6064,-3.6535,-3.6603,-3.7364,-3.7289,-3.6812,-3.7557,-3.7822,-3.7982,-3.56,-3.56,-3.56,-3.56,-3.56,-3.56,-3.56,-3.56,-3.56,-3.56,-3.56,-3.56,-3.56,-3.56,-3.56,-3.56,-3.56,-3.56,-3.56,-3.56,-3.56,-3.56,-3.56,-3.56,-3.56,-3.56,-3.56,-3.56,-3.56,-3.56,-3.56,-3.56,-3.56,-3.56,-3.56,-3.56,-3.56,-3.56,-3.56,-3.5566,-3.5182,-3.503,-3.4979,-3.4607,-3.4692,-3.503,-3.503,-3.5261,-3.56,-3.56,-3.56,-3.56,-3.56,-3.56,-3.56,-3.56,-3.56,-3.56,-3.56,-3.56,-3.56,-3.56,-3.56,-3.56,-3.56,-3.56,-3.56,-3.56,-3.56,-3.56,-3.56,-3.56,-3.56,-3.56,-3.56,-3.56,-3.56,-3.56,-3.56,-3.56,-3.56,-3.56,-3.56,-3.56,-3.56,-3.56,-3.56,-3.56,-3.56,-3.56,-3.5769,-3.6163,-3.618,-3.6366,-3.6795,-3.6356,-3.596,-3.5602,-3.5602,-3.5609,-3.5632,-3.5241,-3.5078,-3.5127,-3.5078,-3.4906,-3.4666,-3.5435,-3.614,-3.676,-3.6803,-3.6997,-3.7255,-3.7671,-3.7794,-3.7926,-3.56,-3.56,-3.56,-3.56,-3.56,-3.56,-3.56,-3.56,-3.56,-3.56,-3.56,-3.56,-3.56,-3.56,-3.56,-3.56,-3.56,-3.56,-3.56,-3.56,-3.56,-3.56,-3.56,-3.56,-3.56,-3.56,-3.56,-3.56,-3.56,-3.56,-3.56,-3.56,-3.56,-3.56,-3.56,-3.56,-3.56,-3.56,-3.56,-3.56,-3.56,-3.56,-3.56,-3.56,-3.56,-3.56,-3.56,-3.56,-3.56,-3.56,-3.56,-3.56,-3.56,-3.56,-3.56,-3.56,-3.56,-3.56,-3.56,-3.56,-3.56,-3.56,-3.56,-3.56,-3.56,-3.56,-3.56,-3.56,-3.56,-3.56,-3.56,-3.56,-3.56,-3.56,-3.56,-3.56,-3.56,-3.56,-3.565,-3.5785,-3.5825,-3.5752,-3.5616,-3.5718,-3.5825,-3.5825,-3.5921,-3.5938,-3.5802,-3.5796,-3.603,-3.6575,-3.6575,-3.6595,-3.6618,-3.6534,-3.6131,-3.5447,-3.5535,-3.5638,-3.5685,-3.5482,-3.544,-3.5491,-3.5456,-3.5104,-3.4606,-3.4843,-3.5643,-3.6663,-3.6232,-3.669,-3.7601,-3.7582,-3.7602,-3.7602,-3.56,-3.56,-3.56,-3.56,-3.56,-3.56,-3.56,-3.56,-3.56,-3.56,-3.56,-3.56,-3.56,-3.56,-3.56,-3.56,-3.56,-3.56,-3.56,-3.56,-3.56,-3.56,-3.56,-3.56,-3.56,-3.56,-3.56,-3.56,-3.56,-3.56,-3.56,-3.56,-3.56,-3.56,-3.56,-3.56,-3.56,-3.56,-3.56,-3.56,-3.56,-3.56,-3.56,-3.56,-3.56,-3.56,-3.56,-3.56,-3.56,-3.56,-3.56,-3.56,-3.56,-3.56,-3.56,-3.56,-3.56,-3.56,-3.56,-3.56,-3.56,-3.56,-3.56,-3.56,-3.56,-3.56,-3.56,-3.56,-3.56,-3.56,-3.56,-3.56,-3.56,-3.56,-3.56,-3.56,-3.56,-3.56,-3.5853,-3.6535,-3.6643,-3.6349,-3.5667,-3.6231,-3.6643,-3.6643,-3.7229,-3.7313,-3.6677,-3.6595,-3.6315,-3.5778,-3.5766,-3.5798,-3.5862,-3.572,-3.5377,-3.4836,-3.5299,-3.554,-3.5609,-3.4927,-3.4644,-3.4672,-3.4644,-3.4587,-3.4605,-3.59,-3.6541,-3.6738,-3.7294,-3.7189,-3.6779,-3.6751,-3.6752,-3.6843,-3.56,-3.56,-3.56,-3.56,-3.56,-3.56,-3.56,-3.56,-3.56,-3.56,-3.56,-3.56,-3.56,-3.56,-3.56,-3.56,-3.56,-3.56,-3.56,-3.56,-3.56,-3.56,-3.56,-3.56,-3.56,-3.56,-3.56,-3.56,-3.56,-3.56,-3.56,-3.56,-3.56,-3.56,-3.56,-3.56,-3.56,-3.56,-3.56,-3.56,-3.56,-3.56,-3.56,-3.56,-3.56,-3.56,-3.56,-3.56,-3.56,-3.56,-3.56,-3.56,-3.56,-3.56,-3.56,-3.56,-3.56,-3.56,-3.56,-3.56,-3.56,-3.56,-3.5943,-3.6265,-3.6265,-3.6603,-3.6631,-3.5769,-3.56,-3.5735,-3.618,-3.591,-3.587,-3.6732,-3.6552,-3.6417,-3.684,-3.6867,-3.7026,-3.7364,-3.7398,-3.7263,-3.6924,-3.7212,-3.7239,-3.6786,-3.7036,-3.692,-3.616,-3.6111,-3.612,-3.6201,-3.6208,-3.6246,-3.6258,-3.6152,-3.578,-3.5146,-3.5401,-3.5538,-3.5595,-3.5202,-3.5084,-3.5114,-3.5055,-3.4848,-3.4562,-3.5196,-3.5922,-3.6599,-3.6118,-3.5968,-3.5975,-3.5975,-3.5975,-3.6038]},{"header":{"parameterUnit":"m.s-1","parameterCategory":1,"la1":30.6,"la2":28.766,"lo1":-90.7593,"lo2":-88.6598,"dy":0.0162,"dx":0.0183,"nx":116,"ny":114,"refTime":"2023-05-08T00:00:00:Z","depth":0,"parameterNumber":3,"parameterNumberName":"V-component_of_WINDS"},"data":[0.0,0.0,0.0,0.0,0.0,0.0,0.0,0.0,0.0,0.0,0.0,0.0,0.0,0.0,0.0,0.0,0.0,0.0,0.0,0.0,0.0,0.0,0.0,0.0,0.0,0.0,0.0,0.0,0.0,0.0,0.0,0.0,0.0,0.0,0.0,0.0,0.0,0.0,0.0,0.0,0.0,0.0,0.0,0.0,0.0,0.0,0.0,0.0,0.0,0.0,0.0,0.0,0.0,0.0,0.0,0.0,0.0,0.0,0.0,0.0,0.0,0.0,0.0,0.0,0.0,0.0,0.0,0.0,0.0,0.0,0.0,0.0,0.0,0.0,0.0,0.0,0.0,0.0,0.0,0.0,0.0,0.0,0.0,0.0,0.0,0.0,0.0,0.0,0.0,0.0,0.0,0.0,0.0,0.0,0.0,0.0,0.0,0.0,0.0,0.0,0.0,0.0,0.0,0.0,0.0,0.0,0.0,0.0,0.0,0.0,0.0,0.0,0.0,0.0,0.0,0.0,0.0,0.0,0.0,0.0,0.0,0.0,0.0,0.0,0.0,0.0,0.0,0.0,0.0,0.0,0.0,0.0,0.0,0.0,0.0,0.0,0.0,0.0,0.0,0.0,0.0,0.0,0.0,0.0,0.0,0.0,0.0,0.0,0.0,0.0,0.0,0.0,0.0,0.0,0.0,0.0,0.0,0.0,0.0,0.0,0.0,0.0,0.0,0.0,0.0,0.0,0.0,0.0,0.0,0.0,0.0,0.0,0.0,0.0,0.0,0.0,0.0,0.0,0.0,0.0,0.0,0.0,0.0,0.0,0.0,0.0,0.0,0.0,0.0,0.0,0.0,0.0,0.0,0.0,0.0,0.0,0.0,0.0,0.0,0.0,0.0,0.0,0.0,0.0,0.0,0.0,0.0,0.0,0.0,0.0,0.0,0.0,0.0,0.0,0.0,0.0,0.0,0.0,0.0,0.0,0.0,0.0,0.0,0.0,0.0,0.0,0.0,0.0,0.0,0.0,0.0,0.0,0.0,0.0,0.0,0.0,0.0,0.0,0.0,0.0,0.0,0.0,0.0,0.0,0.0,0.0,0.0,0.0,0.0,0.0,0.0,0.0,0.0,0.0,0.0,0.0,0.0,0.0,0.0,0.0,0.0,0.0,0.0,0.0,0.0,0.0,0.0,0.0,0.0,0.0,0.0,0.0,0.0,0.0,0.0,0.0,0.0,0.0,0.0,0.0,0.0,0.0,0.0,0.0,0.0,0.0,0.0,0.0,0.0,0.0,0.0,0.0,0.0,0.0,0.0,0.0,0.0,0.0,0.0,0.0,0.0,0.0,0.0,0.0,0.0,0.0,0.0,0.0,0.0,0.0,0.0,0.0,0.0,0.0,0.0,0.0,0.0,0.0,0.0,0.0,0.0,0.0,0.0,0.0,0.0,0.0,0.0,0.0,0.0,0.0,0.0,0.0,0.0,0.0,0.0,0.0,0.0,0.0,0.0,0.0,0.0,0.0,0.0,0.0,0.0,0.0,0.0,0.0,0.0,0.0,0.0,0.0,0.0,0.0,0.0,0.0,0.0,0.0,0.0,0.0,0.0,0.0,0.0,0.0,0.0,0.0,0.0,0.0,0.0,0.0,0.0,0.0,0.0,0.0,0.0,0.0,0.0,0.0,0.0,0.0,0.0,0.0,0.0,0.0,0.0,0.0,0.0,0.0,0.0,0.0,0.0,0.0,0.0,0.0,0.0,0.0,0.0,0.0,0.0,0.0,0.0,0.0,0.0,0.0,0.0,0.0,0.0,0.0,0.0,0.0,0.0,0.0,0.0,0.0,0.0,0.0,0.0,0.0,0.0,0.0,0.0,0.0,0.0,0.0,0.0,0.0,0.0,0.0,0.0,0.0,0.0,0.0,0.0,0.0,0.0,0.0,0.0,0.0,0.0,0.0,0.0,0.0,0.0,0.0,0.0,0.0,0.0,0.0,0.0,0.0,0.0,0.0,0.0,0.0,0.0,0.0,0.0,0.0,0.0,0.0,0.0,0.0,0.0,0.0,0.0,0.0,0.0,0.0,0.0,0.0,0.0,0.0,0.0,0.0,0.0,0.0,0.0,0.0,0.0,0.0,0.0,0.0,0.0,0.0,0.0,0.0,0.0,0.0,0.0,0.0,0.0,0.0,0.0,0.0,0.0,0.0,0.0,0.0,0.0,0.0,0.0,0.0,0.0,0.0,0.0,0.0,0.0,0.0,0.0,0.0,0.0,0.0,0.0,0.0,0.0,0.0,0.0,0.0,0.0,0.0,0.0,0.0,0.0,0.0,0.0,0.0,0.0,0.0,0.0,0.0,0.0,0.0,0.0,0.0,0.0,0.0,0.0,0.0,0.0,0.0,0.0,0.0,0.0,0.0,0.0,0.0,0.0,0.0,0.0,0.0,0.0,0.0,0.0,0.0,0.0,0.0,0.0,0.0,0.0,0.0,0.0,0.0,0.0,0.0,0.0,0.0,0.0,0.0,0.0,0.0,0.0,0.0,0.0,0.0,0.0,0.0,0.0,0.0,0.0,0.0,0.0,0.0,0.0,0.0,0.0,0.0,0.0,0.0,0.0,0.0,0.0,0.0,0.0,0.0,0.0,0.0,0.0,0.0,0.0,0.0,0.0,0.0,0.0,0.0,0.0,0.0,0.0,0.0,0.0,0.0,0.0,0.0,0.0,0.0,0.0,0.0,0.0,0.0,0.0,0.0,0.0,0.0,0.0,0.0,0.0,0.0,0.0,0.0,0.0,0.0,0.0,0.0,0.0,0.0,0.0,0.0,0.0,0.0,0.0,0.0,0.0,0.0,0.0,0.0,0.0,0.0,0.0,0.0,0.0,0.0,0.0,0.0,0.0,0.0,0.0,0.0,0.0,0.0,0.0,0.0,0.0,0.0,0.0,0.0,0.0,0.0,0.0,0.0,0.0,0.0,0.0,0.0,0.0,0.0,0.0,0.0,0.0,0.0,0.0,0.0,0.0,0.0,0.0,0.0,0.0,0.0,0.0,0.0,0.0,0.0,0.0,0.0,0.0,0.0,0.0,0.0,0.0,0.0,0.0,0.0,0.0,0.0,0.0,0.0,0.0,0.0,0.0,0.0,0.0,0.0,0.0,0.0,0.0,0.0,0.0,0.0,0.0,0.0,0.0,0.0,0.0,0.0,0.0,0.0,0.0,0.0,0.0,0.0,0.0,0.0,0.0,0.0,0.0,0.0,0.0,0.0,0.0,0.0,0.0,0.0,0.0,0.0,0.0,0.0,0.0,0.0,0.0,0.0,0.0,0.0,0.0,0.0,0.0,0.0,0.0,0.0,0.0,0.0,0.0,0.0,0.0,0.0,0.0,0.0,0.0,0.0,0.0,0.0,0.0,0.0,0.0,0.0,0.0,0.0,0.0,0.0,0.0,0.0,0.0,0.0,0.0,0.0,0.0,0.0,0.0,0.0,0.0,0.0,0.0,0.0,0.0,0.0,0.0,0.0,0.0,0.0,0.0,0.0,0.0,0.0,0.0,0.0,0.0,0.0,0.0,0.0,0.0,0.0,0.0,0.0,0.0,0.0,0.0,0.0,0.0,0.0,0.0,0.0,0.0,0.0,0.0,0.0,0.0,0.0,0.0,0.0,0.0,0.0,0.0,0.0,0.0,0.0,0.0,0.0,0.0,0.0,0.0,0.0,0.0,0.0,0.0,0.0,0.0,0.0,0.0,0.0,0.0,0.0,0.0,0.0,0.0,0.0,0.0,0.0,0.0,0.0,0.0,0.0,0.0,0.0,0.0,0.0,0.0,0.0,0.0,0.0,0.0,0.0,0.0,0.0,0.0,0.0,0.0,0.0,0.0,0.0,0.0,0.0,0.0,0.0,0.0,0.0,0.0,0.0,0.0,0.0,0.0,0.0,0.0,0.0,0.0,0.0,0.0,0.0,0.0,0.0,0.0,0.0,0.0,0.0,0.0,0.0,0.0,0.0,0.0,0.0,0.0,0.0,0.0,0.0,0.0,0.0,0.0,0.0,0.0,0.0,0.0,0.0,0.0,0.0,0.0,0.0,0.0,0.0,0.0,0.0,0.0,0.0,0.0,0.0,0.0,0.0,0.0,0.0,0.0,0.0,0.0,0.0,0.0,0.0,0.0,0.0,0.0,0.0,0.0,0.0,0.0,0.0,0.0,0.0,0.0,0.0,0.0,0.0,0.0,0.0,0.0,0.0,0.0,0.0,0.0,0.0,0.0,0.0,0.0,0.0,0.0,0.0,0.0,0.0,0.0,0.0,0.0,0.0,0.0,0.0,0.0,0.0,0.0,0.0,0.0,0.0,0.0,0.0,0.0,0.0,0.0,0.0,0.0,0.0,0.0,0.0,0.0,0.0,0.0,0.0,0.0,0.0,0.0,0.0,0.0,0.0,0.0,0.0,0.0,0.0,0.0,0.0,0.0,0.0,0.0,0.0,0.0,0.0,0.0,0.0,0.0,0.0,0.0,0.0,0.0,0.0,0.0,0.0,0.0,0.0,0.0,0.0,0.0,0.0,0.0,0.0,0.0,0.0,0.0,0.0,0.0,0.0,0.0,0.0,0.0,0.0,0.0,0.0,0.0,0.0,0.0,0.0,0.0,0.0,0.0,0.0,0.0,0.0,0.0,0.0,0.0,0.0,0.0,0.0,0.0,0.0,0.0,0.0,0.0,0.0,0.0,0.0,0.0,0.0,0.0,0.0,0.0,0.0,0.0,0.0,0.0,0.0,0.0,0.0,0.0,0.0,0.0,0.0,0.0,0.0,0.0,0.0,0.0,0.0,0.0,0.0,0.0,0.0,0.0,0.0,0.0,0.0,0.0,0.0,0.0,0.0,0.0,0.0,0.0,0.0,0.0,0.0,0.0,0.0,0.0,0.0,0.0,0.0,0.0,0.0,0.0,0.0,0.0,0.0,0.0,0.0,0.0,0.0,0.0,0.0,0.0,0.0,0.0,0.0,0.0,0.0,0.0,0.0,0.0,0.0,0.0,0.0,0.0,0.0,0.0,0.0,0.0,0.0,0.0,0.0,0.0,0.0,0.0,0.0,0.0,0.0,0.0,0.0,0.0,0.0,0.0,0.0,0.0,0.0,0.0,0.0,0.0,0.0,0.0,0.0,0.0,0.0,0.0,0.0,0.0,0.0,0.0,0.0,0.0,0.0,0.0,0.0,0.0,0.0,0.0,0.0,0.0,0.0,0.0,0.0,0.0,0.0,0.0,0.0,0.0,0.0,0.0,0.0,0.0,0.0,0.0,0.0,0.0,0.0,0.0,0.0,0.0,0.0,0.0,0.0,0.0,0.0,0.0,0.0,0.0,0.0,0.0,0.0,0.0,0.0,0.0,0.0,0.0,0.0,0.0,0.0,0.0,0.0,0.0,0.0,0.0,0.0,0.0,0.0,0.0,0.0,0.0,0.0,0.0,0.0,0.0,0.0,0.0,0.0,0.0,0.0,0.0,0.0,0.0,0.0,0.0,0.0,0.0,0.0,0.0,0.0,0.0,0.0,0.0,0.0,0.0,0.0,0.0,0.0,0.0,0.0,0.0,0.0,0.0,0.0,0.0,0.0,0.0,0.0,0.0,0.0,0.0,0.0,0.0,0.0,0.0,0.0,0.0,0.0,0.0,0.0,0.0,0.0,0.0,0.0,0.0,0.0,0.0,0.0,0.0,0.0,0.0,0.0,0.0,0.0,0.0,0.0,0.0,0.0,0.0,0.0,0.0,0.0,0.0,0.0,0.0,0.0,0.0,0.0,0.0,0.0,0.0,0.0,0.0,0.0,0.0,0.0,0.0,0.0,0.0,0.0,0.0,0.0,0.0,0.0,0.0,0.0,0.0,0.0,0.0,0.0,0.0,0.0,0.0,0.0,0.0,0.0,0.0,0.0,0.0,0.0,0.0,0.0,0.0,0.0,0.0,0.0,0.0,0.0,0.0,0.0,0.0,0.0,0.0,0.0,0.0,0.0,0.0,0.0,0.0,0.0,0.0,0.0,0.0,0.0,0.0,0.0,0.0,0.0,0.0,0.0,0.0,0.0,0.0,0.0,0.0,0.0,0.0,0.0,0.2211,0.0,0.0,0.0,0.0,0.0,0.0,0.0,0.0,0.0,0.0,0.0,0.0,0.0,0.0,0.0,0.0,0.0,0.0,0.0,0.0,0.0,0.0,0.0,0.0,0.0,0.0,0.0,0.0,0.0,0.0,0.0,0.0,0.0,0.0,0.0,0.0,0.0,0.0,0.0,0.6753,0.6424,0.6062,0.6697,0.6924,0.6799,0.0,0.0,0.0,0.0,0.0,0.0,0.0,0.0,0.0,0.0,0.0,0.0,0.0,0.0,0.0,0.0,0.0,0.0,0.0,0.0,0.0,0.0,0.0,0.0,0.0,0.0,0.0,0.0,0.0,0.0,0.0,0.0,0.0,0.0,0.0,0.0,0.0,0.0,0.0,0.0,0.0,0.0,0.0,0.0,0.0,0.0,0.0,0.0,0.0,0.0,0.0,0.0,0.0,0.0,0.0,0.0,0.0,0.0,0.0,0.0,0.0,0.0,0.0,0.0,0.0,0.0,0.0,0.0,0.0,0.0,0.0,0.1793,0.0,0.0,0.0,0.0,0.0,0.0,0.0,0.0,0.0,0.0,0.0,0.0,0.0,0.0,0.0,0.0,0.0,0.0,0.0,0.0,0.0,0.0,0.0,0.3346,0.4516,0.4872,0.5365,0.6304,0.0,0.0,0.0,0.0,0.0,0.0,0.0,0.7301,0.6958,0.6852,0.6189,0.5878,0.594,0.6255,0.6465,0.6574,0.6645,0.0,0.0,0.0,0.0,0.0,0.0,0.0,0.0,0.0,0.0,0.0,0.0,0.0,0.0,0.0,0.0,0.0,0.0,0.0,0.0,0.0,0.0,0.0,0.0,0.0,0.0,0.0,0.0,0.0,0.0,0.0,0.0,0.0,0.0,0.0,0.0,0.0,0.0,0.0,0.0,0.0,0.0,0.0,0.0,0.0,0.0,0.0,0.0,0.0,0.0,0.0,0.0,0.0,0.0,0.0,0.0,0.0,0.0,0.0,0.0,0.0,0.0,0.0,0.3535,0.3493,0.2329,0.3185,0.3576,0.3512,0.289,0.1739,0.0345,0.0881,0.0,0.0,0.0,0.0,0.0,0.0,0.0,0.0,0.0,0.0,0.0,0.0,0.0,0.0,0.0,0.0,0.0,0.0,0.0,0.0,0.0,0.3259,0.44,0.4857,0.5289,0.5888,0.6743,0.0,0.0,0.0,0.0,0.0,0.7912,0.7301,0.6774,0.6307,0.5079,0.4603,0.4887,0.4323,0.4903,0.6444,0.6789,0.7306,0.7838,0.0,0.0,0.0,0.0,0.0,0.0,0.0,0.0,0.0,0.0,0.0,0.0,0.0,0.0,0.0,0.0,0.0,0.0,0.0,0.0,0.0,0.0,0.0,0.0,0.0,0.0,0.0,0.0,0.0,0.0,0.0,0.0,0.0,0.0,0.0,0.0,0.0,0.0,0.0,0.0,0.0,0.2975,0.2507,0.0,0.0,0.0,0.0,0.0,0.0,0.0,0.0,0.0,0.0,0.0,0.0,0.0,0.1279,0.1404,0.1828,0.2251,0.265,0.3961,0.477,0.5074,0.5329,0.5123,0.4522,0.4405,0.0,0.1544,0.1234,0.0,0.0,0.0,0.0,0.0,0.0,0.0,0.0,0.0,0.0,0.0,0.0,0.0,0.0,0.0,0.0,0.0,0.0,0.0,0.0,0.0,0.3243,0.4197,0.5056,0.5418,0.6094,0.7249,0.79,0.0,0.0,0.0,0.7987,0.7405,0.6838,0.6109,0.5195,0.5011,0.4853,0.4699,0.479,0.5477,0.6641,0.6812,0.7376,0.8101,0.6992,0.0,0.0,0.0,0.0,0.0,0.0,0.0,0.0,0.0,0.0,0.0,0.0,0.0,0.0,0.0,0.0,0.0,0.0,0.0,0.0,0.0,0.0,0.0,0.0,0.0,0.0,0.0,0.0,0.0,0.0,0.0,0.0,0.0,0.0,0.0,0.0,0.0,0.0,0.0,0.3093,0.238,0.1774,0.2054,0.2284,0.0,0.0,0.0,0.0,0.0,0.0,0.0,0.0,0.0,0.1584,0.0878,0.069,0.1101,0.2064,0.2625,0.2823,0.4797,0.5586,0.5354,0.5999,0.6189,0.5919,0.5222,0.4508,0.3699,0.213,0.1289,0.1044,0.0,0.0,0.0,0.0,0.1593,0.1531,0.0,0.0,0.0,0.0,0.0,0.0,0.0,0.0,0.0,0.0,0.0,0.0,0.263,0.3366,0.4206,0.5216,0.5632,0.6344,0.7594,0.7988,0.8039,0.0,0.7808,0.7614,0.7021,0.6322,0.5485,0.4484,0.4879,0.5003,0.4866,0.5414,0.6211,0.7149,0.6991,0.7511,0.8418,0.7168,0.6778,0.6934,0.0,0.0,0.0,0.0,0.0,0.0,0.0,0.0,0.0,0.0,0.0,0.0,0.0,0.0,0.0,0.0,0.0,0.0,0.0,0.0,0.0,0.0,0.0,0.0,0.0,0.0,0.0,0.0,0.0,0.0,0.0,0.0,0.0,0.0,0.0,0.0,0.0,0.2569,0.1825,0.0921,0.1097,0.124,0.0,0.0,0.0,0.0,0.0,0.0,0.1653,0.1111,0.0835,0.0806,0.0293,0.0261,0.0811,0.2417,0.3161,0.3097,0.5505,0.628,0.5656,0.6428,0.6875,0.6897,0.6016,0.57,0.5664,0.326,0.2069,0.176,0.1412,0.1084,0.0808,0.0825,0.0809,0.0725,0.0,0.0,0.0,0.0,0.0,0.0,0.0,0.0,0.0,0.0,0.0,0.2029,0.263,0.3686,0.4609,0.5238,0.5841,0.6425,0.7,0.7587,0.7656,0.7063,0.7593,0.7614,0.7021,0.5905,0.5122,0.4682,0.4159,0.4372,0.5276,0.5311,0.633,0.8118,0.7541,0.7832,0.8692,0.7358,0.706,0.7364,0.6286,0.0,0.0,0.0,0.0,0.0,0.0,0.0,0.0,0.0,0.0,0.0,0.0,0.0,0.0,0.0,0.0,0.0,0.0,0.0,0.0,0.0,0.0,0.0,0.0,0.0,0.0,0.0,0.0,0.0,0.0,0.0,0.0,0.0,0.0,0.0,0.0,0.0,0.0,0.0216,0.078,0.0,0.0,0.0,0.0,0.1231,0.1162,0.0835,0.014,0.0073,0.0038,0.0039,0.0,0.0,0.0042,0.2385,0.3574,0.358,0.5938,0.7065,0.6983,0.7075,0.7078,0.7085,0.7041,0.699,0.6815,0.4474,0.2823,0.1799,0.179,0.1048,0.0072,0.0072,0.0072,0.0036,0.0,0.0,0.0,0.0,0.0,0.0,0.0,0.0,0.1568,0.2165,0.2323,0.2633,0.333,0.3776,0.4389,0.5345,0.5818,0.6191,0.6474,0.7201,0.7286,0.6526,0.7027,0.6867,0.5926,0.5125,0.4473,0.3991,0.3938,0.4358,0.5178,0.5335,0.6128,0.7357,0.7131,0.7241,0.7555,0.7155,0.6825,0.6506,0.6196,0.613,0.0,0.0,0.0,0.0,0.0,0.0,0.0,0.0,0.0,0.0,0.0,0.0,0.0,0.0,0.0,0.0,0.0,0.0,0.0,0.0,0.0,0.0,0.0,0.0,0.0,0.0,0.0,0.0,0.0,0.0,0.0,0.0,0.0,0.0,0.0,0.0,0.0,0.0765,0.0574,0.0,0.0412,0.0693,0.0765,0.0413,0.0395,0.026,0.0,0.0,0.0,0.0,0.0771,0.1173,0.1139,0.3566,0.477,0.477,0.636,0.7095,0.7095,0.7095,0.7095,0.7095,0.7095,0.7095,0.7041,0.6183,0.5171,0.3947,0.2401,0.1547,0.1072,0.0272,0.0,0.0118,0.0,0.0,0.0,0.0,0.0,0.0,0.0,0.0,0.1825,0.243,0.2663,0.3035,0.3731,0.3836,0.4226,0.5144,0.5424,0.5661,0.5879,0.6441,0.6502,0.5922,0.6231,0.6009,0.5105,0.4644,0.4197,0.3805,0.3923,0.454,0.5594,0.5535,0.6174,0.7383,0.7053,0.6989,0.7095,0.7101,0.6575,0.5764,0.5808,0.5807,0.5816,0.0,0.0,0.0,0.0,0.0,0.0,0.0,0.0,0.0,0.0,0.0,0.0,0.0,0.0,0.0,0.0,0.0,0.0,0.0,0.0,0.0,0.0,0.0,0.0,0.0,0.0,0.0,0.0,0.0,0.0,0.0,0.0,0.0,0.0,0.0,0.1001,0.0776,0.0293,0.0,0.0,0.0,0.0,0.0,0.0,0.0,0.0,0.0,0.0173,0.0615,0.1379,0.2013,0.2413,0.4376,0.5403,0.5403,0.6561,0.7095,0.7095,0.7095,0.7095,0.7095,0.7095,0.7095,0.7095,0.7095,0.6673,0.5766,0.3789,0.2782,0.2301,0.1503,0.1218,0.1391,0.0,0.0,0.0,0.0,0.0,0.0,0.0,0.1814,0.1865,0.2451,0.275,0.3148,0.3748,0.3927,0.4199,0.4673,0.4694,0.4861,0.5253,0.5276,0.5298,0.5303,0.5291,0.511,0.4718,0.45,0.4326,0.4187,0.4072,0.4888,0.6551,0.5846,0.6529,0.8287,0.7307,0.7077,0.7396,0.7169,0.6374,0.5275,0.5154,0.4881,0.4573,0.0,0.0,0.0,0.0,0.0,0.0,0.0,0.0,0.0,0.0,0.0,0.0,0.0,0.0,0.0,0.0,0.0,0.0,0.0,0.0,0.0,0.0,0.0,0.0,0.0,0.0,0.0,0.0,0.0,0.0,0.0,0.0,0.0,0.1298,0.1158,0.0801,0.0073,0.0,0.0,0.0,0.0,0.0,0.0,0.0,0.0,0.0044,0.0044,0.0628,0.1835,0.1879,0.2458,0.3659,0.4865,0.5447,0.5447,0.6564,0.7102,0.7095,0.7102,0.7102,0.7095,0.7095,0.7095,0.7095,0.7095,0.7095,0.7007,0.5849,0.4688,0.3659,0.3614,0.3614,0.3838,0.0,0.0,0.0,0.0,0.0,0.0,0.0,0.268,0.278,0.3045,0.3277,0.3556,0.391,0.3894,0.412,0.4799,0.4625,0.4534,0.4631,0.4957,0.5194,0.5298,0.5018,0.4805,0.4694,0.4309,0.4101,0.4058,0.4126,0.4666,0.5646,0.571,0.6049,0.6648,0.6458,0.6158,0.5761,0.5841,0.5534,0.5031,0.5278,0.5263,0.5098,0.0,0.0,0.0,0.0,0.0,0.0,0.0,0.0,0.0,0.0,0.0,0.0,0.0,0.0,0.0,0.0,0.0,0.0,0.0,0.0,0.0,0.0,0.0,0.0,0.0,0.0,0.0,0.0,0.0,0.0,0.0,0.0,0.1151,0.1151,0.0671,0.0225,0.004,0.0,0.0,0.0,0.0,0.0,0.0,0.0,0.0401,0.1244,0.1295,0.1879,0.3081,0.3974,0.4554,0.491,0.6068,0.665,0.665,0.7117,0.7248,0.7098,0.7255,0.7248,0.7095,0.7095,0.7095,0.7095,0.7095,0.7095,0.7007,0.5849,0.5179,0.4821,0.3927,0.415,0.4954,0.0,0.0,0.0,0.0,0.0,0.0,0.0,0.2969,0.3111,0.3122,0.3459,0.371,0.3822,0.3809,0.3943,0.4325,0.4168,0.404,0.3945,0.4274,0.4459,0.4469,0.4375,0.4361,0.4411,0.4143,0.408,0.4206,0.421,0.4617,0.5394,0.5358,0.5584,0.6001,0.5806,0.5541,0.5266,0.5741,0.5834,0.5665,0.5808,0.5604,0.5208,0.4992,0.5015,0.5148,0.5451,0.5398,0.5211,0.5417,0.0,0.0,0.0,0.0,0.0,0.0,0.0,0.0,0.0,0.0,0.0,0.0,0.0,0.0,0.0,0.0,0.0,0.0,0.0,0.0,0.0,0.0,0.0,0.0,0.0831,0.0623,0.0643,0.0269,0.0,0.0,0.0,0.0,0.0,0.0,0.0,0.0,0.049,0.1076,0.1745,0.2281,0.3127,0.433,0.5045,0.5625,0.6115,0.6782,0.7095,0.7098,0.7231,0.7227,0.7098,0.7234,0.7224,0.7095,0.7095,0.7095,0.7095,0.7095,0.7095,0.7051,0.0,0.0,0.0,0.0,0.5531,0.6115,0.0,0.0,0.0,0.0,0.0,0.0,0.0,0.2944,0.3057,0.2932,0.3405,0.3693,0.359,0.3672,0.367,0.3587,0.3559,0.3476,0.3313,0.3476,0.3507,0.3363,0.3666,0.3935,0.4139,0.4085,0.4251,0.4625,0.4361,0.4625,0.5382,0.4916,0.5137,0.5854,0.5363,0.5233,0.5458,0.633,0.6666,0.6572,0.6457,0.5951,0.5199,0.4825,0.4843,0.4988,0.4758,0.4687,0.4674,0.4365,0.0,0.0,0.0,0.0,0.0,0.0,0.0,0.0,0.0,0.0,0.0,0.0,0.0,0.0,0.0,0.0,0.0,0.0,0.0,0.0,0.0,0.0,0.0,0.0,0.0445,0.0,0.0,0.0,0.0,0.0,0.0,0.0,0.0,0.0,0.0,0.0,0.1122,0.1836,0.1975,0.0,0.0,0.0,0.0,0.6071,0.7095,0.7112,0.7122,0.7122,0.7156,0.7162,0.7146,0.7146,0.7139,0.7122,0.7102,0.7095,0.7095,0.7095,0.7095,0.7095,0.7095,0.7095,0.7095,0.7095,0.7095,0.7095,0.0,0.0,0.0,0.0,0.0,0.0,0.0,0.299,0.3091,0.3064,0.3266,0.3401,0.344,0.3307,0.3269,0.3343,0.3259,0.3229,0.3303,0.3336,0.3465,0.3697,0.388,0.4293,0.5041,0.4634,0.4698,0.53,0.473,0.4515,0.4684,0.4803,0.4951,0.5111,0.526,0.5365,0.5458,0.633,0.6352,0.5866,0.642,0.639,0.5892,0.5019,0.4679,0.461,0.4556,0.4667,0.4847,0.4667,0.485,0.5063,0.4672,0.4605,0.0,0.0,0.0,0.0,0.0,0.0,0.0,0.0,0.0,0.0,0.0,0.0,0.0,0.0,0.0,0.0,0.0,0.0,0.0,0.0228,0.008,0.0,0.0,0.0,0.0,0.0,0.0,0.0,0.0,0.0,0.0,0.0,0.1131,0.2208,0.3202,0.4414,0.5578,0.6738,0.6782,0.6874,0.7095,0.7265,0.7326,0.7329,0.7567,0.0,0.7512,0.7512,0.7444,0.7319,0.7149,0.7095,0.7095,0.7095,0.7095,0.7095,0.7095,0.7095,0.7095,0.7095,0.7095,0.7095,0.0,0.0,0.0,0.0,0.0,0.0,0.0,0.292,0.2969,0.291,0.3122,0.3279,0.3246,0.3216,0.3226,0.3299,0.3169,0.3165,0.3341,0.3422,0.3531,0.3703,0.395,0.4474,0.5276,0.4765,0.4842,0.5515,0.4842,0.4491,0.4494,0.4697,0.4847,0.4897,0.5148,0.532,0.5465,0.6397,0.6587,0.6291,0.6667,0.6683,0.6438,0.5422,0.501,0.4935,0.4826,0.4894,0.4961,0.4765,0.4789,0.487,0.4675,0.4552,0.4491,0.0,0.0,0.0,0.0,0.0,0.0,0.0,0.0,0.0,0.0,0.0,0.0,0.0,0.0,0.1003,0.0,0.0,0.0,0.0,0.0,0.0,0.0,0.0,0.0,0.0,0.0,0.0,0.0,0.0,0.0275,0.0969,0.2122,0.3318,0.4514,0.5745,0.6633,0.7098,0.7095,0.7095,0.7095,0.7292,0.7415,0.7419,0.7597,0.7668,0.7597,0.7519,0.7444,0.7409,0.7207,0.7095,0.7095,0.7095,0.7095,0.7095,0.7095,0.7095,0.7095,0.7095,0.7095,0.7095,0.0,0.0,0.0,0.0,0.0,0.0,0.0,0.2812,0.2856,0.2716,0.3027,0.3206,0.3077,0.3149,0.3236,0.3259,0.3145,0.3171,0.3423,0.3477,0.3566,0.3682,0.3987,0.4539,0.5326,0.4779,0.4842,0.5515,0.4842,0.4491,0.4494,0.4648,0.4843,0.5088,0.5269,0.5421,0.5617,0.6672,0.6937,0.6668,0.6835,0.68,0.6549,0.575,0.5423,0.5375,0.5186,0.5079,0.5022,0.4816,0.4735,0.4714,0.4617,0.458,0.4573,0.4542,0.4511,0.0,0.0,0.0,0.0,0.0,0.0,0.0,0.0,0.0,0.1125,0.1068,0.0967,0.0716,0.0118,0.0,0.0,0.0,0.0,0.0,0.0,0.0,0.0,0.0,0.0,0.0,0.0,0.0,0.0463,0.1532,0.2965,0.4195,0.5148,0.6627,0.7333,0.7102,0.7152,0.7169,0.7139,0.7366,0.7458,0.7458,0.7611,0.7685,0.7682,0.7526,0.7441,0.7404,0.7221,0.7095,0.7098,0.7129,0.7139,0.7139,0.7139,0.7139,0.7136,0.7105,0.7095,0.7095,0.0,0.0,0.0,0.0,0.0,0.0,0.0,0.0,0.2856,0.2716,0.2951,0.3074,0.2929,0.2929,0.299,0.3114,0.2996,0.311,0.3549,0.3314,0.3391,0.3923,0.3994,0.447,0.545,0.4831,0.4842,0.5515,0.4842,0.4491,0.4494,0.4648,0.5042,0.5706,0.6078,0.6207,0.62,0.7385,0.7056,0.5828,0.6603,0.6432,0.5724,0.5603,0.5515,0.5375,0.5186,0.5019,0.4908,0.4874,0.4894,0.486,0.4874,0.4867,0.4843,0.4704,0.0,0.4525,0.4679,0.3754,0.276,0.2812,0.2162,0.1293,0.0,0.0,0.105,0.032,0.0121,0.0081,0.0,0.0,0.0,0.0,0.0,0.0,0.0,0.0,0.0,0.0,0.0,0.0,0.0,0.0,0.0047,0.019,0.2467,0.3793,0.3831,0.6194,0.7441,0.7105,0.7404,0.7482,0.7346,0.7624,0.7763,0.7763,0.7867,0.7941,0.7934,0.7831,0.7692,0.7556,0.722,0.7095,0.7105,0.7288,0.7346,0.7346,0.7346,0.7346,0.7329,0.7146,0.7095,0.7095,0.0,0.0,0.0,0.0,0.0,0.0,0.0,0.0,0.0,0.3027,0.3004,0.3101,0.3388,0.3287,0.3191,0.3209,0.3023,0.31,0.3573,0.3395,0.3483,0.3971,0.4082,0.4741,0.6113,0.528,0.549,0.6767,0.549,0.515,0.5719,0.5353,0.5607,0.6468,0.6788,0.692,0.6992,0.7779,0.7812,0.7311,0.7102,0.6857,0.6491,0.576,0.5344,0.5108,0.5093,0.5286,0.0,0.4961,0.5109,0.5438,0.4932,0.4785,0.4792,0.4816,0.4714,0.0,0.4884,0.4317,0.3509,0.0,0.2132,0.1314,0.0239,0.0283,0.0451,0.0083,0.0,0.0212,0.0902,0.0482,0.0224,0.0,0.0464,0.0,0.0,0.0,0.0,0.0,0.0633,0.0762,0.009,0.0647,0.1085,0.1142,0.2861,0.4199,0.4827,0.6706,0.7624,0.7414,0.7533,0.757,0.7506,0.7709,0.7811,0.7814,0.7917,0.7988,0.7985,0.7882,0.7685,0.7455,0.7189,0.7146,0.7278,0.7346,0.7424,0.7506,0.7506,0.7451,0.7398,0.7152,0.7095,0.7095,0.0,0.0,0.0,0.0,0.0,0.0,0.0,0.0,0.0,0.0,0.3272,0.338,0.3711,0.3675,0.3516,0.3269,0.3071,0.3124,0.3515,0.3433,0.3535,0.3883,0.4018,0.4728,0.6113,0.5423,0.5749,0.7188,0.5899,0.5704,0.6493,0.5949,0.6218,0.7137,0.7425,0.7623,0.7772,0.8205,0.8338,0.822,0.7354,0.6966,0.681,0.5676,0.5053,0.4836,0.5059,0.5385,0.5588,0.4958,0.5195,0.5636,0.4876,0.4711,0.4826,0.4867,0.4867,0.4813,0.4753,0.0,0.0,0.2584,0.1788,0.1075,0.0208,0.0,0.0,0.0,0.0,0.0353,0.1563,0.0817,0.0414,0.1627,0.0802,0.0,0.0,0.0,0.0139,0.0459,0.158,0.1835,0.0628,0.1296,0.1703,0.1475,0.305,0.4382,0.5229,0.6954,0.7834,0.7607,0.7678,0.7699,0.7658,0.7801,0.7875,0.7875,0.7938,0.7988,0.7985,0.7882,0.7695,0.7485,0.7333,0.7333,0.7438,0.7478,0.7556,0.7658,0.7658,0.7567,0.7414,0.7261,0.7132,0.7095,0.0,0.0,0.0,0.0,0.0,0.0,0.0,0.0,0.0,0.0,0.0,0.0,0.0,0.3948,0.3894,0.3179,0.3101,0.3185,0.3389,0.333,0.3401,0.361,0.3731,0.416,0.4944,0.4919,0.5206,0.5863,0.5805,0.5937,0.6227,0.6196,0.6712,0.7693,0.8033,0.8258,0.8387,0.8678,0.8295,0.7491,0.6923,0.6428,0.5965,0.5206,0.4741,0.4588,0.5109,0.5137,0.494,0.4911,0.4997,0.5064,0.4641,0.4769,0.0,0.4928,0.4982,0.489,0.0,0.0,0.2534,0.1564,0.0683,0.0044,0.0,0.0,0.0,0.0,0.0,0.0359,0.1567,0.0808,0.041,0.1607,0.0809,0.0,0.0,0.0,0.0422,0.1621,0.2815,0.3081,0.0,0.178,0.1305,0.0143,0.2609,0.4086,0.3865,0.6676,0.8055,0.7614,0.783,0.7907,0.7804,0.7907,0.7982,0.7982,0.7988,0.7988,0.7985,0.7882,0.7807,0.779,0.7648,0.759,0.7604,0.774,0.7801,0.7804,0.7804,0.7719,0.7573,0.7421,0.7272,0.7095,0.0,0.0,0.0,0.0,0.0,0.0,0.0,0.0,0.0,0.0,0.0,0.0,0.0,0.0,0.0,0.0,0.3477,0.3452,0.3523,0.331,0.329,0.359,0.3995,0.4594,0.5415,0.5748,0.632,0.7194,0.6526,0.6577,0.7322,0.6839,0.7039,0.7865,0.8364,0.8619,0.8673,0.8667,0.8589,0.8365,0.6926,0.6341,0.6173,0.5435,0.5,0.4868,0.0,0.5605,0.5004,0.4833,0.4973,0.5128,0.4487,0.4558,0.4867,0.4985,0.4707,0.4321,0.4003,0.0,0.1675,0.139,0.0637,0.0,0.0,0.0,0.0,0.0,0.0,0.0387,0.1587,0.0826,0.0399,0.1593,0.0805,0.0,0.0,0.0,0.0144,0.0562,0.1658,0.0,0.0,0.0,0.0,0.1475,0.3837,0.5388,0.5468,0.7148,0.8136,0.8184,0.8191,0.8167,0.8116,0.8167,0.814,0.7988,0.7988,0.7988,0.7985,0.7882,0.7811,0.7804,0.7662,0.7651,0.7743,0.779,0.7872,0.7914,0.7914,0.7872,0.7723,0.7577,0.7424,0.7278,0.0,0.0,0.0,0.0,0.0,0.0,0.0,0.0,0.0,0.0,0.0,0.0,0.0,0.0,0.0,0.0,0.0,0.3883,0.3692,0.3567,0.3591,0.381,0.4153,0.4813,0.5851,0.6169,0.6726,0.7586,0.6827,0.6856,0.7556,0.7003,0.7031,0.7606,0.811,0.839,0.8473,0.8511,0.8514,0.8362,0.711,0.645,0.6184,0.5606,0.5257,0.0,0.6033,0.5834,0.5161,0.5041,0.507,0.505,0.4499,0.4336,0.4512,0.5166,0.4485,0.3545,0.3649,0.2905,0.2052,0.1627,0.1548,0.1385,0.0857,0.0711,0.0564,0.009,0.0259,0.0836,0.2051,0.1277,0.0841,0.2064,0.1002,0.0,0.0,0.0,0.0145,0.0572,0.1327,0.1503,0.0,0.0,0.0,0.2191,0.4605,0.6217,0.6287,0.7545,0.8343,0.8479,0.8394,0.8374,0.8323,0.8323,0.8194,0.7988,0.7988,0.7988,0.7985,0.7887,0.7892,0.7889,0.7797,0.7807,0.7892,0.7892,0.7901,0.7988,0.7988,0.7897,0.7801,0.7709,0.758,0.7424,0.0,0.0,0.0,0.0,0.0,0.0,0.0,0.0,0.0,0.0,0.0,0.0,0.0,0.0,0.0,0.0,0.0,0.0,0.3865,0.4067,0.4217,0.4176,0.4237,0.4859,0.6137,0.6209,0.6498,0.7,0.6767,0.6794,0.7035,0.6781,0.6801,0.7055,0.7357,0.7629,0.7905,0.8199,0.7986,0.7464,0.7275,0.6701,0.5935,0.5642,0.5535,0.5601,0.6071,0.5852,0.536,0.5475,0.5229,0.0,0.4631,0.421,0.4077,0.5355,0.4317,0.2814,0.3074,0.3377,0.3397,0.2357,0.316,0.3831,0.2412,0.2067,0.1678,0.044,0.0808,0.1727,0.2865,0.2143,0.1752,0.2852,0.1367,0.0044,0.0,0.0,0.0431,0.0,0.0,0.0,0.0,0.0,0.0,0.23,0.0,0.6557,0.6413,0.7849,0.8638,0.8509,0.8499,0.8425,0.8333,0.832,0.8187,0.8002,0.7992,0.7988,0.7988,0.7988,0.7988,0.7988,0.7988,0.7988,0.7988,0.7988,0.7988,0.7988,0.7988,0.7901,0.7821,0.7814,0.7726,0.7567,0.0,0.0,0.0,0.0,0.0,0.0,0.0,0.0,0.0,0.0,0.0,0.0,0.0,0.0,0.0,0.0,0.0,0.0,0.4278,0.44,0.4321,0.3926,0.4712,0.5341,0.5675,0.6412,0.6852,0.7,0.739,0.7603,0.7676,0.7603,0.7603,0.7677,0.7554,0.7531,0.7579,0.7313,0.7127,0.6915,0.6237,0.5825,0.5656,0.593,0.6012,0.6093,0.6602,0.645,0.0,0.0,0.0,0.0,0.0,0.4692,0.4196,0.4673,0.4132,0.3379,0.3476,0.3849,0.418,0.374,0.387,0.3907,0.3474,0.3085,0.2727,0.2384,0.2312,0.2444,0.2745,0.2618,0.2349,0.184,0.1453,0.0,0.0099,0.0,0.0,0.0407,0.0,0.0458,0.0452,0.2996,0.0,0.0,0.6248,0.7891,0.8099,0.8398,0.8625,0.8815,0.8713,0.8581,0.8428,0.8211,0.8136,0.8211,0.8096,0.7988,0.7988,0.7988,0.7988,0.7988,0.7988,0.7988,0.7988,0.7988,0.7988,0.7988,0.7988,0.7965,0.7917,0.7851,0.7787,0.7729,0.0,0.0,0.0,0.0,0.0,0.0,0.0,0.0,0.0,0.0,0.0,0.0,0.0,0.0,0.0,0.0,0.0,0.0,0.0,0.4641,0.4565,0.4171,0.4703,0.5268,0.5794,0.6356,0.6707,0.6834,0.7279,0.7556,0.7679,0.7792,0.7866,0.7843,0.7581,0.7447,0.7426,0.7042,0.6755,0.0,0.0,0.6008,0.5863,0.6361,0.6562,0.6598,0.6894,0.0,0.0,0.0,0.0,0.5189,0.5655,0.5302,0.4848,0.5573,0.0,0.4095,0.465,0.5099,0.5435,0.5189,0.5511,0.565,0.4693,0.4245,0.3784,0.3076,0.3069,0.0,0.3182,0.2931,0.2531,0.0,0.0,0.0,0.0099,0.0,0.0,0.0,0.0,0.0,0.0899,0.2907,0.4521,0.0,0.7305,0.8537,0.8703,0.8693,0.876,0.8878,0.8801,0.8737,0.8584,0.835,0.8248,0.832,0.818,0.8106,0.7988,0.7988,0.7988,0.7988,0.7988,0.7988,0.7988,0.7988,0.7988,0.7988,0.7988,0.7988,0.7971,0.7868,0.7811,0.779,0.0,0.0,0.0,0.0,0.0,0.0,0.0,0.0,0.0,0.0,0.0,0.0,0.0,0.0,0.0,0.0,0.0,0.0,0.0,0.0,0.4755,0.4553,0.4508,0.5015,0.611,0.6224,0.6424,0.6705,0.7063,0.7391,0.7691,0.7911,0.8031,0.8012,0.7707,0.7563,0.7566,0.732,0.6915,0.6456,0.6937,0.6789,0.6349,0.0,0.7,0.0,0.0,0.0,0.0,0.0,0.6079,0.5586,0.6173,0.5931,0.5695,0.6849,0.6085,0.5065,0.6082,0.6668,0.6943,0.6688,0.7416,0.7796,0.6031,0.5537,0.501,0.3565,0.0,0.4141,0.4137,0.3444,0.2848,0.2747,0.0,0.0526,0.0291,0.0254,0.0159,0.0,0.0165,0.0829,0.2134,0.3654,0.5212,0.6788,0.8076,0.8767,0.8767,0.8876,0.8885,0.8885,0.8865,0.8801,0.8743,0.8567,0.8421,0.835,0.833,0.8187,0.7988,0.7988,0.7988,0.7988,0.7988,0.7988,0.7992,0.8187,0.8283,0.8283,0.8428,0.8432,0.8266,0.8108,0.7952,0.779,0.0,0.0,0.0,0.0,0.0,0.0,0.0,0.0,0.0,0.0,0.4972,0.4874,0.0,0.0,0.0,0.0,0.0,0.0,0.0,0.0,0.0,0.4274,0.4724,0.5231,0.5774,0.6378,0.6878,0.727,0.8086,0.8709,0.9134,0.9181,0.9193,0.9183,0.8691,0.8476,0.8464,0.8419,0.8103,0.7621,0.7704,0.7384,0.6873,0.6958,0.0,0.0,0.0,0.0,0.0,0.0,0.6668,0.5996,0.6474,0.6207,0.5779,0.6132,0.636,0.6529,0.6605,0.7689,0.8673,0.8212,0.8071,0.7818,0.7011,0.6975,0.0,0.0,0.0,0.5946,0.5951,0.5388,0.0,0.402,0.0,0.0,0.0,0.0,0.1133,0.0,0.0,0.0,0.0,0.0,0.0,0.0,0.8248,0.9132,0.9132,0.8988,0.8885,0.8885,0.8815,0.8798,0.8844,0.8621,0.8469,0.8442,0.8378,0.8187,0.7988,0.7988,0.7988,0.7988,0.7988,0.0,0.8088,0.9217,0.9657,0.9756,1.0828,1.0583,0.9633,0.9497,0.8764,0.779,0.0,0.0,0.0,0.0,0.0,0.0,0.0,0.0,0.5023,0.5259,0.4898,0.4837,0.5435,0.5387,0.0,0.0,0.0,0.0,0.0,0.0,0.0,0.0,0.0,0.0,0.0,0.5851,0.0,0.0,0.0,0.8499,0.9079,0.0,0.0,0.9478,0.8938,0.8857,0.9099,0.8817,0.8553,0.8296,0.8015,0.7725,0.0,0.0,0.0,0.0,0.0,0.0,0.0,0.0,0.7327,0.715,0.7101,0.6934,0.6816,0.7116,0.7524,0.7883,0.7973,0.8586,0.9122,0.8693,0.8258,0.7743,0.7065,0.0,0.0,0.0,0.6173,0.6149,0.5608,0.0,0.0,0.0,0.0,0.0,0.0,0.0,0.0,0.0,0.0,0.0,0.0,0.0,0.0,0.0,0.8835,0.9176,0.9045,0.8977,0.8885,0.8885,0.8811,0.8811,0.8885,0.8794,0.8679,0.8601,0.8533,0.8381,0.816,0.816,0.8116,0.7988,0.7988,0.7988,0.8088,0.946,0.9998,1.0145,1.1409,1.1512,1.0902,1.0071,0.9318,0.8572,0.0,0.0,0.0,0.0,0.0,0.0,0.0,0.4763,0.4823,0.5234,0.4934,0.4963,0.5733,0.5551,0.5454,0.0,0.0,0.0,0.0,0.0,0.0,0.0,0.0,0.0,0.0,0.0,0.0,0.0,0.0,0.0,0.0,0.0,0.0,0.0,0.0,0.0,0.9637,0.9219,0.8978,0.0,0.0,0.0,0.0,0.0,0.0,0.0,0.0,0.0,0.0,0.0,0.7861,0.816,0.7692,0.7848,0.8182,0.8159,0.8609,0.9089,0.9143,0.921,0.918,0.8794,0.8282,0.7655,0.6878,0.6978,0.0,0.0,0.5804,0.591,0.5115,0.0,0.0,0.0,0.0,0.0,0.0,0.0,0.0,0.0,0.0,0.0,0.0,0.0,0.0,0.0,0.9327,0.9089,0.8892,0.8885,0.8885,0.8885,0.8885,0.8885,0.8885,0.8885,0.8807,0.871,0.871,0.8557,0.8323,0.8323,0.8184,0.7988,0.7988,0.8187,0.8531,0.985,1.0583,1.097,1.2237,1.2576,1.2206,1.1072,1.0157,0.933,0.0,0.0,0.0,0.0,0.0,0.0,0.0,0.4873,0.4979,0.5264,0.505,0.5199,0.6053,0.5869,0.5578,0.0,0.0,0.0,0.0,0.0,0.0,0.0,0.0,0.0,0.0,0.0,0.0,0.0,0.0,0.0,0.0,0.0,0.0,0.0,0.0,0.0,0.0,1.0176,0.0,0.0,0.0,0.0,0.0,0.0,0.0,0.0,0.0,0.0,0.0,0.0,0.0,0.834,0.8051,0.8949,0.9818,0.8164,0.0,0.0,0.9182,0.9154,0.9256,0.8818,0.836,0.7739,0.6902,0.0,0.0,0.6406,0.6126,0.5986,0.59,0.5173,0.4746,0.0,0.0,0.4884,0.0,0.0,0.0,0.0,0.0,0.0,0.0,0.0,0.0,0.0,0.9327,0.9089,0.8892,0.8885,0.8885,0.8885,0.8885,0.8885,0.8885,0.8885,0.8807,0.871,0.871,0.8557,0.8323,0.8323,0.8184,0.7988,0.7988,0.8676,0.0,1.1214,1.2425,1.368,1.4949,1.4704,1.3699,1.3408,1.1698,0.9448,0.0,0.0,0.0,0.0,0.0,0.0,0.0,0.5457,0.5725,0.5819,0.5747,0.5879,0.6388,0.6171,0.5809,0.0,0.0,0.0,0.0,0.0,0.0,0.0,0.0,0.0,0.0,0.0,0.0,0.7006,0.0,0.0,0.0,0.0,0.0,0.0,0.0,0.0,0.0,0.0,0.0,0.0,0.0,0.0,0.0,0.0,0.0,0.0,0.0,0.0,0.0,0.0,0.0,0.0,0.8154,0.9242,0.0,0.0,0.8683,0.9493,0.9012,0.9089,0.9181,0.8913,0.8238,0.7472,0.6844,0.0,0.0,0.5696,0.5774,0.5816,0.5213,0.4883,0.4631,0.4353,0.0,0.0,0.0,0.0,0.0,0.0,0.0,0.0,0.0,0.0,0.0,0.0,0.9357,0.9188,0.8895,0.8885,0.8885,0.8885,0.8885,0.8885,0.8885,0.8885,0.8854,0.8849,0.8849,0.8689,0.8397,0.8397,0.8265,0.7988,0.7988,0.8775,0.0,1.1365,1.2668,1.4022,1.5289,1.5486,1.4937,1.4106,1.2948,1.1492,0.0,0.0,0.0,0.0,0.0,0.6263,0.5661,0.5844,0.6096,0.6194,0.6114,0.6204,0.6554,0.6371,0.6028,0.5611,0.0,0.0,0.0,0.0,0.0,0.0,0.0,0.0,0.0,0.0,0.5598,0.6614,0.6718,0.7026,0.0,0.0,0.0,0.0,0.0,0.0,0.0,0.0,0.0,0.0,0.0,0.0,0.0,0.0,0.0,0.0,0.0,0.0,0.0,0.0,0.0,0.0,0.0,0.0,0.0,0.0,0.8715,0.9366,0.9042,0.8991,0.8975,0.8777,0.8247,0.7581,0.0,0.0,0.6281,0.509,0.5213,0.5337,0.4619,0.4614,0.4474,0.3729,0.0,0.4714,0.0,0.0,0.0,0.0,0.0,0.0,0.0,0.0,0.0,0.0,0.9381,0.9252,0.8898,0.8885,0.8885,0.8885,0.8885,0.8885,0.8885,0.8885,0.8885,0.8885,0.8838,0.8733,0.8479,0.8438,0.8279,0.7988,0.7988,0.897,0.0,1.1512,1.2915,1.4561,1.5439,1.5784,1.5683,1.4806,1.3936,1.2939,0.0,0.0,0.0,0.0,0.0,0.0,0.0,0.5914,0.583,0.6149,0.5914,0.5931,0.6527,0.6371,0.6189,0.6189,0.0,0.0,0.0,0.0,0.0,0.0,0.0,0.0,0.0,0.0,0.4715,0.5705,0.5711,0.6031,0.6613,0.6613,0.0,0.0,0.0,0.0,0.0,0.0,0.0,0.0,0.0,0.0,0.0,0.0,0.0,0.0,0.0,0.0,0.0,0.0,0.0,0.0,0.0,0.0,0.0,0.0,0.915,1.002,0.9296,0.8797,0.8455,0.8364,0.8483,0.826,0.0,0.0,0.6069,0.4928,0.46,0.4519,0.4491,0.4614,0.4474,0.3729,0.4727,0.0,0.0,0.0,0.0,0.0,0.0,0.0,0.0,0.0,0.0,0.9405,0.9381,0.0,0.8898,0.8885,0.8885,0.8885,0.8885,0.8885,0.8885,0.8885,0.8885,0.8881,0.8784,0.8632,0.8476,0.8336,0.8187,0.7988,0.7988,0.946,0.0,1.1896,1.3451,1.5778,1.5778,1.5784,1.5784,1.5778,1.4701,1.3217,0.0,0.0,0.0,0.0,0.0,0.0,0.0,0.6533,0.6629,0.6734,0.6503,0.6389,0.6573,0.6371,0.6196,0.6196,0.0,0.0,0.0,0.0,0.0,0.0,0.0,0.0,0.0,0.0,0.4511,0.5161,0.574,0.6145,0.6348,0.7114,0.7868,0.857,0.0,0.0,0.0,0.0,0.0,0.0,0.0,0.0,0.0,0.0,0.0,0.0,0.0,0.0,0.0,0.0,0.0,0.0,0.0,0.0,0.0,0.8979,0.0,0.0,0.9536,0.9219,0.9096,0.9209,0.8737,0.7986,0.7065,0.0,0.5738,0.4882,0.4597,0.4522,0.4627,0.46,0.442,0.395,0.4849,0.0,0.0,0.0,0.0,0.0,0.0,0.0,0.0,0.0,0.0,0.9395,0.9344,0.914,0.8895,0.8885,0.8885,0.8885,0.8885,0.8885,0.8885,0.8835,0.8781,0.8781,0.8628,0.8479,0.8388,0.8344,0.8184,0.7988,0.7988,0.9509,1.1896,1.1896,1.3451,1.5784,1.5784,1.5784,1.5784,1.5784,1.5226,1.4315,0.0,0.0,0.0,0.0,0.0,0.0,0.0,0.6747,0.688,0.6986,0.6767,0.6633,0.674,0.6512,0.6398,0.6492,0.0,0.0,0.0,0.0,0.0,0.0,0.0,0.0,0.394,0.3958,0.4337,0.5059,0.5604,0.6087,0.652,0.7238,0.7863,0.8419,0.8958,0.9498,0.0,0.0,0.0,0.0,0.0,0.0,0.9207,0.0,0.0,0.0,0.0,0.0,0.0,0.0,0.0,0.0,0.0,0.0,0.0,0.0,0.9599,0.9921,0.0,0.9196,0.9063,0.9109,0.8746,0.0,0.0,0.0,0.6037,0.5174,0.4748,0.4518,0.4614,0.4648,0.4487,0.3943,0.4879,0.0,0.0,0.0,0.0,0.0,0.0,0.0,0.0,0.0,0.952,0.931,0.9265,0.9089,0.8892,0.8885,0.8885,0.8885,0.8885,0.8885,0.8885,0.8788,0.871,0.871,0.8503,0.8357,0.832,0.8211,0.813,0.7988,0.7988,0.9509,0.0,1.1896,1.3451,1.5784,1.5784,1.5784,1.5764,1.5705,1.5081,1.4257,0.0,0.0,0.0,0.0,0.0,0.0,0.0,0.0,0.0,0.6966,0.6767,0.6693,0.694,0.6754,0.67,0.6946,0.0,0.0,0.0,0.0,0.0,0.0,0.0,0.0,0.4152,0.3785,0.4122,0.5178,0.5216,0.5776,0.6825,0.6894,0.7252,0.787,0.8398,0.8938,0.9439,0.9439,0.9736,1.004,0.8545,0.8398,0.0,0.0,0.0,0.0,0.0,0.0,0.0,0.0,0.0,0.0,0.0,0.0,0.0,0.0,0.0,0.0,0.0,0.8799,0.0,0.0,0.0,0.0,0.0,0.0,0.0,0.5713,0.5003,0.4553,0.456,0.4735,0.4657,0.3895,0.4919,0.0,0.0,0.0,0.0,0.0,0.0,0.0,0.0,0.0,0.9459,0.9231,0.92,0.9079,0.8892,0.8885,0.8878,0.8868,0.8868,0.8868,0.8868,0.876,0.8679,0.8676,0.8391,0.8255,0.8248,0.8106,0.7988,0.0,0.8088,0.9558,1.1901,1.1994,1.3547,1.5784,1.5784,1.5771,1.5718,1.5518,1.4512,1.3429,0.0,0.0,0.0,0.0,0.0,0.0,0.0,0.0,0.0,0.0,0.6767,0.6613,0.668,0.6627,0.662,0.0,0.0,0.0,0.0,0.0,0.0,0.0,0.0,0.0,0.3742,0.3649,0.3733,0.399,0.4417,0.4757,0.5034,0.5953,0.6677,0.7231,0.7835,0.8378,0.8878,0.8878,0.8958,0.9024,0.8431,0.8564,0.0,0.0,0.0,0.0,0.7878,0.8003,0.0,0.0,0.0,0.0,0.0,0.0,0.0,0.0,0.9084,0.9255,0.892,0.0,0.9102,0.9309,0.9095,0.0,0.0,0.0,0.0,0.0,0.0,0.0,0.0,0.4914,0.501,0.539,0.5872,0.0,0.0,0.0,0.0,0.0,0.0,0.0,0.0,0.0,0.9286,0.9214,0.9052,0.8974,0.8885,0.8885,0.8828,0.8767,0.8764,0.8764,0.8764,0.8506,0.8374,0.837,0.8184,0.8096,0.8092,0.8005,0.7988,0.8038,0.9069,1.0435,1.1994,1.3006,1.437,1.5784,1.5784,1.5691,1.5518,1.5671,1.5068,1.4273,0.0,0.0,0.0,0.0,0.0,0.0,0.0,0.0,0.0,0.0,0.0,0.0,0.0,0.0,0.0,0.0,0.0,0.0,0.0,0.0,0.0,0.0,0.0,0.4264,0.3965,0.3729,0.3729,0.3965,0.426,0.4543,0.4822,0.5766,0.6365,0.667,0.7523,0.8193,0.8675,0.8439,0.848,0.8647,0.8128,0.0,0.0,0.0,0.0,0.0,0.8072,0.8123,0.0,0.819,0.8343,0.8604,0.0,0.0,0.0,0.0,0.8891,0.8978,0.8851,0.9118,0.9424,0.9472,0.9211,0.8936,0.0,0.0,0.0,0.0,0.0,0.0,0.0,0.0,0.0,0.0,0.6071,0.0,0.0,0.0,0.0,0.0,0.0,0.0,0.0,0.9251,0.9183,0.9059,0.8984,0.8885,0.8885,0.8885,0.8814,0.8716,0.8642,0.8604,0.8604,0.8384,0.8323,0.832,0.8113,0.7988,0.7988,0.7988,0.7988,0.8088,0.941,1.073,1.1994,1.3349,1.4582,1.5631,1.5631,1.5451,1.5204,1.5217,1.4643,1.4008,0.0,0.0,0.0,0.0,0.0,0.0,0.0,0.0,0.0,0.0,0.0,0.0,0.0,0.0,0.0,0.0,0.0,0.0,0.0,0.0,0.0,0.0,0.4718,0.4369,0.4286,0.3836,0.3818,0.4286,0.4288,0.4565,0.5096,0.5777,0.6171,0.6371,0.7321,0.8008,0.8411,0.7946,0.8028,0.8373,0.7758,0.0,0.0,0.0,0.0,0.0,0.0,0.0,0.0,0.8275,0.8322,0.8435,0.8611,0.0,0.0,0.0,0.0,0.0,0.8804,0.9299,0.9713,0.9112,0.9017,0.9034,0.8878,0.0,0.0,0.0,0.0,0.0,0.0,0.0,0.0,0.0,0.0,0.0,0.0,0.0,0.0,0.0,0.0,0.0,0.9259,0.9181,0.9069,0.8892,0.8885,0.8885,0.8885,0.8861,0.8832,0.8679,0.853,0.8438,0.8414,0.8296,0.8235,0.8235,0.8102,0.7988,0.7988,0.8237,0.8273,0.8297,0.9857,0.0,1.2181,1.3523,1.459,1.5331,1.5331,1.5157,1.4914,1.4663,1.4059,1.341,0.0,0.0,0.0,0.0,0.0,0.0,0.0,0.0,0.0,0.0,0.0,0.0,0.0,0.0,0.0,0.0,0.0,0.0,0.0,0.0,0.0,0.5308,0.4718,0.4176,0.3729,0.3644,0.3644,0.3729,0.3834,0.394,0.4056,0.5111,0.6069,0.6894,0.7063,0.7189,0.7252,0.7168,0.7189,0.7279,0.7436,0.0,0.0,0.0,0.0,0.0,0.0,0.0,0.0,0.7718,0.7973,0.8362,0.8105,0.0,0.0,0.0,0.0,0.0,0.8804,0.9599,1.0052,0.8349,0.8217,0.8305,0.7462,0.0,0.0,0.0,0.0,0.0,0.0,0.0,0.0,0.0,0.0,0.0,0.0,0.0,0.0,0.0,0.0,0.9039,0.8835,0.891,0.8905,0.8885,0.8885,0.8885,0.8885,0.8815,0.8676,0.8523,0.8377,0.8241,0.8059,0.8035,0.8025,0.8025,0.8002,0.7988,0.8038,0.9167,0.9527,0.9429,0.0,1.2862,1.2951,1.43,1.4928,1.5075,1.5075,1.485,1.4609,1.4823,1.4515,1.4061,0.0,0.0,0.0,0.0,0.0,0.0,0.0,0.0,0.0,0.0,0.0,0.0,0.0,0.0,0.0,0.0,0.0,0.0,0.0,0.0,0.5303,0.5303,0.4439,0.3858,0.3604,0.3679,0.3716,0.3716,0.3843,0.3873,0.3812,0.4884,0.5974,0.7,0.7,0.7,0.7,0.7,0.7,0.7047,0.0,0.0,0.0,0.0,0.0,0.0,0.0,0.0,0.0,0.0,0.8295,0.8402,0.8397,0.0,0.0,0.0,0.0,0.0,0.8804,0.9319,0.9577,0.845,0.8697,0.8884,0.0,0.0,0.0,0.0,0.0,0.0,0.0,0.0,0.0,0.0,0.0,0.0,0.0,0.0,0.0,0.0,0.0,0.8886,0.894,0.8944,0.8848,0.8821,0.8815,0.8777,0.8696,0.8625,0.852,0.8374,0.8225,0.8072,0.7919,0.7841,0.7882,0.7988,0.783,0.8129,0.8833,0.936,0.9884,1.0449,0.0,1.3123,1.3109,1.445,1.4914,1.4723,1.4723,1.4543,1.4322,1.4616,1.4549,1.4382,0.0,0.0,0.0,0.0,0.0,0.0,0.0,0.0,0.0,0.0,0.0,0.0,0.0,0.0,0.0,0.0,0.0,0.0,0.0,0.0,0.5459,0.5308,0.4338,0.3747,0.3651,0.3757,0.3809,0.3843,0.3974,0.4045,0.4077,0.4952,0.5874,0.681,0.6937,0.7,0.7,0.7,0.7,0.7062,0.0,0.0,0.0,0.0,0.0,0.0,0.0,0.0,0.0,0.0,0.0,0.0,0.0,0.0,0.0,0.8804,0.8804,0.8804,0.8804,0.8982,0.9032,0.8555,0.0,0.0,0.0,0.0,0.0,0.0,0.0,0.0,0.0,0.0,0.0,0.0,0.0,0.0,0.0,0.0,0.0,0.8723,0.8662,0.8726,0.9069,0.8971,0.8835,0.872,0.8676,0.8604,0.8489,0.8452,0.8367,0.8221,0.8065,0.7913,0.7763,0.7617,0.7678,0.7884,0.7706,0.8128,0.9084,0.955,1.0237,1.1106,1.2699,1.3306,1.3341,1.4389,1.4623,1.4422,1.4422,1.4282,1.4115,1.4335,1.4462,1.4563,0.0,0.0,0.0,0.0,0.0,0.0,0.0,0.0,0.0,0.0,0.0,0.0,0.0,0.0,0.0,0.0,0.0,0.0,0.0,0.0,0.5894,0.5324,0.4696,0.4163,0.3795,0.3785,0.3863,0.3981,0.4132,0.4408,0.4833,0.5278,0.5756,0.6285,0.6768,0.7,0.7,0.7,0.7,0.7,0.7069,0.0,0.0,0.0,0.0,0.0,0.0,0.0,0.0,0.0,0.0,0.0,0.0,0.0,0.8804,0.8804,0.8804,0.8804,0.8804,0.8896,0.8854,0.812,0.8236,0.0,0.8913,0.8509,0.0,0.7917,0.0,0.0,0.0,0.0,0.0,0.0,0.0,0.0,0.0,0.0,0.8831,0.8861,0.8858,0.8861,0.8895,0.8815,0.8723,0.871,0.8577,0.8492,0.8482,0.8357,0.8214,0.8012,0.7909,0.7756,0.7614,0.7465,0.7468,0.7631,0.7611,0.7651,0.7799,1.0093,1.103,1.0969,1.3341,1.4266,1.4021,1.4106,1.4135,1.4122,1.4122,1.4108,1.4088,1.4115,1.4289,1.4563,0.0,0.0,0.0,0.0,0.0,0.0,0.0,0.0,0.0,0.0,0.0,0.0,0.0,0.0,0.0,0.0,0.0,0.0,0.0,0.6498,0.6093,0.5873,0.4913,0.439,0.4369,0.4075,0.3937,0.3994,0.4051,0.435,0.4898,0.4845,0.512,0.5653,0.584,0.6255,0.6733,0.6566,0.6806,0.7325,0.7483,0.7704,0.0,0.0,0.0,0.0,0.0,0.0,0.0,0.0,0.845,0.8644,0.8644,0.8717,0.8804,0.8804,0.848,0.8209,0.8672,0.8767,0.8836,0.9185,0.895,0.0,0.0,0.8562,0.8182,0.8473,0.8657,0.0,0.0,0.0,0.0,0.0,0.0,0.0,0.0,0.8798,0.8798,0.8798,0.8713,0.8655,0.8655,0.8604,0.853,0.8442,0.8384,0.8265,0.8075,0.8014,0.7916,0.777,0.7617,0.7512,0.7458,0.7305,0.7258,0.7267,0.7267,0.772,0.8581,1.0171,1.117,1.1826,1.3501,1.4188,1.4088,1.4088,1.4088,1.4088,1.4088,1.4088,1.4088,1.4088,1.4269,1.4536,0.0,0.0,0.0,0.0,0.0,0.0,0.0,0.0,0.0,0.0,0.0,0.0,0.0,0.0,0.0,0.0,0.0,0.0,0.7,0.6668,0.6371,0.6206,0.5416,0.4847,0.4602,0.4344,0.414,0.3994,0.3947,0.4139,0.4549,0.4509,0.4723,0.5127,0.5346,0.592,0.6637,0.638,0.6749,0.7508,0.7596,0.7614,0.0,0.0,0.0,0.0,0.0,0.0,0.0,0.0,0.8731,0.8804,0.8804,0.8804,0.8804,0.8804,0.8289,0.7857,0.8586,0.8401,0.819,0.916,0.0,0.0,0.9643,0.8876,0.8272,0.9475,0.9499,0.0,0.0,0.0,0.0,0.0,0.0,0.0,0.8618,0.8638,0.8638,0.8638,0.8547,0.8482,0.8482,0.8397,0.8303,0.8204,0.8113,0.7967,0.7753,0.7743,0.7678,0.7533,0.7424,0.735,0.7299,0.7149,0.7095,0.7095,0.7489,0.8163,0.9063,1.0115,1.1209,1.237,1.3561,1.4088,1.4088,1.4088,1.4088,1.4088,1.4088,1.4088,1.4088,1.4088,1.4269,1.4522,0.0,0.0,0.0,0.0,0.0,0.0,0.0,0.0,0.0,0.0,0.0,0.0,0.0,0.0,0.0,0.0,0.0,0.0,0.7,0.7,0.6768,0.6227,0.6206,0.5631,0.443,0.4598,0.4455,0.3994,0.3866,0.3792,0.3815,0.4419,0.4699,0.473,0.5462,0.6159,0.6769,0.6493,0.6826,0.7471,0.7148,0.7006,0.704,0.0,0.0,0.0,0.0,0.0,0.0,0.0,0.8571,0.8804,0.8804,0.8804,0.8778,0.8804,0.8262,0.7857,0.8593,0.7729,0.6807,0.0,0.0,0.0,1.0901,0.9597,0.8501,1.0955,0.0,0.8877,0.7404,0.0,0.0,0.755,0.7977,0.8371,0.8462,0.8479,0.8479,0.8479,0.8476,0.8472,0.8472,0.8208,0.7985,0.7985,0.7763,0.76,0.7597,0.7597,0.7529,0.7419,0.7415,0.7295,0.7098,0.7095,0.7095,0.7139,0.8321,0.889,0.8934,1.0096,1.1209,1.237,1.3561,1.4088,1.4088,1.4088,1.4088,1.4088,1.4088,1.4088,1.4088,1.4088,1.4269,1.4516,0.0,0.0,0.0,0.0,0.0,0.0,0.0,0.0,0.0,0.0,0.0,0.0,0.0,0.0,0.0,0.0,0.0,0.0,0.7,0.7,0.6937,0.6774,0.6392,0.6029,0.568,0.4886,0.4334,0.3994,0.3866,0.3846,0.3951,0.4033,0.4107,0.422,0.4436,0.4994,0.5758,0.6019,0.6594,0.7383,0.7565,0.7639,0.7646,0.0,0.0,0.0,0.0,0.0,0.0,0.0,0.0,0.0,0.8804,0.8454,0.8129,0.8646,0.791,0.7074,0.783,0.7622,0.0,0.0,0.0,0.0,0.0,0.9382,0.0,0.0,0.0,0.9308,0.8856,0.0,0.0,0.7721,0.7885,0.816,0.8313,0.8238,0.817,0.817,0.7987,0.7862,0.7862,0.778,0.7729,0.7729,0.7648,0.7553,0.7444,0.7441,0.737,0.7214,0.721,0.7142,0.7095,0.7095,0.7536,0.8364,0.8715,0.889,0.8978,1.0913,1.198,1.237,1.3561,1.4088,1.4088,1.4088,1.4088,1.4088,1.4088,1.4088,1.4088,1.4088,1.4142,1.4215,0.0,0.0,0.0,0.0,0.0,0.0,0.0,0.0,0.0,0.0,0.0,0.0,0.0,0.0,0.0,0.0,0.0,0.0,0.0,0.7,0.7,0.7,0.6689,0.6413,0.6206,0.5022,0.4321,0.4168,0.3864,0.3785,0.3927,0.3897,0.394,0.4092,0.4206,0.4854,0.5831,0.6063,0.6777,0.7753,0.785,0.7905,0.7919,0.0,0.0,0.0,0.0,0.0,0.0,0.0,0.0,0.0,0.8804,0.8507,0.8209,0.8672,0.7969,0.723,0.8069,0.0,0.0,0.0,0.0,0.0,0.0,0.0,0.0,0.0,0.0,0.9498,0.8934,0.8789,0.0,0.7738,0.7797,0.7963,0.7997,0.7923,0.7865,0.7865,0.7709,0.76,0.76,0.7546,0.7509,0.7509,0.7451,0.7377,0.7285,0.7278,0.7238,0.7098,0.7095,0.7095,0.7095,0.7577,0.8189,0.889,0.9836,1.0265,1.0308,1.1681,1.2547,1.3069,1.3779,1.4088,1.4088,1.4088,1.4088,1.4088,1.4088,1.4088,1.4088,1.4088,1.4088,1.4088,0.0,0.0,0.0,0.0,0.0,0.0,0.0,0.0,0.0,0.0,0.7,0.0,0.0,0.0,0.0,0.0,0.0,0.0,0.0,0.0,0.7,0.7,0.7,0.6747,0.6206,0.513,0.4526,0.4438,0.388,0.3696,0.3816,0.3982,0.4115,0.4247,0.4585,0.5364,0.6428,0.6445,0.7163,0.8272,0.8083,0.8039,0.8092,0.8363,0.0,0.0,0.0,0.0,0.0,0.0,0.0,0.0,0.8804,0.8752,0.8725,0.8785,0.8289,0.7916,0.8882,0.0,0.0,0.0,0.0,0.0,0.0,0.0,0.0,0.0,0.0,0.9527,0.8031,0.778,0.7738,0.7597,0.7706,0.7746,0.7617,0.7587,0.758,0.758,0.7567,0.7556,0.7556,0.7431,0.7395,0.7395,0.7221,0.7095,0.7095,0.7095,0.7095,0.7095,0.7095,0.7139,0.7272,0.8364,0.9021,0.9235,1.1295,1.237,1.2456,1.2456,1.3069,1.4088,1.4088,1.4088,1.4088,1.4088,1.4088,1.4088,1.4088,1.4088,1.4088,1.4088,1.4088,1.4088,0.0,0.0,0.0,0.0,0.0,0.0,0.0,0.0,0.0,0.0,0.0,0.0,0.0,0.0,0.0,0.0,0.0,0.0,0.0,0.0,0.7,0.7,0.7,0.6747,0.6206,0.5943,0.5416,0.4636,0.4045,0.3822,0.395,0.4269,0.4477,0.4602,0.4785,0.4959,0.518,0.6304,0.701,0.7467,0.8513,0.9071,0.9292,0.9091,0.9024,0.0,0.0,0.0,0.0,0.0,0.0,0.0,0.8804,0.8401,0.8049,0.8619,0.8289,0.785,0.0,0.8175,0.0,0.0,0.0,0.0,0.0,0.0,0.0,0.0,0.0,0.0,0.7898,0.8449,0.8742,0.7785,0.7628,0.7634,0.7604,0.7495,0.7421,0.7421,0.7312,0.7193,0.7193,0.7166,0.7146,0.7146,0.7115,0.7095,0.7095,0.7095,0.7095,0.7095,0.7095,0.7533,0.8496,0.8759,0.9797,1.1552,1.2072,1.2808,1.3688,1.3688,1.3864,1.4088,1.4088,1.4088,1.4088,1.4088,1.4088,1.4088,1.4088,1.4088,1.4088,1.4088,1.4088,1.4088,0.0,0.0,0.0,0.0,0.0,0.0,0.0,0.0,0.0,0.0,0.0,0.0,0.0,0.0,0.0,0.0,0.0,0.0,0.0,0.0,0.7,0.7,0.7,0.6873,0.6577,0.6044,0.5551,0.5088,0.4292,0.3954,0.4109,0.4385,0.4573,0.4701,0.4921,0.5076,0.5299,0.6635,0.7073,0.7001,0.8736,0.9254,0.9004,0.9311,0.9452,0.9412,0.9091,0.0,0.0,0.0,0.0,0.0,0.0,0.0,0.8295,0.8699,0.8533,0.8361,0.0,0.0,0.0,0.0,0.0,0.0,0.0,0.0,0.0,0.0,0.0,0.0,0.7755,0.8149,0.8353,0.7638,0.7492,0.7465,0.739,0.7309,0.7261,0.7261,0.7146,0.7095,0.7095,0.7095,0.7095,0.7095,0.7095,0.7095,0.7095,0.7095,0.7095,0.7095,0.7665,0.8277,0.889,0.9966,1.1128,1.2328,1.2899,1.347,1.4088,1.4088,1.4088,1.4088,1.4088,1.4088,1.4088,1.4088,1.4088,1.4088,1.4088,1.4088,1.4088,1.4088,1.4088,1.4088,0.0,0.0,0.0,0.0,0.0,0.0,0.0,0.0,0.0,0.0,0.0,0.0,0.0,0.0,0.0,0.0,0.0,0.0,0.0,0.0,0.0,0.7,0.7,0.7026,0.7073,0.6031,0.5534,0.5612,0.4653,0.4225,0.4301,0.4473,0.4651,0.4779,0.505,0.5357,0.5739,0.6831,0.7012,0.6733,0.859,0.8843,0.8265,0.9207,0.9541,0.9538,0.9334,0.9291,0.9244,0.8951,0.0,0.0,0.0,0.0,0.8804,0.8804,0.8804,0.8938,0.0,0.0,0.0,0.0,0.0,0.0,0.0,0.0,0.0,0.0,0.0,0.0,0.7526,0.7519,0.7478,0.7353,0.7333,0.7285,0.7112,0.7075,0.7068,0.7092,0.7075,0.7068,0.7095,0.7095,0.7095,0.7095,0.7071,0.7058,0.7058,0.7034,0.7119,0.7362,0.8289,0.8983,0.9399,1.1278,1.2348,1.2523,1.362,1.4088,1.4088,1.4088,1.4088,1.4088,1.4088,1.4088,1.4088,1.4088,1.4088,1.4088,1.4088,1.4088,1.4088,1.4088,1.4088,1.4088,0.0,0.0,0.0,0.0,0.0,0.0,0.0,0.0,0.0,0.0,0.0,0.0,0.0,0.0,0.0,0.0,0.0,0.0,0.0,0.0,0.0,0.7,0.7,0.7141,0.7424,0.6653,0.6211,0.6101,0.5319,0.4831,0.4636,0.4785,0.4904,0.5049,0.5254,0.5298,0.5258,0.6045,0.6399,0.6494,0.7439,0.7902,0.8096,0.8696,0.8932,0.8987,0.9457,0.9626,0.9579,0.9251,0.9158,0.0,0.0,0.0,0.8804,0.8804,0.8804,0.8938,0.0,0.0,0.0,0.0,0.0,0.0,0.0,0.0,0.0,0.0,0.0,0.0,0.7183,0.7156,0.7149,0.7129,0.7125,0.7119,0.7098,0.6991,0.696,0.7082,0.6987,0.696,0.7085,0.7095,0.7095,0.7095,0.698,0.6913,0.6913,0.6831,0.7277,0.8471,0.8363,0.9345,1.1494,1.1785,1.2461,1.3448,1.3878,1.4088,1.4088,1.4088,1.4088,1.4088,1.4088,1.4088,1.4088,1.4088,1.4088,1.4088,1.4088,1.4088,1.4088,1.4088,1.4088,1.4088,0.0,0.0,0.0,0.0,0.0,0.0,0.0,0.0,0.0,0.0,0.0,0.0,0.0,0.0,0.0,0.0,0.0,0.0,0.0,0.0,0.0,0.7275,0.7413,0.7572,0.7722,0.6701,0.6194,0.6186,0.5116,0.4683,0.4819,0.4857,0.504,0.5267,0.5453,0.5436,0.5322,0.6149,0.6137,0.5701,0.7184,0.7472,0.7075,0.8001,0.8581,0.8943,0.9131,0.9526,0.988,0.9586,0.9351,0.9191,0.9064,0.0,0.0,0.0,0.0,0.0,0.0,0.0,0.0,0.0,0.0,0.0,0.0,0.0,0.0,0.0,0.0,0.8346,0.7295,0.7031,0.6977,0.6977,0.6906,0.6895,0.6895,0.6841,0.6824,0.6888,0.6841,0.6824,0.6888,0.6895,0.6895,0.6895,0.7333,0.7628,0.7628,0.8086,0.8649,0.9229,0.9754,1.0562,1.1653,1.2314,1.2975,1.3606,1.3948,1.4088,1.4088,1.4088,1.4088,1.4088,1.4088,1.4088,1.4088,1.4088,1.4088,1.4088,1.4088,1.4088,1.4088,1.4088,1.4088,1.4088,0.0,0.0,0.0,0.0,0.0,0.0,0.0,0.0,0.0,0.0,0.0,0.0,0.0,0.0,0.0,0.0,0.0,0.0,0.0,0.0,0.0,0.7611,0.7779,0.7945,0.8019,0.6724,0.6137,0.6302,0.4973,0.4523,0.4891,0.4996,0.5169,0.5457,0.5532,0.5501,0.5428,0.6108,0.5836,0.5168,0.6657,0.6737,0.6049,0.7124,0.7881,0.8371,0.8734,0.9316,0.9875,0.9834,0.9646,0.9411,0.9257,0.9064,0.0,0.0,0.0,0.0,0.0,0.0,0.0,0.0,0.0,0.0,0.0,0.0,0.0,0.0,0.0,0.9135,0.7893,0.7421,0.7165,0.6871,0.6773,0.6702,0.6702,0.6668,0.6658,0.6695,0.6664,0.6781,0.7064,0.6864,0.6905,0.7435,0.7881,0.8256,0.8495,0.9211,0.9732,1.0063,1.0886,1.1479,1.1827,1.268,1.328,1.3606,1.3868,1.3975,1.3975,1.4055,1.4048,1.3981,1.4055,1.4088,1.4088,1.4088,1.4088,1.4088,1.4088,1.4088,1.4088,1.4088,1.4088,1.4088,0.0,0.0,0.0,0.0,0.0,0.0,0.0,0.0,0.0,0.0,0.0,0.0,0.743,0.7464,0.7584,0.7832,0.0,0.0,0.0,0.0,0.0,0.7872,0.7899,0.0,0.8368,0.6946,0.6312,0.6568,0.5301,0.4755,0.4894,0.5238,0.5457,0.5572,0.547,0.5402,0.5395,0.5462,0.0,0.5358,0.5289,0.5227,0.5227,0.601,0.6389,0.676,0.8401,0.9127,0.9406,0.9912,1.0087,0.9943,0.9384,0.9204,0.0,0.0,0.0,0.0,0.0,0.0,0.0,0.0,0.0,0.0,0.0,0.0,0.0,0.0,0.0,0.8981,0.9159,0.859,0.7814,0.6878,0.6705,0.6702,0.6702,0.6576,0.6576,0.6681,0.6573,0.6939,0.8029,0.727,0.7473,0.938,0.86,0.8414,0.9394,0.9361,0.9887,1.1084,1.0921,1.1445,1.2727,1.2804,1.3066,1.36,1.362,1.3626,1.3633,1.3961,1.3935,1.364,1.3968,1.4088,1.4088,1.4088,1.4088,1.4088,1.4088,1.4088,1.4088,1.4088,1.4088,1.4088,0.0,0.0,0.0,0.0,0.0,0.0,0.0,0.0,0.0,0.0,0.0,0.0,0.0,0.7762,0.7786,0.7899,0.8103,0.0,0.0,0.0,0.0,0.8216,0.839,0.8544,0.8651,0.7209,0.6503,0.6588,0.532,0.4769,0.4891,0.5121,0.5294,0.5481,0.5521,0.5542,0.5535,0.5436,0.0,0.0,0.0,0.0,0.0,0.0,0.0,0.0,0.0,0.0,0.0,0.9989,0.9922,0.9296,0.9472,0.9364,0.0,0.0,0.0,0.0,0.0,0.0,0.0,0.0,0.0,0.0,0.0,0.0,0.0,0.0,0.0,1.0331,0.9799,0.9011,0.8322,0.7983,0.7395,0.7167,0.7721,0.6779,0.6469,0.7638,0.7396,0.7529,0.8499,0.844,0.8677,0.9378,0.9678,0.997,1.0312,1.0917,1.1446,1.189,1.1825,1.1974,1.2458,1.269,1.2991,1.3327,1.3327,1.342,1.36,1.3561,1.3567,1.3613,1.3713,1.3908,1.4088,1.4088,1.4088,1.4088,1.4088,1.4088,1.4088,1.4088,1.4088,1.4088,0.0,0.0,0.0,0.0,0.0,0.0,0.0,0.0,0.0,0.7879,0.0,0.0,0.0,0.0,0.8092,0.8192,0.8317,0.8442,0.8543,0.8611,0.8617,0.8549,0.8704,0.8804,0.8804,0.7343,0.6588,0.6588,0.532,0.4769,0.4891,0.5032,0.5213,0.5399,0.5501,0.5545,0.0,0.0,0.0,0.5463,0.0,0.0,0.5291,0.0,0.0,0.0,0.0,0.0,0.0,0.0,0.0,0.0,0.0,0.0,0.0,0.0,0.0,0.0,0.0,0.0,0.0,0.0,0.0,0.0,0.0,0.0,0.0,0.0,0.0,1.0955,1.0396,0.9719,0.9127,0.86,0.7722,0.7393,0.8263,0.7141,0.6789,0.8227,0.8036,0.8151,0.9083,0.9046,0.9321,1.0111,1.0475,0.0,1.1273,1.1922,1.2258,1.2164,1.2158,1.2158,1.2158,1.2388,1.2697,1.3053,1.3053,1.3153,1.334,1.3253,1.326,1.3353,1.3513,1.3773,1.4088,1.4088,1.4088,1.4088,1.4088,1.4088,1.4088,1.4088,1.4088,1.4088,0.0,0.0,0.0,0.0,0.0,0.0,0.0,0.0,0.7919,0.7932,0.0,0.0,0.0,0.0,0.0,0.8804,0.8571,0.8549,0.8818,0.8557,0.8543,0.8804,0.0,0.0,0.0,0.7343,0.6588,0.6588,0.5324,0.4772,0.4891,0.5036,0.5216,0.5395,0.5395,0.5395,0.5395,0.0,0.5518,0.5597,0.0,0.5321,0.5576,0.0,0.0,0.0,0.7933,0.8851,0.0,1.0412,0.0,0.0,0.0,0.0,0.0,0.0,0.0,0.0,0.0,0.0,0.0,0.0,0.0,0.0,0.0,0.0,0.0,0.0,0.0,1.0667,1.0929,1.0787,1.0147,0.8696,0.7725,0.7482,0.8348,0.769,0.7447,0.8348,0.8459,0.8849,0.9829,0.9063,0.9447,1.1737,1.0982,1.0985,1.2234,1.2278,1.2144,1.1899,1.1893,1.1899,1.1906,1.1906,1.2201,1.2784,1.2777,1.2777,1.2797,1.3053,1.3026,1.2817,1.336,1.3788,1.4062,1.4082,1.4088,1.4088,1.4088,1.4088,1.4088,1.4088,1.4088,1.4088,0.0,0.0,0.0,0.0,0.0,0.0,0.0,0.825,0.833,0.0,0.0,0.0,0.8964,0.9192,0.938,0.9432,0.9172,0.9125,0.9419,0.8971,0.8818,0.9078,0.8891,0.8804,0.8804,0.7343,0.6588,0.6588,0.542,0.4877,0.4894,0.5179,0.5354,0.5395,0.5395,0.5395,0.5428,0.6075,0.0,0.6527,0.6427,0.6079,0.0,0.0,0.0,0.0,0.0,0.8741,0.9222,0.0,1.0477,0.9964,0.0,0.0,0.0,0.0,0.0,0.0,0.9539,0.0,0.0,0.0,0.0,0.0,0.0,0.0,0.0,0.0,0.0,1.0327,1.0653,1.0646,1.0481,1.0075,0.9277,0.8981,0.9866,0.8706,0.8309,0.9801,0.9604,0.9682,1.0602,1.0604,1.094,0.0,1.1418,1.139,1.1971,1.1784,1.1595,1.155,1.155,1.165,1.1899,1.1906,1.2201,1.2784,1.2563,1.2576,1.2777,1.2612,1.2625,1.2797,1.2958,1.3173,1.3487,1.3915,1.4088,1.4088,1.4088,1.4088,1.4088,1.4088,1.4088,1.4088,0.0,0.0,0.0,0.0,0.0,0.0,0.8691,0.8844,0.9005,0.0,0.0,0.0,0.9397,0.9579,0.9715,0.9715,0.9526,0.9499,0.9673,0.9245,0.9091,0.9384,0.9031,0.8731,0.8546,0.7561,0.6987,0.6806,0.5777,0.5363,0.5532,0.5726,0.5658,0.5428,0.0,0.0,0.0,0.0,0.0,0.0,0.6433,0.0,0.0,0.6434,0.7203,0.0,0.0,0.0,1.0355,1.0963,1.0756,0.0,0.0,0.0,0.0,0.0,0.0,0.0,0.0,0.0,0.0,0.0,0.0,0.0,0.959,0.974,0.9947,0.0,1.0301,0.0,1.0559,1.0593,1.0593,1.0593,1.0174,1.0015,1.053,0.9422,0.9069,1.0428,1.0283,1.0282,1.0776,1.0962,1.1182,1.1517,1.1343,1.1376,1.167,1.1516,1.1335,1.1249,1.1243,1.1329,1.1538,1.1623,1.1953,1.2415,1.2325,1.2392,1.2589,1.2378,1.2398,1.2603,1.273,1.2958,1.3247,1.3707,1.3901,1.3915,1.4041,1.4088,1.4088,1.4088,1.4088,1.4088,0.0,0.0,0.0,0.0,0.0,0.0,0.0,0.9492,0.9715,0.0,0.9713,0.9746,0.9809,0.9809,0.9809,0.9809,0.9775,0.9746,0.9809,0.9444,0.9391,0.9719,0.9198,0.872,0.8377,0.7984,0.7615,0.7268,0.6313,0.6062,0.6387,0.6436,0.6125,0.5624,0.0,0.0,0.0,0.0,0.0,0.6122,0.6137,0.6319,0.0,0.0,0.8485,0.9562,1.0335,1.136,1.2218,1.1663,1.1283,0.0,0.0,0.0,0.0,0.0,0.9856,0.0,0.0,0.0,0.0,0.0,0.0,0.0,1.0013,1.0067,1.0154,1.0479,1.0519,0.0,1.0579,1.0566,1.0546,1.0546,1.0573,1.0593,1.0593,0.9919,0.9722,1.0498,1.0593,1.0593,1.0593,1.0593,1.0713,1.0969,1.0995,1.1089,1.1282,1.1295,1.1209,1.0955,1.0949,1.0975,1.1042,1.1296,1.159,1.1953,1.2178,1.2305,1.2305,1.2305,1.2305,1.2318,1.2623,1.2891,1.3133,1.3387,1.356,1.368,1.3981,1.4088,1.4088,1.4088,1.4088,1.4088,0.0,0.0,0.0,0.0,0.0,0.0,0.0,0.9492,0.9715,0.9715,0.9886,1.012,1.0392,1.0419,1.0419,1.0419,1.0174,1.0134,1.0405,0.9923,0.9726,1.002,0.9699,0.9482,0.942,0.8751,0.8398,0.83,0.6962,0.6316,0.6419,0.6563,0.6555,0.6502,0.0,0.0,0.0,0.0,0.0,0.8075,0.8164,0.0,0.849,0.7989,0.8848,1.0373,1.0644,1.1428,1.2245,1.1897,1.1583,1.1295,0.0,0.0,0.0,0.0,0.0,0.0,0.0,0.0,0.0,0.0,0.0,0.0,0.9813,0.9766,0.9853,0.0,1.002,0.0,0.0,1.0399,1.02,1.02,1.0439,1.0593,1.0593,1.0466,1.0396,1.0593,1.0593,1.0593,1.0593,1.0593,1.0713,1.0969,1.0995,1.0915,1.0767,1.076,1.0734,1.068,1.0673,1.0901,1.1336,1.1362,1.169,1.2218,1.2271,1.2305,1.2305,1.2305,1.2305,1.2305,1.2365,1.2425,1.2505,1.2837,1.3387,1.4008,1.4062,1.4088,1.4088,1.4088,1.4088,1.4088,0.0,0.0,0.0,0.0,0.0,0.0,0.0,0.9927,1.0151,1.0151,1.0278,1.0425,1.0579,1.0593,1.0593,1.0593,1.0452,1.0432,1.0579,1.0147,1.0033,1.0358,0.995,0.96,0.9351,0.8788,0.8397,0.8157,0.6919,0.6398,0.6555,0.7099,0.7111,0.6793,0.0,0.0,0.0,0.0,0.9901,1.0131,0.8808,0.0,0.8973,0.92,0.9889,1.0765,1.1341,1.1879,1.2305,1.2342,1.2053,0.0,0.0,1.1543,1.1335,0.0,1.0995,1.0929,0.0,0.0,0.0,1.0374,0.0,0.0,0.0,1.0151,1.0191,1.0307,1.0251,1.0238,1.0539,0.0,1.0341,1.0341,1.0492,1.0539,1.0361,1.0499,1.0593,1.0593,1.0593,1.0593,1.0593,1.0593,1.0653,1.0801,1.0807,1.0747,1.06,1.0593,1.0593,1.0593,1.0593,1.0734,1.0995,1.1283,1.1535,1.1864,1.2164,1.2305,1.2305,1.2305,1.2305,1.2305,1.2305,1.2385,1.2583,1.2891,1.3327,1.3868,1.3868,1.3955,1.4088,1.4088,1.4088,1.4088,0.0,0.0,0.0,0.0,0.0,0.0,0.0,0.0,1.0613,1.0667,1.0727,1.076,1.076,1.0547,1.0528,1.0834,1.0527,1.0449,1.0754,1.0394,1.0307,1.0579,1.0137,0.9684,0.9321,0.8981,0.8637,0.8245,0.7276,0.6921,0.7209,0.7929,0.7917,0.0,0.0,0.0,0.0,0.0,0.0,1.1676,0.0,0.8801,0.9573,1.0441,1.0938,1.1199,1.1996,1.2305,1.2338,1.2616,1.2382,1.1986,1.1986,1.179,0.0,0.0,0.0,0.0,0.0,0.0,0.0,0.0,0.0,1.0747,0.0,0.0,0.0,0.0,0.0,0.0,0.0,0.0,0.0,0.0,0.0,0.0,0.0,1.0238,0.0,1.0425,1.0526,1.0566,1.0512,1.0506,1.0506,1.0506,1.0506,1.0533,1.0586,1.0593,1.0593,1.0593,1.0593,1.062,1.0673,1.1162,1.1422,1.1482,1.2051,1.2305,1.2305,1.2305,1.2305,1.2305,1.2305,1.2438,1.2723,1.2993,1.3293,1.3533,1.3646,1.3874,1.4088,1.4088,1.4088,1.4088,0.8804,0.8804,0.0,0.0,0.0,0.0,0.0,0.0,1.0687,1.0909,1.1169,1.1295,1.1295,0.0,0.0,0.0,0.0,0.0,1.1228,0.0,0.0,0.0,1.0526,0.0,1.0413,1.038,1.0311,1.028,0.938,0.8982,0.9011,0.9107,0.9229,0.0,1.0507,0.0,0.0,0.0,1.1066,0.0,1.0831,1.1032,0.0,1.1075,1.1354,1.215,1.2261,1.2305,1.2305,0.0,1.2305,1.2251,0.0,1.2231,1.2144,0.0,0.0,0.0,0.0,0.0,0.0,0.0,1.1295,0.0,0.0,0.0,1.0901,1.0646,0.0,0.0,0.0,0.0,0.0,0.0,0.0,0.0,0.9391,0.9599,0.9809,0.9809,1.0271,1.0486,1.0194,1.0167,1.0167,1.0167,1.0167,1.0281,1.0579,1.0593,1.0593,1.0593,1.0593,1.0713,1.0942,1.1263,1.1557,1.1859,1.2144,1.2305,1.2305,1.2305,1.2305,1.2305,1.2305,1.2318,1.2378,1.271,1.2979,1.3313,1.3834,1.4055,1.4088,1.4088,1.4088,1.4088,0.8838,0.8918,0.0,0.0,0.0,0.0,0.0,0.0,1.1049,1.1002,1.1396,0.0,0.0,0.0,0.0,0.0,0.0,1.0073,0.0,0.0,0.0,0.0,0.0,0.0,0.0,1.043,1.0086,1.0086,0.9222,0.8685,0.8554,0.9225,0.9583,0.0,1.0626,0.0,1.1588,0.0,1.1501,0.0,0.0,0.0,0.0,1.1848,1.1922,1.2305,1.2305,1.2305,1.2305,0.0,1.2305,0.0,0.0,0.0,0.0,0.0,0.0,0.0,0.0,0.0,0.0,0.0,0.0,0.0,1.1056,0.0,1.0909,0.0,0.0,0.0,0.0,0.0,0.0,0.0,1.0147,0.0,0.0,0.0,0.9715,0.0,0.0,0.0,1.0114,1.0083,1.0187,1.0392,1.0214,1.0247,1.0579,1.0593,1.0593,1.0593,1.0593,1.0646,1.0774,1.1029,1.1323,1.1617,1.1911,1.2138,1.2305,1.2305,1.2305,1.2305,1.2305,1.2305,1.2338,1.2819,1.3093,1.3267,1.3854,1.4088,1.4088,1.4088,1.4088,1.4088,0.9085,0.0,0.0,0.0,0.0,0.0,0.0,0.0,0.0,0.0,0.0,0.0,1.2147,1.1144,0.0,0.0,1.088,1.0412,0.0,0.0,1.1136,0.0,0.0,0.0,0.0,0.0,0.0,1.0055,0.9438,0.9009,0.8842,0.9661,1.0135,0.0,0.0,1.1316,1.1677,0.0,0.0,1.204,1.2218,1.2305,1.2305,1.2305,1.2305,1.2305,1.2305,1.2305,1.2305,1.2305,1.2305,0.0,1.2305,0.0,0.0,0.0,0.0,0.0,1.1724,0.0,0.0,0.0,0.0,0.0,0.0,0.0,0.0,0.0,0.0,0.0,0.0,0.0,0.0,0.0,0.0,1.0094,0.0,0.0,0.0,0.0,0.0,0.0,0.0,0.9844,0.9967,1.0211,1.0,1.004,1.0452,1.0472,1.0506,1.0586,1.0593,1.0593,1.0593,1.0929,1.1216,1.1395,1.181,1.2098,1.2305,1.2305,1.2305,1.2305,1.2305,1.2305,1.2345,1.2866,1.3133,1.326,1.3768,1.4015,1.4088,1.4088,1.4088,1.4088,0.9688,0.9688,0.0,0.0,0.0,0.0,0.0,0.0,0.0,0.0,0.0,0.0,0.0,0.0,0.0,0.0,0.0,1.1063,1.2221,0.0,1.1169,0.0,0.0,1.1296,0.0,0.0,0.0,0.0,0.0,1.0923,1.091,1.0956,1.1262,0.0,0.0,1.173,1.2251,1.202,1.2067,1.2285,1.2298,1.2305,1.2305,0.0,1.2305,1.2305,1.2305,0.0,0.0,1.2305,1.2305,1.2305,0.0,0.0,0.0,0.0,0.0,0.0,0.0,0.0,0.0,1.2271,0.0,0.0,0.0,0.0,1.1792,0.0,0.0,0.0,0.0,0.0,0.0,0.0,0.0,0.0,0.0,0.0,0.0,0.0,0.0,0.0,0.0,0.9244,0.9244,0.9251,0.9244,0.9491,1.007,1.0134,1.0261,1.0586,1.0593,1.0593,1.0593,1.1129,1.1382,1.1395,1.2011,1.2291,1.2305,1.2305,1.2305,1.2305,1.2305,1.2305,1.2325,1.267,1.2978,1.324,1.35,1.3793,1.4088,1.4088,1.4088,1.4088,0.0,0.0,0.0,0.0,0.0,0.0,0.0,1.157,0.0,0.0,0.0,0.0,0.0,1.2806,1.252,0.0,0.0,1.1609,1.2561,1.2225,0.0,0.0,0.0,1.1957,0.0,0.0,0.0,0.0,0.0,0.0,0.0,0.0,0.0,0.0,0.0,1.1463,0.0,0.0,0.0,0.0,0.0,1.2418,1.2616,0.0,1.2305,1.2305,1.2305,1.2305,1.2305,1.2305,1.2305,1.2305,1.2305,1.2305,1.2305,1.2305,1.2305,1.2305,0.0,0.0,1.2305,1.2305,0.0,0.0,0.0,0.0,0.0,0.0,0.0,0.0,0.0,0.0,0.0,0.0,0.0,0.0,0.0,0.0,0.0,0.0,0.0,0.0,0.0,0.0,0.9291,0.9519,0.9324,0.9464,1.0087,1.0083,1.0254,1.0579,1.0593,1.0687,1.0842,1.1042,1.1336,1.1724,1.1924,1.2118,1.2335,1.2952,1.3237,1.3273,1.3911,1.4235,1.4209,1.4071,1.4466,1.5118,1.4261,1.4441,1.5054,1.437,1.4088,1.4088,1.0428,0.0,0.0,0.0,0.0,0.0,0.0,0.0,0.0,0.0,1.352,0.0,1.4482,0.0,1.339,0.0,1.3016,1.2452,1.2933,1.2732,0.0,1.2164,1.2345,0.0,0.0,0.0,0.0,0.0,0.0,1.1806,0.0,0.0,0.0,0.0,0.0,1.167,1.2024,0.0,1.2024,0.0,0.0,1.2418,0.0,0.0,1.2365,1.2445,0.0,1.2305,1.2305,1.2305,1.2305,1.2305,1.2305,1.2305,1.2305,1.2305,1.2305,1.2305,1.2305,1.2305,1.2305,1.2305,1.2305,0.0,1.2064,0.0,0.0,0.0,0.0,0.0,0.0,0.0,0.0,0.0,0.0,0.0,0.0,1.0755,0.0,0.0,0.0,0.0,0.0,0.0,0.9184,0.9506,0.9224,0.9317,0.9933,0.996,1.0194,1.0727,1.0747,1.0888,1.1142,1.1249,1.1531,1.1906,1.2329,1.2618,1.2842,1.3774,1.4243,1.4279,1.4914,1.5199,1.5204,1.5064,1.5477,1.6133,1.5395,1.5565,1.6075,1.4657,1.4088,1.4088,0.0,0.0,0.0,0.0,1.0894,0.0,0.0,0.0,1.2931,0.0,1.4015,1.4543,1.4563,1.4549,1.4536,1.4522,1.3953,1.35,1.3253,1.3233,0.0,0.0,1.2496,1.2522,1.196,0.0,0.0,0.0,0.0,0.0,0.0,0.0,0.0,0.0,1.2285,0.0,1.2305,1.2305,1.2305,1.2305,1.2305,1.2311,1.2325,1.2311,1.2522,1.2744,1.2412,1.2305,1.2305,1.2305,1.2305,1.2305,1.2305,1.2305,1.2305,1.2305,1.2305,1.2305,1.2305,1.2305,1.2305,1.2305,1.2305,0.0,0.0,0.0,1.2459,0.0,0.0,0.0,0.0,0.0,0.0,0.0,0.0,0.0,0.0,0.0,0.0,0.0,0.0,0.0,0.0,0.9005,0.8971,0.9191,0.8958,0.9085,0.0,0.9735,1.01,1.0969,1.1075,1.1223,1.1477,1.1864,1.2055,1.2069,1.3237,1.3781,1.3818,1.4807,1.5269,1.5269,1.5305,1.534,1.5374,1.5749,1.6063,1.6375,1.6766,1.71,1.7058,1.5026,1.425,1.425,1.0995,1.1169,1.143,0.0,1.1772,1.1799,0.0,0.0,0.0,0.0,1.4576,1.493,1.515,1.4977,1.4763,1.4536,1.4188,0.0,0.0,0.0,0.0,1.2886,1.2831,1.2717,1.2563,1.2636,0.0,1.2191,0.0,0.0,1.2184,0.0,0.0,0.0,0.0,0.0,1.2305,1.2305,1.2305,1.2305,1.2305,1.2438,1.2643,0.0,1.2522,1.2744,1.2412,1.2305,1.2305,1.2305,1.2305,1.2305,1.2305,1.2305,1.2305,1.2305,1.2305,1.2305,1.2305,1.2305,1.2305,1.2305,1.2305,1.2482,1.3164,0.0,0.0,0.0,0.0,0.0,0.0,0.0,0.0,0.0,0.0,0.0,0.0,0.0,0.0,1.221,0.0,0.0,0.0,0.9805,0.9718,0.9232,0.9144,0.9357,0.9973,1.0007,1.0307,1.0969,1.1931,1.2541,1.282,1.3581,1.4092,1.436,1.466,1.4807,1.4843,1.579,1.6245,1.628,1.6966,1.7295,1.7282,1.7225,1.7713,1.8406,1.7538,1.7251,1.7212,1.669,1.6486,1.6363,1.1376,0.0,0.0,1.2476,0.0,0.0,1.2672,1.3206,0.0,1.4269,1.4703,0.0,1.519,1.4943,1.4703,1.4536,1.4255,0.0,1.3848,0.0,0.0,1.3373,1.3113,1.2924,1.279,1.2656,0.0,1.2305,0.0,0.0,1.2298,0.0,0.0,0.0,0.0,1.2151,0.0,1.2305,1.2305,1.2305,1.2305,1.2405,0.0,1.2365,1.2405,1.2569,1.2365,1.2305,1.2305,1.2305,1.2305,1.2305,1.2305,1.2305,1.2305,1.2305,1.2305,1.2305,1.2305,1.2305,1.2305,1.2305,1.2629,1.3062,1.3564,1.4027,1.4389,0.0,1.4876,1.4863,0.0,0.0,0.0,0.0,0.0,0.0,0.0,0.0,0.0,0.0,1.2466,0.0,1.0753,1.0608,1.0326,0.9735,0.9377,0.9411,0.99,0.0,1.0441,1.1156,1.2137,1.2903,1.3469,1.4139,1.4724,1.5199,1.5623,1.5825,1.5825,1.6784,1.7217,1.7251,1.7759,1.8115,1.8261,1.8381,1.886,1.9517,1.8948,1.8749,1.8749,1.8749,1.8141,1.7212,0.0,0.0,0.0,0.0,0.0,0.0,0.0,1.3761,0.0,1.4195,0.0,1.4995,1.4955,1.4676,1.4502,1.4469,0.0,1.4088,1.4088,1.4088,1.3955,1.3613,1.3327,1.3066,1.279,1.2529,0.0,0.0,0.0,0.0,0.0,0.0,0.0,0.0,0.0,0.0,0.0,1.2305,1.2305,1.2305,1.2305,1.2305,1.2305,1.2305,1.2305,1.2305,1.2305,1.2305,1.2305,1.2305,1.2305,1.2305,1.2305,1.2372,1.2482,1.2482,1.2482,1.2482,1.2482,1.2372,1.2342,1.2445,1.3098,1.3781,1.4027,1.4772,1.5468,1.5668,1.5629,1.5547,1.5568,0.0,0.0,0.0,0.0,0.0,0.0,0.0,0.0,0.0,0.0,0.0,0.0,1.1457,1.0885,1.0465,0.9824,0.9603,0.9865,0.0,1.0649,1.1369,1.2242,1.3112,1.3987,1.445,1.5029,1.5655,1.642,1.6775,1.6819,1.7647,1.8008,1.8018,1.8066,1.8266,1.8637,1.917,1.9619,2.0039,2.0458,2.0605,2.0605,2.0605,1.9392,1.7698,0.0,0.0,0.0,0.0,0.0,1.3606,1.3895,1.4021,1.4262,1.4794,1.4948,1.487,1.4623,1.4549,1.4422,1.4182,1.4115,0.0,0.0,0.0,0.0,1.3613,1.3327,1.3066,1.279,1.273,1.2583,0.0,0.0,0.0,0.0,0.0,0.0,0.0,0.0,0.0,1.2305,1.2305,0.0,1.2305,1.2305,1.2305,1.2305,1.2305,1.2305,1.2305,1.2305,1.2305,1.2305,1.2305,1.2305,1.2305,1.2305,1.2842,1.3455,1.3455,1.3455,1.3455,1.3455,1.2879,1.2482,1.3273,1.3564,1.4135,1.572,1.6245,1.6376,1.6403,1.7012,1.7063,1.5566,1.5489,0.0,0.0,0.0,0.0,0.0,0.0,0.0,0.0,0.0,1.4086,0.0,0.0,1.1796,1.1161,1.1019,1.0922,1.0872,0.0,1.1358,0.0,1.3527,1.4944,1.541,1.6705,1.7574,1.8014,1.781,1.7759,1.7759,1.794,1.8008,1.8027,1.8344,1.8529,1.8656,1.9446,2.0059,2.0498,2.0576,2.0605,2.0605,2.0605,2.0362,1.9913,0.0,0.0,0.0,0.0,0.0,0.0,0.0,1.4182,1.4188,1.4512,1.4509,1.4456,1.4309,1.4295,1.4242,1.4095,1.4088,1.4021,1.3868,1.3854,1.3728,1.3393,1.3133,0.0,1.279,1.263,1.2556,1.2569,0.0,0.0,0.0,0.0,0.0,0.0,0.0,1.2305,0.0,0.0,0.0,1.2305,1.2305,1.2305,1.2305,1.2305,1.2305,1.2305,1.2305,1.2305,1.2305,1.2305,1.2305,1.2372,1.2879,1.3353,1.381,1.4314,1.4494,1.4343,1.3846,1.3738,1.3774,1.3709,1.445,1.5438,1.6384,1.7001,1.732,1.732,1.7681,1.7725,1.6837,1.6677,1.6675,0.0,0.0,0.0,0.0,0.0,0.0,0.0,0.0,0.0,0.0,0.0,0.0,0.0,0.0,0.0,0.0,0.0,1.1543,0.0,0.0,0.0,1.5801,1.6911,1.7858,1.8598,1.8178,1.8008,1.8008,1.8008,1.8008,1.8037,1.8422,1.8734,1.9043,1.9893,2.0419,2.0605,2.0605,2.0605,2.0605,2.0605,2.0605,2.0527,0.0,1.354,0.0,0.0,1.3928,0.0,1.4396,1.4235,1.4108,1.4168,1.4128,1.4088,1.4088,1.4088,1.4088,1.4088,1.4028,1.3895,1.362,1.3547,1.338,1.3126,1.2918,1.2757,1.269,1.2455,1.2418,0.0,0.0,0.0,1.2683,0.0,0.0,0.0,0.0,0.0,0.0,0.0,1.2305,1.2305,1.2305,1.2305,1.2305,1.2305,1.2305,1.2305,1.2305,1.2305,1.2342,1.2519,1.2592,1.2739,1.3455,1.3991,1.4486,1.5269,1.5517,1.5332,1.4522,1.4736,1.5057,1.445,1.5473,1.6636,1.6853,1.7467,1.8008,1.8008,1.8008,1.8008,1.8008,1.7744,1.7519,0.0,0.0,0.0,0.0,0.0,0.0,0.0,0.0,0.0,1.3887,0.0,0.0,0.0,0.0,0.0,1.1392,0.0,0.0,0.0,1.3265,1.4783,1.5838,1.6758,1.7726,1.8734,1.8252,1.8057,1.8144,1.8144,1.8193,1.8311,1.8695,1.916,1.9609,2.0321,2.0605,2.0605,2.0605,2.0605,2.0605,2.0605,2.0605,2.0605,0.0,0.0,0.0,0.0,0.0,1.4095,1.4122,1.4108,1.4182,1.4442,1.4249,1.4088,1.4088,1.4088,1.4088,1.4088,1.3841,1.3633,1.36,1.336,1.3113,1.2844,1.2797,1.2656,1.2351,1.2318,1.2318,0.0,0.0,1.2318,0.0,0.0,0.0,0.0,0.0,1.2305,1.2305,1.2305,1.2305,1.2305,1.2305,1.2305,1.2305,1.2305,1.2305,1.2305,1.2305,1.2305,1.2445,1.3273,1.3564,1.3564,1.3673,1.4906,1.6349,1.6428,1.6463,1.6463,1.6349,1.579,1.5376,1.614,1.6463,1.681,1.7681,1.794,1.8008,1.8008,1.8008,1.8008,1.8008,1.7978,1.7949,0.0,0.0,0.0,0.0,0.0,0.0,0.0,0.0,0.0,0.0,1.428,0.0,0.0,1.3777,0.0,0.0,0.0,0.0,1.1088,1.3384,1.5066,1.5976,1.725,1.8352,1.9219,1.8398,1.8178,1.8539,1.8539,1.8789,1.9189,1.9609,2.0039,2.0488,2.0566,2.0605,2.0605,2.0605,2.0605,2.0605,2.0605,2.0605,2.0605,0.0,0.0,0.0,0.0,0.0,0.0,0.0,1.4088,1.4128,1.4249,1.4162,1.4088,1.4088,1.4088,1.4088,1.4088,1.3773,1.3533,1.3353,1.31,1.2837,1.2492,1.2516,1.2425,1.2305,1.2305,1.2392,0.0,0.0,0.0,0.0,0.0,1.2472,1.2305,1.2305,1.2305,1.2305,1.2305,1.2305,1.2305,1.2305,1.2305,1.2305,1.2305,1.2305,1.2305,1.2305,1.2305,1.2445,1.3382,1.3709,1.3882,1.5084,1.5965,1.6706,1.7285,1.7432,1.732,1.674,1.6749,1.6828,1.6636,1.7035,1.7545,1.7906,1.8008,1.8008,1.8008,1.8008,1.8008,1.8008,1.8008,1.8008,1.8008,0.0,0.0,0.0,0.0,0.0,0.0,0.0,0.0,0.0,0.0,0.0,0.0,0.0,0.0,0.0,0.0,0.0,1.2483,0.0,1.6105,1.6729,1.7816,1.8818,1.9658,1.9062,1.8857,1.9023,1.9023,1.9258,1.9678,1.9844,2.0166,2.0605,2.0605,2.0605,2.0605,2.0605,2.0605,2.0605,2.0605,2.0605,2.0605,1.4088,0.0,1.4088,0.0,1.4088,1.4088,1.4088,1.4088,1.4088,1.4088,1.4088,1.4088,1.4088,1.4088,1.4088,1.4088,1.3773,1.3513,1.3313,1.3005,1.273,1.2572,1.2478,0.0,1.2565,1.2478,1.2569,1.2784,1.2784,0.0,0.0,1.2891,1.267,1.2425,1.2345,1.2305,1.2305,1.2305,1.2305,1.2305,1.2305,1.2305,1.2305,1.2305,1.2305,1.2305,1.2305,1.2482,1.2842,1.381,1.4307,1.4799,1.6175,1.6784,1.7139,1.7794,1.8008,1.7862,1.7182,1.7501,1.7828,1.7173,1.7501,1.8008,1.8008,1.8008,1.8008,1.8008,1.8008,1.8008,1.8008,1.8008,1.8008,1.8008,0.0,0.0,0.0,1.79,0.0,0.0,1.659,1.624,1.5459,1.5146,0.0,0.0,0.0,0.0,0.0,0.0,1.4416,1.3694,1.549,1.6718,1.7252,1.8164,1.9026,1.9912,1.9482,1.9346,1.9473,1.9609,1.9824,2.0107,2.0107,2.0283,2.0605,2.0605,2.0605,2.0605,2.0605,2.0605,2.0605,2.0605,2.0605,2.0605,1.4088,1.4088,1.4088,1.4088,1.4088,1.4088,1.4088,1.4088,1.4088,1.4088,1.4088,1.4088,1.4088,1.4088,1.4088,1.4088,1.3773,1.36,1.36,1.3119,1.2918,0.0,0.0,1.2924,1.3193,1.2938,1.2784,1.2784,0.0,0.0,1.279,1.2784,1.2784,1.2764,1.2432,1.2305,1.2305,1.2305,1.2305,1.2305,1.2305,1.2305,1.2305,1.2305,1.2305,1.2305,1.2305,1.2915,1.3854,1.4843,1.579,1.6558,1.6593,1.7251,1.7974,1.8008,1.8008,1.8008,1.7974,1.7974,1.8008,1.7974,1.7974,1.8008,1.8008,1.8008,1.8008,1.8008,1.8008,1.8008,1.8008,1.8008,1.8008,1.8008,0.0,0.0,0.0,0.0,0.0,0.0,1.6338,1.5928,1.5459,1.541,0.0,0.0,0.0,0.0,0.0,0.0,1.4697,1.4295,1.5466,1.6531,1.7396,1.8199,1.9026,1.9912,1.9482,1.9502,1.9922,2.0352,2.0595,2.0595,2.0595,2.0595,2.0605,2.0605,2.0605,2.0605,2.0605,2.0605,2.0605,2.0605,2.0605,2.0605,1.4088,1.4088,1.4088,1.4088,1.4088,1.4088,1.4088,1.4088,1.4088,1.4088,1.4088,1.4088,1.4088,1.4088,1.4088,0.0,1.3773,1.36,0.0,1.328,1.3106,1.3206,1.3113,1.3113,1.3206,1.3113,1.3066,1.3066,0.0,1.3353,1.3353,1.3153,1.2991,1.2808,1.2438,1.2305,1.2305,1.2305,1.2305,1.2305,1.2305,1.2305,1.2305,1.2305,1.2305,1.2372,1.3025,1.3455,1.3954,1.5614,1.6349,1.6706,1.7354,1.7759,1.8008,1.8008,1.8008,1.8008,1.8008,1.8008,1.8008,1.8008,1.8008,1.8008,1.8008,1.8008,1.8008,1.8008,1.8008,1.8008,1.8008,1.8008,1.8008,1.8008,1.8008,0.0,1.8008,0.0,1.7656,0.0,1.7051,1.6946,1.6768,1.6242,0.0,0.0,0.0,0.0,0.0,1.6207,1.6394,1.5936,1.6907,1.768,1.8199,1.8783,1.9512,2.04,2.0263,2.0263,2.0361,2.0537,2.0605,2.0605,2.0605,2.0605,2.0605,2.0605,2.0605,2.0605,2.0605,2.0605,2.0605,2.0605,2.0605,2.0605,1.4088,1.4088,1.4088,1.4088,1.4088,1.4088,1.4088,1.4088,1.4088,1.4088,1.4088,1.4088,1.4088,1.4088,1.4088,1.4088,1.3915,1.3808,1.3808,1.3493,1.3427,1.3534,1.3434,1.3427,1.3534,1.3393,1.3333,1.3333,1.3407,1.3493,1.3593,1.3347,1.3046,1.2777,1.2589,1.2405,1.2305,1.2305,1.2305,1.2305,1.2305,1.2305,1.2305,1.2305,1.2305,1.2409,1.3346,1.3954,1.4486,1.607,1.6819,1.7217,1.7828,1.8008,1.8008,1.8008,1.8008,1.8008,1.8008,1.8008,1.8008,1.8008,1.8008,1.8008,1.8008,1.8008,1.8008,1.8008,1.8008,1.8008,1.8008,1.8008,1.8008,1.8008,1.8008,1.7959,1.7803,0.0,1.7793,0.0,0.0,1.7314,1.7148,1.6641,1.6436,0.0,0.0,0.0,0.0,1.6924,1.7158,1.7174,1.7847,1.8412,1.8841,1.9307,1.9873,2.0605,2.0605,2.0605,2.0605,2.0605,2.0605,2.0605,2.0605,2.0605,2.0605,2.0605,2.0605,2.0605,2.0605,2.0605,2.0605,2.0605,2.0605,2.0605,1.4088,1.4088,1.4088,1.4088,1.4088,1.4088,1.4088,1.4088,1.4088,1.4088,1.4088,1.4088,1.4088,1.4088,1.4088,1.4088,1.4088,1.4088,1.4088,1.3808,1.3733,1.4075,1.376,1.374,1.4082,1.3773,1.3633,1.3633,1.336,1.3407,1.3626,1.338,1.3073,1.2817,1.2797,1.2616,1.2305,1.2305,1.2305,1.2305,1.2305,1.2305,1.2305,1.2305,1.2305,1.2445,1.3455,1.4422,1.534,1.6358,1.7285,1.8008,1.8008,1.8008,1.8008,1.8008,1.8008,1.8008,1.8008,1.8008,1.8008,1.8008,1.8008,1.8008,1.8008,1.8008,1.8008,1.8008,1.8008,1.8008,1.8008,1.8008,1.8008,1.8008,1.7988,1.7842,1.748,1.7734,1.7686,0.0,0.0,1.7266,1.6824,1.6765,1.6746,0.0,0.0,0.0,0.0,1.6999,1.7165,1.8027,1.8393,1.8822,1.9326,1.9717,2.0137,2.0605,2.0605,2.0605,2.0605,2.0605,2.0605,2.0605,2.0605,2.0605,2.0605,2.0605,2.0605,2.0605,2.0605,2.0605,2.0605,2.0605,2.0605,2.0605,1.4088,1.4088,1.4088,1.4088,1.4088,1.4088,1.4088,1.4088,1.4088,1.4088,1.4088,1.4088,1.4088,1.4088,1.4088,1.4088,1.4088,1.4088,1.4088,1.3808,1.3733,1.4075,1.376,1.374,1.4082,1.4015,1.3981,1.3981,1.3915,1.3915,1.3975,1.364,1.3347,1.3093,1.2891,1.2616,1.2305,1.2305,1.2305,1.2305,1.2305,1.2305,1.2305,1.2305,1.2305,1.2519,1.4235,1.4985,1.5446,1.7113,1.7828,1.8008,1.8008,1.8008,1.8008,1.8008,1.8008,1.8008,1.8008,1.8008,1.8008,1.8008,1.8008,1.8008,1.8008,1.8008,1.8008,1.8008,1.8008,1.8008,1.8008,1.8008,1.8008,1.8008,1.7744,1.7607,1.7832,1.7676,1.7578,0.0,1.7793,1.7822,1.7681,1.7412,1.7227,0.0,0.0,1.7031,1.7363,1.7588,1.7915,1.8432,1.8549,1.8958,1.9756,1.9863,2.0137,2.0605,2.0605,2.0605,2.0605,2.0605,2.0605,2.0605,2.0605,2.0605,2.0605,2.0605,2.0605,2.0605,2.0605,2.0605,2.0605,2.0605,2.0605,2.0605,1.4088,1.4088,1.4088,1.4088,1.4088,1.4088,1.4088,1.4088,1.4088,1.4088,1.4088,1.4088,1.4088,1.4088,1.4088,1.4088,1.4088,1.4088,1.4088,1.3935,1.3915,1.4082,1.3935,1.3921,1.4082,1.4088,1.4088,1.4088,1.3814,1.3687,1.3681,1.3373,1.308,1.2792,1.2797,1.2842,1.2915,1.2482,1.2806,1.3557,1.2659,1.2556,1.2879,1.2445,1.2556,1.3135,1.4665,1.5482,1.6044,1.751,1.8008,1.8008,1.8008,1.8008,1.8008,1.8008,1.8008,1.8008,1.8008,1.8008,1.8008,1.8008,1.8008,1.8008,1.8008,1.8008,1.8008,1.8008,1.8008,1.8008,1.8008,1.8008,1.7949,1.7754,1.7529,1.7393,1.7422,1.7402,1.7471,1.7695,1.7891,1.8008,1.8008,1.7803,1.7666,1.7666,1.7451,1.751,1.7939,1.8174,1.8364,1.8598,1.8978,1.9407,1.9912,2.0107,2.037,2.0605,2.0605,2.0605,2.0605,2.0605,2.0605,2.0605,2.0605,2.0605,2.0605,2.0605,2.0605,2.0605,2.0605,2.0605,2.0605,2.0605,2.0605,2.0605,1.4573,1.4573,1.4538,1.437,1.4328,1.4292,1.413,1.4088,1.4088,1.4088,1.4088,1.4088,1.4088,1.4088,1.4088,1.4088,1.4088,1.4088,1.4088,1.4048,1.4041,1.4082,1.4041,1.4041,1.4088,1.4088,1.4068,1.4021,1.352,1.3253,1.3206,1.2978,1.2697,1.2378,1.267,1.3135,1.3637,1.2842,1.3557,1.5057,1.3411,1.3127,1.36,1.2806,1.3025,1.3818,1.4843,1.579,1.674,1.7681,1.8008,1.8008,1.8008,1.8008,1.8008,1.8008,1.8008,1.8008,1.8008,1.8008,1.8008,1.8008,1.8008,1.8008,1.8008,1.8008,1.8008,1.8008,1.8008,1.8008,1.8008,1.8008,1.79,1.7539,1.7422,1.7275,1.6931,1.7197,1.7402,1.7471,1.7793,1.8037,1.8061,1.8105,1.8135,1.8193,1.8203,1.8359,1.8676,1.8754,1.8792,1.8792,1.9494,1.9941,2.001,2.0381,2.0605,2.0605,2.0605,2.0605,2.0605,2.0605,2.0605,2.0605,2.0605,2.0605,2.0605,2.0605,2.0605,2.0605,2.0605,2.0605,2.0605,2.0605,2.0605,2.0605,1.6813,1.6813,1.6527,1.5621,1.5455,1.5137,1.425,1.4088,1.4088,1.4088,1.4088,1.4088,1.4088,1.4088,1.4088,1.4088,1.4088,1.4088,1.4088,1.3848,1.378,1.4075,1.3848,1.3828,1.4082,1.4088,1.3968,1.3673,1.358,1.3413,1.3213,1.316,1.2973,1.2717,1.2764,1.3135,1.3709,1.3528,1.4135,1.5163,1.4879,1.4343,1.3673,1.3528,1.3564,1.3818,1.4843,1.579,1.674,1.7681,1.8008,1.8008,1.8008,1.8008,1.8008,1.8008,1.8008,1.8008,1.8008,1.8008,1.8008,1.8008,1.8008,1.8008,1.8008,1.8008,1.8008,1.8008,1.8008,1.8008,1.8008,1.8008,1.7988,1.793,1.7617,1.748,1.7773,1.7568,1.7519,1.7871,1.7969,1.8144,1.8471,1.851,1.8656,1.9062,1.9092,1.9121,1.918,1.9521,1.9717,1.9717,1.9844,2.0088,2.0498,2.0566,2.0605,2.0605,2.0605,2.0605,2.0605,2.0605,2.0605,2.0605,2.0605,2.0605,2.0605,2.0605,2.0605,2.0605,2.0605,2.0605,2.0605,2.0605,2.0605,2.0605,1.7172,1.7302,1.6968,1.5902,1.5696,1.5338,1.425,1.4088,1.4088,1.4088,1.4088,1.4088,1.4088,1.4088,1.4088,1.4088,1.4088,1.4088,1.4088,1.3961,1.3941,1.4082,1.3955,1.3948,1.4082,1.3928,1.374,1.36,1.332,1.3093,1.2998,1.2799,1.2645,1.2543,1.2543,1.3263,1.445,1.3918,1.4843,1.662,1.5623,1.5234,1.5226,1.47,1.4807,1.5332,1.579,1.6576,1.7432,1.7862,1.8008,1.8008,1.8008,1.8008,1.8008,1.8008,1.8008,1.8008,1.8008,1.8008,1.8008,1.8008,1.8008,1.8008,1.8008,1.8008,1.8008,1.8008,1.8008,1.8008,1.8008,1.8008,1.7939,1.7705,1.751,1.7451,1.7646,1.75,1.7539,1.7959,1.8178,1.8393,1.8588,1.8812,1.9072,1.9268,1.9287,1.9385,1.9609,1.9814,2.0019,2.0254,2.0264,2.0361,2.0605,2.0605,2.0605,2.0605,2.0605,2.0605,2.0605,2.0605,2.0605,2.0605,2.0605,2.0605,2.0605,2.0605,2.0605,2.0605,2.0605,2.0605,2.0605,2.0605,2.0605,2.0605,1.79,1.806,1.7738,1.6634,1.647,1.6034,1.4699,1.4447,1.437,1.4124,1.4088,1.4088,1.4088,1.4088,1.4088,1.4088,1.4088,1.4088,1.4088,1.4088,1.4088,1.4088,1.4088,1.4088,1.4088,1.3753,1.3573,1.35,1.3045,1.275,1.2677,1.2412,1.2305,1.2305,1.2519,1.3593,1.5163,1.4593,1.5763,1.7872,1.6446,1.6149,1.6532,1.579,1.5965,1.6602,1.6602,1.7207,1.8008,1.8008,1.8008,1.8008,1.8008,1.8008,1.8008,1.8008,1.8008,1.8008,1.8008,1.8008,1.8008,1.8008,1.8008,1.8008,1.8008,1.8008,1.8008,1.8008,1.8008,1.8008,1.8008,1.8008,1.79,1.7578,1.7529,1.7529,1.7529,1.7529,1.7686,1.8105,1.8403,1.8676,1.888,1.9238,1.9473,1.958,1.958,1.9727,2.0049,2.0068,2.0225,2.0595,2.0605,2.0605,2.0605,2.0605,2.0605,2.0605,2.0605,2.0605,2.0605,2.0605,2.0605,2.0605,2.0605,2.0605,2.0605,2.0605,2.0605,2.0605,2.0605,2.0605,2.0605,2.0605,2.0605,2.0605,2.0362,2.0362,2.0001,1.8957,1.8758,1.802,1.5902,1.5579,1.522,1.425,1.4088,1.4088,1.4088,1.4088,1.4088,1.4088,1.4088,1.4088,1.4088,1.4088,1.4088,1.4088,1.4088,1.4088,1.4088,1.3753,1.3467,1.324,1.2951,1.2643,1.2338,1.2311,1.2305,1.2335,1.32,1.4207,1.5269,1.6035,1.7001,1.7974,1.7872,1.732,1.6593,1.6532,1.6532,1.6602,1.6602,1.7207,1.8008,1.8008,1.8008,1.8008,1.8008,1.8008,1.8008,1.8008,1.8008,1.8008,1.8008,1.8008,1.8008,1.8008,1.8008,1.8008,1.8008,1.8008,1.8008,1.8008,1.8008,1.8008,1.8008,1.8008,1.7998,1.7969,1.7969,1.7969,1.7969,1.7969,1.8115,1.851,1.8588,1.8909,1.9746,1.9853,2.0039,2.0478,2.0507,2.0527,2.0556,2.0556,2.0566,2.0605,2.0605,2.0605,2.0605,2.0605,2.0605,2.0605,2.0605,2.0605,2.0605,2.0605,2.0605,2.0605,2.0605,2.0605,2.0605,2.0605,2.0605,2.0605,2.0605,2.0605,2.0605,2.0605,2.0605,2.0605,2.0489,2.0605,2.0245,1.9204,1.8997,1.847,1.6927,1.6683,1.6314,1.522,1.567,1.5835,1.5179,1.5095,1.5095,1.5095,1.4489,1.4088,1.4088,1.4734,1.4817,1.413,1.4088,1.4088,1.4088,1.3753,1.346,1.3213,1.2938,1.263,1.2298,1.2915,1.3171,1.32,1.4199,1.5163,1.6105,1.6463,1.7139,1.8008,1.8008,1.7794,1.7467,1.7467,1.7467,1.7467,1.7467,1.7681,1.8008,1.8008,1.8008,1.8008,1.8008,1.8184,1.8364,1.8364,1.8213,1.8008,1.8008,1.8008,1.8008,1.8008,1.8203,1.8364,1.8364,1.8613,1.8799,1.8799,1.8799,1.8721,1.8412,1.8364,1.8276,1.8047,1.8008,1.8008,1.8008,1.8008,1.8164,1.8549,1.8877,1.9268,1.9853,2.0156,2.0429,2.0595,2.0605,2.0605,2.0605,2.0605,2.0605,2.0605,2.0605,2.0605,2.0605,2.0605,2.0605,2.0605,2.0605,2.0605,2.0605,2.0605,2.0605,2.0605,2.0605,2.0605,2.0605,2.0605,2.0605,2.0605,2.0605,2.0605,2.0605,2.0605,2.0605,2.0605,2.044,2.0605,2.0362,1.9638,1.9481,1.9116,1.7989,1.7827,1.7455,1.6355,1.6846,1.7009,1.6273,1.6191,1.6191,1.6191,1.5511,1.511,1.511,1.5786,1.5869,1.5144,1.511,1.4943,1.4615,1.4268,1.4053,1.3852,1.3564,1.3483,1.3592,1.4115,1.4361,1.4398,1.5408,1.6192,1.6791,1.7116,1.7587,1.8159,1.8057,1.8008,1.8008,1.8008,1.8008,1.8008,1.8008,1.8008,1.8008,1.8008,1.8096,1.8178,1.8178,1.8461,1.8812,1.8812,1.8633,1.8408,1.8408,1.8408,1.8379,1.8242,1.8393,1.8637,1.8773,1.9072,1.9287,1.9287,1.9287,1.9199,1.8896,1.8812,1.875,1.8457,1.8408,1.8408,1.8408,1.8408,1.8564,1.8948,1.9307,1.9648,2.0078,2.0429,2.0605,2.0605,2.0605,2.0605,2.0605,2.0605,2.0605,2.0605,2.0605,2.0605,2.0605,2.0605,2.0605,2.0605,2.0605,2.0605,2.0605,2.0605,2.0605,2.0605,2.0605,2.0605,2.0605,2.0605,2.0605,2.0605,2.0605,2.0605,2.0605,2.0605,2.0605,2.0605,2.0605,2.0605,2.0605,2.0605,2.0605,2.0245,1.9195,1.8997,1.8598,1.7455,1.7334,1.7334,1.7293,1.7293,1.7293,1.7293,1.7302,1.7302,1.7293,1.7293,1.7334,1.7342,1.7302,1.6805,1.5737,1.5463,1.5298,1.5298,1.496,1.5365,1.6401,1.6013,1.5801,1.5846,1.681,1.7225,1.7297,1.8209,1.8607,1.8568,1.8184,1.8018,1.8018,1.8008,1.8008,1.8018,1.8018,1.8018,1.8018,1.8018,1.8301,1.8607,1.8617,1.8945,1.9287,1.9287,1.9287,1.9287,1.9287,1.9287,1.918,1.8715,1.8607,1.8724,1.9189,1.9297,1.9297,1.9297,1.9297,1.9297,1.9297,1.9287,1.9287,1.9287,1.9287,1.9287,1.9287,1.9287,1.9443,1.9863,1.9912,2.0088,2.0556,2.0605,2.0605,2.0605,2.0605,2.0605,2.0605,2.0605,2.0605,2.0605,2.0605,2.0605,2.0605,2.0605,2.0605,2.0605,2.0605,2.0605,2.0605,2.0605,2.0605,2.0605,2.0605,2.0605,2.0605,2.0605,2.0605,2.0605,2.0605,2.0605,2.0605,2.0605,2.0605,2.0615,2.0605,2.0605,2.0605,2.0605,2.0605,2.0479,2.0157,2.0118,1.9717,1.8638,1.9155,1.9313,1.855,1.847,1.847,1.847,1.7738,1.7626,1.843,1.847,1.8829,1.959,1.8141,1.7139,1.6846,1.6742,1.6605,1.6419,1.6314,1.6321,1.6409,1.7,1.7254,1.7291,1.8265,1.8684,1.8684,1.8983,1.9092,1.9053,1.8588,1.8412,1.8383,1.8125,1.8193,1.8412,1.8412,1.8643,1.8906,1.8906,1.8994,1.9141,1.9407,1.9424,1.9346,1.9639,1.9521,1.9287,1.9287,1.9287,1.9258,1.9131,1.9316,1.957,1.9697,1.9961,2.0224,2.0224,2.0224,2.0088,1.9785,1.9727,1.9629,1.9336,1.9287,1.9287,1.9287,1.9287,1.9443,1.9863,1.9912,2.0088,2.0556,2.0605,2.0605,2.0605,2.0605,2.0605,2.0605,2.0605,2.0605,2.0605,2.0605,2.0605,2.0605,2.0605,2.0605,2.0605,2.0605,2.0605,2.0605,2.0605,2.0605,2.0605,2.0605,2.0605,2.0605,2.0605,2.0605,2.0605,2.0605,2.0605,2.0644,2.0918,2.1035,2.1084,2.0605,2.0605,2.0605,2.0605,2.0605,2.0605,2.0605,2.0605,2.0362,1.9717,2.0206,2.0362,1.9678,1.9638,1.9638,1.9638,1.8988,1.8908,1.9599,1.9638,1.9923,2.0566,1.9313,1.843,1.7989,1.798,1.7869,1.7747,1.7747,1.7822,1.8056,1.8498,1.8695,1.8732,1.9263,1.9541,1.9541,1.9541,1.9541,1.9502,1.9072,1.8896,1.8867,1.8613,1.8672,1.8896,1.8896,1.9062,1.9287,1.9287,1.9394,1.9609,2.0039,2.0,1.9844,2.0098,1.999,1.9795,1.9795,1.9795,1.9795,1.9795,1.9853,1.9961,2.0127,2.0419,2.0605,2.0605,2.0605,2.0517,2.0225,2.0176,2.0088,1.9834,1.9795,1.9795,1.9795,1.9795,1.9893,2.0137,2.0176,2.0273,2.0576,2.0605,2.0605,2.0605,2.0605,2.0605,2.0605,2.0605,2.0605,2.0605,2.0605,2.0605,2.0605,2.0605,2.0605,2.0605,2.0605,2.0605,2.0605,2.0605,2.0605,2.0605,2.0605,2.0605,2.0605,2.0605,2.0605,2.0625,2.0762,2.083,2.0889,2.1328,2.1494,2.1533,2.0605,2.0605,2.0605,2.0605,2.0605,2.0605,2.0605,2.0605,2.0605,2.0605,2.0605,2.0605,2.0605,2.0605,2.0605,2.0605,2.0605,2.0605,2.0605,2.0605,2.0605,2.0605,2.0605,2.0118,1.9155,1.9155,1.9155,1.9155,1.9155,1.9638,2.0595,2.0156,1.9971,1.9971,1.9971,1.9971,1.9971,1.9971,1.9971,1.9932,1.9512,1.9346,1.9336,1.9307,1.9307,1.9346,1.9346,1.9365,1.9404,1.9404,1.9658,2.0049,2.0478,2.0605,2.0605,2.0605,2.0605,2.0605,2.0605,2.0605,2.0605,2.0605,2.0273,2.0078,2.0517,2.0605,2.0605,2.0605,2.0605,2.0605,2.0605,2.0605,2.0605,2.0605,2.0605,2.0605,2.0605,2.0605,2.0605,2.0605,2.0605,2.0605,2.0605,2.0605,2.0605,2.0605,2.0605,2.0605,2.0605,2.0605,2.0605,2.0605,2.0605,2.0625,2.0664,2.0742,2.0751,2.0605,2.0605,2.0605,2.0605,2.0683,2.0712,2.0712,2.0712,2.0712,2.0712,2.0683,2.0664,2.0713,2.1123,2.1329,2.1459,2.1942,2.2099,2.2109,2.0605,2.0605,2.0605,2.0605,2.0605,2.0605,2.0605,2.0605,2.0605,2.0605,2.0605,2.0605,2.0605,2.0605,2.0605,2.0605,2.0605,2.0605,2.0605,2.0605,2.0605,2.0605,2.0605,2.0479,2.0245,2.0245,2.0245,2.0245,2.0245,2.0362,2.0605,2.0507,2.0458,2.0458,2.0458,2.0458,2.0458,2.0458,2.0458,2.0429,1.9951,1.9775,1.9746,1.9414,1.9492,1.9775,1.9775,2.0,2.0321,2.0321,2.039,2.0478,2.0576,2.0605,2.0605,2.0605,2.0605,2.0605,2.0605,2.0605,2.0605,2.0605,2.0537,2.0488,2.0586,2.0605,2.0605,2.0605,2.0605,2.0605,2.0605,2.0605,2.0605,2.0605,2.0605,2.0605,2.0605,2.0605,2.0605,2.0605,2.0605,2.0605,2.0605,2.0605,2.0605,2.0605,2.0605,2.0605,2.0605,2.0605,2.0605,2.0605,2.0605,2.0732,2.1084,2.1953,2.1808,2.0605,2.0605,2.0605,2.0644,2.1375,2.1707,2.1707,2.1707,2.1707,2.1652,2.1243,2.1094,2.1133,2.1572,2.224,2.3058,2.3525,2.3691,2.3619,2.0605,2.0605,2.0605,2.0605,2.0605,2.0605,2.0605,2.0605,2.0605,2.0605,2.0605,2.0605,2.0605,2.0605,2.0605,2.0605,2.0605,2.0605,2.0605,2.0605,2.0605,2.0605,2.0605,2.0605,2.0605,2.0605,2.0605,2.0605,2.0605,2.0605,2.0605,2.0605,2.0605,2.0605,2.0605,2.0605,2.0605,2.0605,2.0605,2.0586,2.0312,2.0225,2.0195,1.998,2.0029,2.0225,2.0225,2.041,2.0605,2.0605,2.0605,2.0605,2.0605,2.0605,2.0605,2.0605,2.0605,2.0605,2.0605,2.0605,2.0605,2.0605,2.0605,2.0605,2.0605,2.0605,2.0605,2.0605,2.0605,2.0605,2.0605,2.0605,2.0605,2.0605,2.0605,2.0605,2.0605,2.0605,2.0605,2.0605,2.0605,2.0605,2.0605,2.0605,2.0605,2.0605,2.0605,2.0605,2.0605,2.0605,2.0703,2.0879,2.0889,2.0996,2.119,2.2498,2.2689,2.171,2.171,2.1661,2.1622,2.2182,2.2401,2.2325,2.2401,2.2668,2.2999,2.1981,2.1877,2.2361,2.3109,2.357,2.3963,2.4934,2.5313,2.5222,2.0605,2.0605,2.0605,2.0605,2.0605,2.0605,2.0605,2.0605,2.0605,2.0605,2.0605,2.0605,2.0605,2.0605,2.0605,2.0605,2.0605,2.0605,2.0605,2.0605,2.0605,2.0605,2.0605,2.0605,2.0605,2.0605,2.0605,2.0605,2.0605,2.0605,2.0605,2.0605,2.0605,2.0605,2.0605,2.0605,2.0605,2.0605,2.0605,2.0605,2.0605,2.0605,2.0605,2.0605,2.0605,2.0605,2.0605,2.0605,2.0605,2.0605,2.0605,2.0605,2.0605,2.0605,2.0605,2.0605,2.0605,2.0605,2.0605,2.0605,2.0605,2.0605,2.0605,2.0605,2.0605,2.0605,2.0605,2.0605,2.0605,2.0605,2.0605,2.0605,2.0605,2.0605,2.0605,2.0605,2.0605,2.0605,2.0635,2.0713,2.0684,2.0693,2.0615,2.0674,2.0684,2.0684,2.0791,2.0801,2.0723,2.0928,2.1223,2.1491,2.176,2.188,2.184,2.3387,2.3971,2.3518,2.3632,2.3477,2.3119,2.3429,2.3457,2.338,2.3468,2.3957,2.457,2.3226,2.3147,2.398,2.4902,2.5098,2.5005,2.6315,2.676,2.676,2.0605,2.0605,2.0605,2.0605,2.0605,2.0605,2.0605,2.0605,2.0605,2.0605,2.0605,2.0605,2.0605,2.0605,2.0605,2.0605,2.0605,2.0605,2.0605,2.0605,2.0605,2.0605,2.0605,2.0605,2.0605,2.0605,2.0605,2.0605,2.0605,2.0605,2.0605,2.0605,2.0605,2.0605,2.0605,2.0605,2.0605,2.0605,2.0605,2.0605,2.0605,2.0605,2.0605,2.0605,2.0605,2.0605,2.0605,2.0605,2.0605,2.0605,2.0605,2.0605,2.0605,2.0605,2.0605,2.0605,2.0605,2.0605,2.0605,2.0605,2.0605,2.0605,2.0605,2.0605,2.0605,2.0605,2.0605,2.0605,2.0605,2.0605,2.0605,2.0605,2.0605,2.0605,2.0605,2.0605,2.0605,2.0605,2.0752,2.1094,2.1103,2.0986,2.0644,2.0918,2.1103,2.1103,2.1494,2.1543,2.1122,2.237,2.2968,2.2684,2.3955,2.4603,2.4475,2.6131,2.6658,2.6013,2.66,2.6178,2.4876,2.5727,2.6106,2.6068,2.6106,2.6182,2.6255,2.5548,2.5349,2.5545,2.6113,2.6834,2.7589,2.782,2.7884,2.7763,2.0605,2.0605,2.0605,2.0605,2.0605,2.0605,2.0605,2.0605,2.0605,2.0605,2.0605,2.0605,2.0605,2.0605,2.0605,2.0605,2.0605,2.0605,2.0605,2.0605,2.0605,2.0605,2.0605,2.0605,2.0605,2.0605,2.0605,2.0605,2.0605,2.0605,2.0605,2.0605,2.0605,2.0605,2.0605,2.0605,2.0605,2.0605,2.0605,2.0605,2.0605,2.0605,2.0605,2.0605,2.0605,2.0605,2.0605,2.0605,2.0605,2.0605,2.0605,2.0605,2.0605,2.0605,2.0605,2.0605,2.0605,2.0605,2.0605,2.0605,2.0605,2.0605,2.0752,2.0937,2.0937,2.1133,2.1202,2.0703,2.0605,2.0683,2.0889,2.0732,2.0762,2.1261,2.1103,2.1025,2.1269,2.1339,2.1377,2.1572,2.1592,2.1514,2.1318,2.1484,2.1826,2.2432,2.2696,2.2959,2.3427,2.4071,2.4478,2.4533,2.5177,2.5498,2.5447,2.7057,2.7579,2.709,2.8222,2.7953,2.6399,2.6889,2.7043,2.7004,2.7081,2.741,2.7801,2.6703,2.6581,2.7144,2.7652,2.8355,2.9067,2.9067,2.9067,2.8988]}]]